<?xml version="1.0" encoding="UTF-8" standalone="no" ?>
<gpx xmlns="http://www.topografix.com/GPX/1/1" xmlns:xsi="http://www.w3.org/2001/XMLSchema-instance" xsi:schemaLocation="http://www.topografix.com/GPX/1/1 http://www.topografix.com/GPX/1/1/gpx.xsd" version="1.1" creator="VisuGPX - https://www.visugpx.com">
  <metadata>
    <name>2025-04-03-46 Quissac</name>
    <desc><![CDATA[Randonnée de 10 km sans difficulté; après une traversée du charmant village vous serez très souvent en sous bois sur de larges chemins au creux de la nature.]]></desc>
  </metadata>
  <trk>
    <name><![CDATA[2025-04-03-46-Quissac_1]]></name>
    <desc><![CDATA[10km

10km]]></desc>
    <extensions>
      <line xmlns="http://www.topografix.com/GPX/gpx_style/0/2">
        <color>0000FF</color>
        <width>4</width>
      </line>
    </extensions>
    <trkseg>
      <trkpt lat="44.64121" lon="1.72534">
        <ele>356.6</ele>
        <time>2025-03-30T15:02:54Z</time>
      </trkpt>
      <trkpt lat="44.64125" lon="1.7253">
        <ele>356.9</ele>
        <time>2025-03-30T15:02:59Z</time>
      </trkpt>
      <trkpt lat="44.64127" lon="1.72527">
        <ele>357</ele>
      </trkpt>
      <trkpt lat="44.64131" lon="1.72523">
        <ele>357.2</ele>
        <time>2025-03-30T15:03:04Z</time>
      </trkpt>
      <trkpt lat="44.64146" lon="1.72502">
        <ele>357.7</ele>
        <time>2025-03-30T15:03:09Z</time>
      </trkpt>
      <trkpt lat="44.64173" lon="1.72465">
        <ele>358.1</ele>
      </trkpt>
      <trkpt lat="44.64182" lon="1.72443">
        <ele>358.5</ele>
      </trkpt>
      <trkpt lat="44.64185" lon="1.72439">
        <ele>358.5</ele>
        <time>2025-03-30T15:03:15Z</time>
      </trkpt>
      <trkpt lat="44.64189" lon="1.72447">
        <ele>358.1</ele>
        <time>2025-03-30T15:03:19Z</time>
      </trkpt>
      <trkpt lat="44.64193" lon="1.72454">
        <ele>358.9</ele>
        <time>2025-03-30T15:03:25Z</time>
      </trkpt>
      <trkpt lat="44.64196" lon="1.72459">
        <ele>357.3</ele>
        <time>2025-03-30T15:03:45Z</time>
      </trkpt>
      <trkpt lat="44.64198" lon="1.72467">
        <ele>356.7</ele>
        <time>2025-03-30T15:03:52Z</time>
      </trkpt>
      <trkpt lat="44.642" lon="1.72473">
        <ele>356</ele>
        <time>2025-03-30T15:03:56Z</time>
      </trkpt>
      <trkpt lat="44.64203" lon="1.7248">
        <ele>355.5</ele>
        <time>2025-03-30T15:04:01Z</time>
      </trkpt>
      <trkpt lat="44.64205" lon="1.72486">
        <ele>355</ele>
        <time>2025-03-30T15:04:05Z</time>
      </trkpt>
      <trkpt lat="44.64208" lon="1.72491">
        <ele>355.6</ele>
        <time>2025-03-30T15:04:09Z</time>
      </trkpt>
      <trkpt lat="44.64211" lon="1.72497">
        <ele>357.9</ele>
        <time>2025-03-30T15:04:27Z</time>
      </trkpt>
      <trkpt lat="44.64214" lon="1.72503">
        <ele>358.5</ele>
        <time>2025-03-30T15:04:32Z</time>
      </trkpt>
      <trkpt lat="44.64217" lon="1.7251">
        <ele>359.1</ele>
        <time>2025-03-30T15:04:38Z</time>
      </trkpt>
      <trkpt lat="44.64218" lon="1.72517">
        <ele>357.4</ele>
        <time>2025-03-30T15:04:56Z</time>
      </trkpt>
      <trkpt lat="44.6422" lon="1.72525">
        <ele>357.1</ele>
        <time>2025-03-30T15:05:01Z</time>
      </trkpt>
      <trkpt lat="44.64221" lon="1.72532">
        <ele>358</ele>
        <time>2025-03-30T15:05:06Z</time>
      </trkpt>
      <trkpt lat="44.64223" lon="1.7254">
        <ele>359.7</ele>
        <time>2025-03-30T15:05:12Z</time>
      </trkpt>
      <trkpt lat="44.64226" lon="1.72545">
        <ele>358.4</ele>
        <time>2025-03-30T15:05:15Z</time>
      </trkpt>
      <trkpt lat="44.64229" lon="1.72551">
        <ele>358.4</ele>
        <time>2025-03-30T15:05:19Z</time>
      </trkpt>
      <trkpt lat="44.64232" lon="1.72556">
        <ele>357.7</ele>
        <time>2025-03-30T15:05:24Z</time>
      </trkpt>
      <trkpt lat="44.64233" lon="1.72563">
        <ele>358.3</ele>
        <time>2025-03-30T15:05:29Z</time>
      </trkpt>
      <trkpt lat="44.64235" lon="1.72569">
        <ele>358.8</ele>
        <time>2025-03-30T15:05:33Z</time>
      </trkpt>
      <trkpt lat="44.64238" lon="1.72575">
        <ele>359.5</ele>
        <time>2025-03-30T15:05:38Z</time>
      </trkpt>
      <trkpt lat="44.64242" lon="1.72581">
        <ele>360.9</ele>
        <time>2025-03-30T15:05:43Z</time>
      </trkpt>
      <trkpt lat="44.64245" lon="1.72586">
        <ele>364</ele>
        <time>2025-03-30T15:05:50Z</time>
      </trkpt>
      <trkpt lat="44.64248" lon="1.72592">
        <ele>362.1</ele>
        <time>2025-03-30T15:05:55Z</time>
      </trkpt>
      <trkpt lat="44.64251" lon="1.72598">
        <ele>360.7</ele>
        <time>2025-03-30T15:06:00Z</time>
      </trkpt>
      <trkpt lat="44.64254" lon="1.72603">
        <ele>360.2</ele>
        <time>2025-03-30T15:06:04Z</time>
      </trkpt>
      <trkpt lat="44.64257" lon="1.72609">
        <ele>359.7</ele>
        <time>2025-03-30T15:06:09Z</time>
      </trkpt>
      <trkpt lat="44.6426" lon="1.72613">
        <ele>360.4</ele>
        <time>2025-03-30T15:06:13Z</time>
      </trkpt>
      <trkpt lat="44.64264" lon="1.7262">
        <ele>360.5</ele>
        <time>2025-03-30T15:06:18Z</time>
      </trkpt>
      <trkpt lat="44.64267" lon="1.72626">
        <ele>361.5</ele>
        <time>2025-03-30T15:06:23Z</time>
      </trkpt>
      <trkpt lat="44.6427" lon="1.72631">
        <ele>362.9</ele>
        <time>2025-03-30T15:06:27Z</time>
      </trkpt>
      <trkpt lat="44.64272" lon="1.72636">
        <ele>363.6</ele>
        <time>2025-03-30T15:06:31Z</time>
      </trkpt>
      <trkpt lat="44.64277" lon="1.72641">
        <ele>365.3</ele>
        <time>2025-03-30T15:06:36Z</time>
      </trkpt>
      <trkpt lat="44.6428" lon="1.72646">
        <ele>365.5</ele>
        <time>2025-03-30T15:06:40Z</time>
      </trkpt>
      <trkpt lat="44.64283" lon="1.72652">
        <ele>365.1</ele>
        <time>2025-03-30T15:06:45Z</time>
      </trkpt>
      <trkpt lat="44.64286" lon="1.72658">
        <ele>365.5</ele>
        <time>2025-03-30T15:06:50Z</time>
      </trkpt>
      <trkpt lat="44.64288" lon="1.72664">
        <ele>366</ele>
        <time>2025-03-30T15:06:54Z</time>
      </trkpt>
      <trkpt lat="44.64292" lon="1.72669">
        <ele>366.8</ele>
        <time>2025-03-30T15:07:05Z</time>
      </trkpt>
      <trkpt lat="44.64295" lon="1.72675">
        <ele>367.4</ele>
        <time>2025-03-30T15:07:10Z</time>
      </trkpt>
      <trkpt lat="44.64297" lon="1.7268">
        <ele>367</ele>
        <time>2025-03-30T15:07:14Z</time>
      </trkpt>
      <trkpt lat="44.643" lon="1.72687">
        <ele>366.7</ele>
        <time>2025-03-30T15:07:19Z</time>
      </trkpt>
      <trkpt lat="44.64303" lon="1.72692">
        <ele>367.1</ele>
        <time>2025-03-30T15:07:23Z</time>
      </trkpt>
      <trkpt lat="44.64306" lon="1.72698">
        <ele>367.6</ele>
        <time>2025-03-30T15:07:28Z</time>
      </trkpt>
      <trkpt lat="44.64309" lon="1.72705">
        <ele>368.2</ele>
        <time>2025-03-30T15:07:33Z</time>
      </trkpt>
      <trkpt lat="44.64313" lon="1.72711">
        <ele>368.9</ele>
        <time>2025-03-30T15:07:38Z</time>
      </trkpt>
      <trkpt lat="44.64317" lon="1.72716">
        <ele>368.4</ele>
        <time>2025-03-30T15:07:43Z</time>
      </trkpt>
      <trkpt lat="44.64321" lon="1.72721">
        <ele>369.9</ele>
        <time>2025-03-30T15:07:48Z</time>
      </trkpt>
      <trkpt lat="44.64324" lon="1.72725">
        <ele>371</ele>
        <time>2025-03-30T15:07:52Z</time>
      </trkpt>
      <trkpt lat="44.64328" lon="1.72729">
        <ele>371.9</ele>
        <time>2025-03-30T15:07:56Z</time>
      </trkpt>
      <trkpt lat="44.64332" lon="1.72733">
        <ele>372.5</ele>
        <time>2025-03-30T15:08:01Z</time>
      </trkpt>
      <trkpt lat="44.64337" lon="1.72737">
        <ele>373.6</ele>
        <time>2025-03-30T15:08:06Z</time>
      </trkpt>
      <trkpt lat="44.64342" lon="1.72741">
        <ele>374.6</ele>
        <time>2025-03-30T15:08:11Z</time>
      </trkpt>
      <trkpt lat="44.64346" lon="1.72747">
        <ele>376.3</ele>
        <time>2025-03-30T15:08:16Z</time>
      </trkpt>
      <trkpt lat="44.6435" lon="1.72752">
        <ele>376.4</ele>
        <time>2025-03-30T15:08:21Z</time>
      </trkpt>
      <trkpt lat="44.64353" lon="1.72756">
        <ele>376.4</ele>
        <time>2025-03-30T15:08:25Z</time>
      </trkpt>
      <trkpt lat="44.64357" lon="1.72759">
        <ele>376.6</ele>
        <time>2025-03-30T15:08:29Z</time>
      </trkpt>
      <trkpt lat="44.64361" lon="1.72765">
        <ele>377.3</ele>
        <time>2025-03-30T15:08:34Z</time>
      </trkpt>
      <trkpt lat="44.64365" lon="1.7277">
        <ele>377.8</ele>
        <time>2025-03-30T15:08:39Z</time>
      </trkpt>
      <trkpt lat="44.64368" lon="1.72776">
        <ele>378.6</ele>
        <time>2025-03-30T15:08:44Z</time>
      </trkpt>
      <trkpt lat="44.64372" lon="1.72782">
        <ele>379</ele>
        <time>2025-03-30T15:08:49Z</time>
      </trkpt>
      <trkpt lat="44.64375" lon="1.72786">
        <ele>379.5</ele>
        <time>2025-03-30T15:08:53Z</time>
      </trkpt>
      <trkpt lat="44.64379" lon="1.72792">
        <ele>379.8</ele>
        <time>2025-03-30T15:08:58Z</time>
      </trkpt>
      <trkpt lat="44.64382" lon="1.72798">
        <ele>380</ele>
        <time>2025-03-30T15:09:03Z</time>
      </trkpt>
      <trkpt lat="44.64383" lon="1.72804">
        <ele>381</ele>
        <time>2025-03-30T15:09:07Z</time>
      </trkpt>
      <trkpt lat="44.64387" lon="1.7281">
        <ele>381.9</ele>
        <time>2025-03-30T15:09:12Z</time>
      </trkpt>
      <trkpt lat="44.64389" lon="1.72815">
        <ele>382.8</ele>
        <time>2025-03-30T15:09:16Z</time>
      </trkpt>
      <trkpt lat="44.64391" lon="1.72821">
        <ele>383.5</ele>
        <time>2025-03-30T15:09:20Z</time>
      </trkpt>
      <trkpt lat="44.64394" lon="1.72827">
        <ele>383.9</ele>
        <time>2025-03-30T15:09:25Z</time>
      </trkpt>
      <trkpt lat="44.64396" lon="1.72833">
        <ele>383.9</ele>
        <time>2025-03-30T15:09:30Z</time>
      </trkpt>
      <trkpt lat="44.64398" lon="1.7284">
        <ele>383.9</ele>
        <time>2025-03-30T15:09:35Z</time>
      </trkpt>
      <trkpt lat="44.644" lon="1.72847">
        <ele>384.1</ele>
        <time>2025-03-30T15:09:40Z</time>
      </trkpt>
      <trkpt lat="44.64402" lon="1.72853">
        <ele>382.6</ele>
        <time>2025-03-30T15:09:45Z</time>
      </trkpt>
      <trkpt lat="44.64404" lon="1.7286">
        <ele>379.9</ele>
        <time>2025-03-30T15:09:50Z</time>
      </trkpt>
      <trkpt lat="44.64411" lon="1.7289">
        <ele>379.4</ele>
        <time>2025-03-30T15:09:55Z</time>
      </trkpt>
      <trkpt lat="44.64412" lon="1.72939">
        <ele>378.7</ele>
        <time>2025-03-30T15:10:00Z</time>
      </trkpt>
      <trkpt lat="44.64412" lon="1.72979">
        <ele>378.5</ele>
        <time>2025-03-30T15:10:04Z</time>
      </trkpt>
      <trkpt lat="44.64415" lon="1.73006">
        <ele>378.6</ele>
        <time>2025-03-30T15:10:08Z</time>
      </trkpt>
      <trkpt lat="44.64424" lon="1.73022">
        <ele>378.8</ele>
        <time>2025-03-30T15:10:12Z</time>
      </trkpt>
      <trkpt lat="44.64432" lon="1.73017">
        <ele>379.5</ele>
        <time>2025-03-30T15:10:17Z</time>
      </trkpt>
      <trkpt lat="44.64442" lon="1.73013">
        <ele>380.4</ele>
        <time>2025-03-30T15:10:22Z</time>
      </trkpt>
      <trkpt lat="44.64453" lon="1.73014">
        <ele>381.1</ele>
        <time>2025-03-30T15:10:26Z</time>
      </trkpt>
      <trkpt lat="44.64463" lon="1.73006">
        <ele>382.1</ele>
        <time>2025-03-30T15:10:30Z</time>
      </trkpt>
      <trkpt lat="44.64484" lon="1.72992">
        <ele>384.2</ele>
        <time>2025-03-30T15:10:35Z</time>
      </trkpt>
      <trkpt lat="44.64496" lon="1.73034">
        <ele>383.5</ele>
        <time>2025-03-30T15:10:40Z</time>
      </trkpt>
      <trkpt lat="44.64505" lon="1.73076">
        <ele>383.4</ele>
        <time>2025-03-30T15:10:44Z</time>
      </trkpt>
      <trkpt lat="44.64491" lon="1.73069">
        <ele>382.7</ele>
        <time>2025-03-30T12:19:56Z</time>
      </trkpt>
      <trkpt lat="44.64481" lon="1.73052">
        <ele>382.3</ele>
        <time>2025-03-30T12:20:01Z</time>
      </trkpt>
      <trkpt lat="44.6447" lon="1.73042">
        <ele>381.9</ele>
        <time>2025-03-30T12:20:06Z</time>
      </trkpt>
      <trkpt lat="44.6446" lon="1.73039">
        <ele>381.3</ele>
        <time>2025-03-30T12:20:10Z</time>
      </trkpt>
      <trkpt lat="44.6445" lon="1.7304">
        <ele>380.7</ele>
        <time>2025-03-30T12:20:15Z</time>
      </trkpt>
      <trkpt lat="44.64438" lon="1.73052">
        <ele>380</ele>
        <time>2025-03-30T12:20:21Z</time>
      </trkpt>
      <trkpt lat="44.64426" lon="1.73058">
        <ele>378.4</ele>
        <time>2025-03-30T12:20:25Z</time>
      </trkpt>
      <trkpt lat="44.64415" lon="1.73034">
        <ele>377.6</ele>
        <time>2025-03-30T12:20:29Z</time>
      </trkpt>
      <trkpt lat="44.64408" lon="1.73017">
        <ele>377.4</ele>
        <time>2025-03-30T12:20:33Z</time>
      </trkpt>
      <trkpt lat="44.64403" lon="1.73003">
        <ele>377.5</ele>
        <time>2025-03-30T12:20:37Z</time>
      </trkpt>
      <trkpt lat="44.64403" lon="1.72994">
        <ele>377.5</ele>
      </trkpt>
      <trkpt lat="44.644" lon="1.72975">
        <ele>377.2</ele>
        <time>2025-03-30T12:20:41Z</time>
      </trkpt>
      <trkpt lat="44.64398" lon="1.72956">
        <ele>377</ele>
        <time>2025-03-30T12:20:45Z</time>
      </trkpt>
      <trkpt lat="44.6438" lon="1.72957">
        <ele>375.4</ele>
        <time>2025-03-30T12:20:49Z</time>
      </trkpt>
      <trkpt lat="44.64359" lon="1.72954">
        <ele>373.9</ele>
        <time>2025-03-30T12:20:53Z</time>
      </trkpt>
      <trkpt lat="44.64342" lon="1.72949">
        <ele>372.6</ele>
        <time>2025-03-30T12:20:57Z</time>
      </trkpt>
      <trkpt lat="44.64323" lon="1.72937">
        <ele>372.4</ele>
        <time>2025-03-30T12:21:01Z</time>
      </trkpt>
      <trkpt lat="44.64319" lon="1.72931">
        <ele>372.7</ele>
        <time>2025-03-30T12:21:05Z</time>
      </trkpt>
      <trkpt lat="44.64315" lon="1.72927">
        <ele>372.7</ele>
        <time>2025-03-30T12:21:09Z</time>
      </trkpt>
      <trkpt lat="44.64313" lon="1.72921">
        <ele>372.2</ele>
        <time>2025-03-30T12:21:13Z</time>
      </trkpt>
      <trkpt lat="44.6431" lon="1.72916">
        <ele>371.7</ele>
        <time>2025-03-30T12:21:17Z</time>
      </trkpt>
      <trkpt lat="44.64307" lon="1.7291">
        <ele>371.1</ele>
        <time>2025-03-30T12:21:21Z</time>
      </trkpt>
      <trkpt lat="44.64304" lon="1.72906">
        <ele>370.7</ele>
        <time>2025-03-30T12:21:25Z</time>
      </trkpt>
      <trkpt lat="44.643" lon="1.72901">
        <ele>371.2</ele>
        <time>2025-03-30T12:21:29Z</time>
      </trkpt>
      <trkpt lat="44.64296" lon="1.72895">
        <ele>371.5</ele>
        <time>2025-03-30T12:21:33Z</time>
      </trkpt>
      <trkpt lat="44.64292" lon="1.72892">
        <ele>372.2</ele>
        <time>2025-03-30T12:21:36Z</time>
      </trkpt>
      <trkpt lat="44.64289" lon="1.72887">
        <ele>371.8</ele>
        <time>2025-03-30T12:21:40Z</time>
      </trkpt>
      <trkpt lat="44.64285" lon="1.72881">
        <ele>371</ele>
        <time>2025-03-30T12:21:44Z</time>
      </trkpt>
      <trkpt lat="44.64282" lon="1.72876">
        <ele>370.5</ele>
        <time>2025-03-30T12:21:48Z</time>
      </trkpt>
      <trkpt lat="44.6428" lon="1.7287">
        <ele>369.7</ele>
        <time>2025-03-30T12:21:51Z</time>
      </trkpt>
      <trkpt lat="44.64278" lon="1.72864">
        <ele>369.8</ele>
        <time>2025-03-30T12:21:56Z</time>
      </trkpt>
      <trkpt lat="44.64274" lon="1.72859">
        <ele>369.2</ele>
        <time>2025-03-30T12:22:00Z</time>
      </trkpt>
      <trkpt lat="44.64271" lon="1.72853">
        <ele>368.9</ele>
        <time>2025-03-30T12:22:04Z</time>
      </trkpt>
      <trkpt lat="44.64267" lon="1.72847">
        <ele>368.6</ele>
        <time>2025-03-30T12:22:08Z</time>
      </trkpt>
      <trkpt lat="44.64262" lon="1.72844">
        <ele>368.4</ele>
        <time>2025-03-30T12:22:13Z</time>
      </trkpt>
      <trkpt lat="44.64259" lon="1.72838">
        <ele>367.2</ele>
        <time>2025-03-30T12:22:17Z</time>
      </trkpt>
      <trkpt lat="44.64256" lon="1.72832">
        <ele>366.8</ele>
        <time>2025-03-30T12:22:21Z</time>
      </trkpt>
      <trkpt lat="44.64253" lon="1.72826">
        <ele>367</ele>
        <time>2025-03-30T12:22:24Z</time>
      </trkpt>
      <trkpt lat="44.64251" lon="1.7282">
        <ele>367.2</ele>
        <time>2025-03-30T12:22:29Z</time>
      </trkpt>
      <trkpt lat="44.64247" lon="1.72816">
        <ele>367.1</ele>
        <time>2025-03-30T12:22:33Z</time>
      </trkpt>
      <trkpt lat="44.64244" lon="1.72812">
        <ele>366.7</ele>
        <time>2025-03-30T12:22:37Z</time>
      </trkpt>
      <trkpt lat="44.64241" lon="1.72806">
        <ele>366.7</ele>
        <time>2025-03-30T12:22:41Z</time>
      </trkpt>
      <trkpt lat="44.64238" lon="1.72801">
        <ele>366.2</ele>
        <time>2025-03-30T12:22:45Z</time>
      </trkpt>
      <trkpt lat="44.64235" lon="1.72794">
        <ele>366.2</ele>
        <time>2025-03-30T12:22:49Z</time>
      </trkpt>
      <trkpt lat="44.64232" lon="1.72789">
        <ele>366.1</ele>
        <time>2025-03-30T12:22:53Z</time>
      </trkpt>
      <trkpt lat="44.64229" lon="1.72783">
        <ele>366.3</ele>
        <time>2025-03-30T12:22:57Z</time>
      </trkpt>
      <trkpt lat="44.64227" lon="1.72777">
        <ele>366.8</ele>
        <time>2025-03-30T12:23:01Z</time>
      </trkpt>
      <trkpt lat="44.64225" lon="1.72771">
        <ele>366.3</ele>
        <time>2025-03-30T12:23:05Z</time>
      </trkpt>
      <trkpt lat="44.64222" lon="1.72765">
        <ele>366.3</ele>
        <time>2025-03-30T12:23:09Z</time>
      </trkpt>
      <trkpt lat="44.6422" lon="1.72759">
        <ele>366.5</ele>
        <time>2025-03-30T12:23:13Z</time>
      </trkpt>
      <trkpt lat="44.64218" lon="1.72753">
        <ele>366.1</ele>
        <time>2025-03-30T12:23:17Z</time>
      </trkpt>
      <trkpt lat="44.64216" lon="1.72748">
        <ele>365.8</ele>
        <time>2025-03-30T12:23:21Z</time>
      </trkpt>
      <trkpt lat="44.64214" lon="1.72741">
        <ele>365.6</ele>
        <time>2025-03-30T12:23:25Z</time>
      </trkpt>
      <trkpt lat="44.64212" lon="1.72735">
        <ele>365.1</ele>
        <time>2025-03-30T12:23:29Z</time>
      </trkpt>
      <trkpt lat="44.6421" lon="1.72728">
        <ele>364.4</ele>
        <time>2025-03-30T12:23:33Z</time>
      </trkpt>
      <trkpt lat="44.64208" lon="1.72721">
        <ele>364.4</ele>
        <time>2025-03-30T12:23:37Z</time>
      </trkpt>
      <trkpt lat="44.64206" lon="1.72715">
        <ele>364.2</ele>
        <time>2025-03-30T12:23:41Z</time>
      </trkpt>
      <trkpt lat="44.64203" lon="1.72711">
        <ele>363.7</ele>
        <time>2025-03-30T12:23:45Z</time>
      </trkpt>
      <trkpt lat="44.64198" lon="1.72708">
        <ele>363.4</ele>
        <time>2025-03-30T12:23:49Z</time>
      </trkpt>
      <trkpt lat="44.64193" lon="1.72709">
        <ele>363.1</ele>
        <time>2025-03-30T12:23:53Z</time>
      </trkpt>
      <trkpt lat="44.64188" lon="1.7271">
        <ele>363</ele>
        <time>2025-03-30T12:23:57Z</time>
      </trkpt>
      <trkpt lat="44.64182" lon="1.7271">
        <ele>362.3</ele>
        <time>2025-03-30T12:24:01Z</time>
      </trkpt>
      <trkpt lat="44.64177" lon="1.7271">
        <ele>362.3</ele>
        <time>2025-03-30T12:24:05Z</time>
      </trkpt>
      <trkpt lat="44.64173" lon="1.72709">
        <ele>362</ele>
        <time>2025-03-30T12:24:09Z</time>
      </trkpt>
      <trkpt lat="44.64168" lon="1.72708">
        <ele>362.1</ele>
        <time>2025-03-30T12:24:13Z</time>
      </trkpt>
      <trkpt lat="44.64163" lon="1.72706">
        <ele>362.5</ele>
        <time>2025-03-30T12:24:17Z</time>
      </trkpt>
      <trkpt lat="44.64158" lon="1.72704">
        <ele>361.8</ele>
        <time>2025-03-30T12:24:21Z</time>
      </trkpt>
      <trkpt lat="44.64153" lon="1.72702">
        <ele>361.8</ele>
        <time>2025-03-30T12:24:25Z</time>
      </trkpt>
      <trkpt lat="44.64149" lon="1.72701">
        <ele>361.6</ele>
        <time>2025-03-30T12:24:29Z</time>
      </trkpt>
      <trkpt lat="44.64144" lon="1.72699">
        <ele>361.1</ele>
        <time>2025-03-30T12:24:33Z</time>
      </trkpt>
      <trkpt lat="44.64139" lon="1.72696">
        <ele>360.7</ele>
        <time>2025-03-30T12:24:37Z</time>
      </trkpt>
      <trkpt lat="44.6413" lon="1.72696">
        <ele>360.2</ele>
        <time>2025-03-30T12:25:16Z</time>
      </trkpt>
      <trkpt lat="44.64126" lon="1.72701">
        <ele>360.2</ele>
        <time>2025-03-30T12:25:20Z</time>
      </trkpt>
      <trkpt lat="44.64122" lon="1.72703">
        <ele>359.7</ele>
        <time>2025-03-30T12:25:24Z</time>
      </trkpt>
      <trkpt lat="44.64116" lon="1.72706">
        <ele>359.7</ele>
        <time>2025-03-30T12:25:29Z</time>
      </trkpt>
      <trkpt lat="44.6411" lon="1.72708">
        <ele>360.2</ele>
        <time>2025-03-30T12:25:34Z</time>
      </trkpt>
      <trkpt lat="44.64106" lon="1.72711">
        <ele>360.3</ele>
        <time>2025-03-30T12:25:38Z</time>
      </trkpt>
      <trkpt lat="44.64102" lon="1.72714">
        <ele>361.1</ele>
        <time>2025-03-30T12:25:42Z</time>
      </trkpt>
      <trkpt lat="44.64097" lon="1.72716">
        <ele>361.1</ele>
        <time>2025-03-30T12:25:46Z</time>
      </trkpt>
      <trkpt lat="44.64092" lon="1.72718">
        <ele>360.5</ele>
        <time>2025-03-30T12:25:50Z</time>
      </trkpt>
      <trkpt lat="44.64087" lon="1.72718">
        <ele>359.6</ele>
        <time>2025-03-30T12:25:54Z</time>
      </trkpt>
      <trkpt lat="44.64082" lon="1.72719">
        <ele>360.3</ele>
        <time>2025-03-30T12:25:58Z</time>
      </trkpt>
      <trkpt lat="44.64077" lon="1.7272">
        <ele>360.8</ele>
        <time>2025-03-30T12:26:02Z</time>
      </trkpt>
      <trkpt lat="44.64072" lon="1.7272">
        <ele>361.1</ele>
        <time>2025-03-30T12:26:06Z</time>
      </trkpt>
      <trkpt lat="44.64067" lon="1.72722">
        <ele>361.2</ele>
        <time>2025-03-30T12:26:10Z</time>
      </trkpt>
      <trkpt lat="44.64062" lon="1.72724">
        <ele>361.5</ele>
        <time>2025-03-30T12:26:14Z</time>
      </trkpt>
      <trkpt lat="44.64057" lon="1.72725">
        <ele>362.1</ele>
        <time>2025-03-30T12:26:18Z</time>
      </trkpt>
      <trkpt lat="44.64052" lon="1.72724">
        <ele>361.9</ele>
        <time>2025-03-30T12:26:23Z</time>
      </trkpt>
      <trkpt lat="44.64047" lon="1.72724">
        <ele>360.3</ele>
        <time>2025-03-30T12:26:27Z</time>
      </trkpt>
      <trkpt lat="44.64041" lon="1.72724">
        <ele>360.4</ele>
        <time>2025-03-30T12:26:31Z</time>
      </trkpt>
      <trkpt lat="44.64037" lon="1.72722">
        <ele>359.8</ele>
        <time>2025-03-30T12:26:34Z</time>
      </trkpt>
      <trkpt lat="44.64032" lon="1.72721">
        <ele>358.9</ele>
        <time>2025-03-30T12:26:38Z</time>
      </trkpt>
      <trkpt lat="44.64027" lon="1.72723">
        <ele>358.8</ele>
        <time>2025-03-30T12:26:42Z</time>
      </trkpt>
      <trkpt lat="44.64022" lon="1.72725">
        <ele>358.6</ele>
        <time>2025-03-30T12:26:46Z</time>
      </trkpt>
      <trkpt lat="44.64017" lon="1.72727">
        <ele>359.2</ele>
        <time>2025-03-30T12:26:50Z</time>
      </trkpt>
      <trkpt lat="44.64012" lon="1.72729">
        <ele>359.7</ele>
        <time>2025-03-30T12:26:54Z</time>
      </trkpt>
      <trkpt lat="44.64007" lon="1.72731">
        <ele>359.9</ele>
        <time>2025-03-30T12:26:58Z</time>
      </trkpt>
      <trkpt lat="44.64002" lon="1.72735">
        <ele>360</ele>
        <time>2025-03-30T12:27:02Z</time>
      </trkpt>
      <trkpt lat="44.63998" lon="1.72739">
        <ele>359.2</ele>
        <time>2025-03-30T12:27:06Z</time>
      </trkpt>
      <trkpt lat="44.63993" lon="1.72741">
        <ele>359.3</ele>
        <time>2025-03-30T12:27:10Z</time>
      </trkpt>
      <trkpt lat="44.63988" lon="1.72742">
        <ele>358.6</ele>
        <time>2025-03-30T12:27:14Z</time>
      </trkpt>
      <trkpt lat="44.63984" lon="1.72745">
        <ele>358.2</ele>
        <time>2025-03-30T12:27:18Z</time>
      </trkpt>
      <trkpt lat="44.6398" lon="1.72747">
        <ele>357.3</ele>
        <time>2025-03-30T12:27:22Z</time>
      </trkpt>
      <trkpt lat="44.63975" lon="1.72748">
        <ele>358.1</ele>
        <time>2025-03-30T12:27:26Z</time>
      </trkpt>
      <trkpt lat="44.6397" lon="1.72751">
        <ele>358.9</ele>
        <time>2025-03-30T12:27:30Z</time>
      </trkpt>
      <trkpt lat="44.63965" lon="1.72754">
        <ele>359.3</ele>
        <time>2025-03-30T12:27:34Z</time>
      </trkpt>
      <trkpt lat="44.6396" lon="1.72756">
        <ele>359.2</ele>
        <time>2025-03-30T12:27:38Z</time>
      </trkpt>
      <trkpt lat="44.63956" lon="1.72758">
        <ele>359.4</ele>
        <time>2025-03-30T12:27:42Z</time>
      </trkpt>
      <trkpt lat="44.63951" lon="1.7276">
        <ele>359.9</ele>
        <time>2025-03-30T12:27:46Z</time>
      </trkpt>
      <trkpt lat="44.63946" lon="1.72763">
        <ele>360.5</ele>
        <time>2025-03-30T12:27:50Z</time>
      </trkpt>
      <trkpt lat="44.63942" lon="1.72765">
        <ele>360.2</ele>
        <time>2025-03-30T12:27:54Z</time>
      </trkpt>
      <trkpt lat="44.63938" lon="1.72768">
        <ele>358</ele>
        <time>2025-03-30T12:27:57Z</time>
      </trkpt>
      <trkpt lat="44.63933" lon="1.72772">
        <ele>357.6</ele>
        <time>2025-03-30T12:28:01Z</time>
      </trkpt>
      <trkpt lat="44.63928" lon="1.72776">
        <ele>358</ele>
        <time>2025-03-30T12:28:05Z</time>
      </trkpt>
      <trkpt lat="44.63924" lon="1.72778">
        <ele>358.2</ele>
        <time>2025-03-30T12:28:09Z</time>
      </trkpt>
      <trkpt lat="44.63919" lon="1.72781">
        <ele>358.1</ele>
        <time>2025-03-30T12:28:13Z</time>
      </trkpt>
      <trkpt lat="44.63915" lon="1.72784">
        <ele>358.6</ele>
        <time>2025-03-30T12:28:17Z</time>
      </trkpt>
      <trkpt lat="44.63912" lon="1.72789">
        <ele>357.8</ele>
        <time>2025-03-30T12:28:22Z</time>
      </trkpt>
      <trkpt lat="44.63908" lon="1.72794">
        <ele>356.8</ele>
        <time>2025-03-30T12:28:25Z</time>
      </trkpt>
      <trkpt lat="44.63903" lon="1.72797">
        <ele>356.5</ele>
        <time>2025-03-30T12:28:29Z</time>
      </trkpt>
      <trkpt lat="44.63898" lon="1.72801">
        <ele>354.6</ele>
        <time>2025-03-30T12:28:33Z</time>
      </trkpt>
      <trkpt lat="44.63893" lon="1.72805">
        <ele>354.2</ele>
        <time>2025-03-30T12:28:37Z</time>
      </trkpt>
      <trkpt lat="44.63889" lon="1.72807">
        <ele>354.1</ele>
        <time>2025-03-30T12:28:41Z</time>
      </trkpt>
      <trkpt lat="44.63885" lon="1.72811">
        <ele>354.3</ele>
        <time>2025-03-30T12:28:45Z</time>
      </trkpt>
      <trkpt lat="44.6388" lon="1.72814">
        <ele>354.4</ele>
        <time>2025-03-30T12:28:49Z</time>
      </trkpt>
      <trkpt lat="44.63876" lon="1.72817">
        <ele>354.2</ele>
        <time>2025-03-30T12:28:53Z</time>
      </trkpt>
      <trkpt lat="44.63871" lon="1.72819">
        <ele>354.4</ele>
        <time>2025-03-30T12:28:57Z</time>
      </trkpt>
      <trkpt lat="44.63867" lon="1.72823">
        <ele>354.2</ele>
        <time>2025-03-30T12:29:01Z</time>
      </trkpt>
      <trkpt lat="44.63863" lon="1.72827">
        <ele>354.2</ele>
        <time>2025-03-30T12:29:05Z</time>
      </trkpt>
      <trkpt lat="44.63859" lon="1.72832">
        <ele>354.3</ele>
        <time>2025-03-30T12:29:09Z</time>
      </trkpt>
      <trkpt lat="44.63855" lon="1.72837">
        <ele>354.9</ele>
        <time>2025-03-30T12:29:14Z</time>
      </trkpt>
      <trkpt lat="44.63851" lon="1.72842">
        <ele>355.5</ele>
        <time>2025-03-30T12:29:19Z</time>
      </trkpt>
      <trkpt lat="44.63848" lon="1.72848">
        <ele>356.1</ele>
        <time>2025-03-30T12:29:24Z</time>
      </trkpt>
      <trkpt lat="44.63843" lon="1.72853">
        <ele>356.5</ele>
        <time>2025-03-30T12:29:28Z</time>
      </trkpt>
      <trkpt lat="44.63839" lon="1.72858">
        <ele>356.2</ele>
        <time>2025-03-30T12:29:32Z</time>
      </trkpt>
      <trkpt lat="44.63835" lon="1.72862">
        <ele>356</ele>
        <time>2025-03-30T12:29:36Z</time>
      </trkpt>
      <trkpt lat="44.63831" lon="1.72866">
        <ele>355.5</ele>
        <time>2025-03-30T12:29:40Z</time>
      </trkpt>
      <trkpt lat="44.63826" lon="1.72869">
        <ele>355.1</ele>
        <time>2025-03-30T12:29:44Z</time>
      </trkpt>
      <trkpt lat="44.63822" lon="1.72874">
        <ele>354.2</ele>
        <time>2025-03-30T12:29:48Z</time>
      </trkpt>
      <trkpt lat="44.63818" lon="1.72878">
        <ele>353</ele>
        <time>2025-03-30T12:29:52Z</time>
      </trkpt>
      <trkpt lat="44.63814" lon="1.72882">
        <ele>352.3</ele>
        <time>2025-03-30T12:29:56Z</time>
      </trkpt>
      <trkpt lat="44.63809" lon="1.72885">
        <ele>351.2</ele>
        <time>2025-03-30T12:30:00Z</time>
      </trkpt>
      <trkpt lat="44.63805" lon="1.72888">
        <ele>349.8</ele>
        <time>2025-03-30T12:30:04Z</time>
      </trkpt>
      <trkpt lat="44.638" lon="1.72891">
        <ele>349.4</ele>
        <time>2025-03-30T12:30:08Z</time>
      </trkpt>
      <trkpt lat="44.63796" lon="1.72895">
        <ele>348.9</ele>
        <time>2025-03-30T12:30:12Z</time>
      </trkpt>
      <trkpt lat="44.63791" lon="1.72897">
        <ele>348.6</ele>
        <time>2025-03-30T12:30:16Z</time>
      </trkpt>
      <trkpt lat="44.63786" lon="1.729">
        <ele>348.5</ele>
        <time>2025-03-30T12:30:20Z</time>
      </trkpt>
      <trkpt lat="44.63782" lon="1.72902">
        <ele>349.2</ele>
        <time>2025-03-30T12:30:24Z</time>
      </trkpt>
      <trkpt lat="44.63777" lon="1.72906">
        <ele>349.3</ele>
        <time>2025-03-30T12:30:28Z</time>
      </trkpt>
      <trkpt lat="44.63773" lon="1.72908">
        <ele>349.4</ele>
        <time>2025-03-30T12:30:32Z</time>
      </trkpt>
      <trkpt lat="44.63768" lon="1.72912">
        <ele>349.4</ele>
        <time>2025-03-30T12:30:36Z</time>
      </trkpt>
      <trkpt lat="44.63764" lon="1.72915">
        <ele>349.4</ele>
        <time>2025-03-30T12:30:40Z</time>
      </trkpt>
      <trkpt lat="44.63759" lon="1.72918">
        <ele>349.6</ele>
        <time>2025-03-30T12:30:44Z</time>
      </trkpt>
      <trkpt lat="44.63755" lon="1.72921">
        <ele>349.7</ele>
        <time>2025-03-30T12:30:48Z</time>
      </trkpt>
      <trkpt lat="44.6375" lon="1.72923">
        <ele>349.6</ele>
        <time>2025-03-30T12:30:52Z</time>
      </trkpt>
      <trkpt lat="44.63745" lon="1.72926">
        <ele>349.8</ele>
        <time>2025-03-30T12:30:56Z</time>
      </trkpt>
      <trkpt lat="44.63741" lon="1.72929">
        <ele>350.3</ele>
        <time>2025-03-30T12:31:00Z</time>
      </trkpt>
      <trkpt lat="44.63737" lon="1.72932">
        <ele>349.3</ele>
        <time>2025-03-30T12:31:04Z</time>
      </trkpt>
      <trkpt lat="44.63733" lon="1.72935">
        <ele>349.1</ele>
        <time>2025-03-30T12:31:08Z</time>
      </trkpt>
      <trkpt lat="44.63728" lon="1.72937">
        <ele>349.8</ele>
        <time>2025-03-30T12:31:12Z</time>
      </trkpt>
      <trkpt lat="44.63724" lon="1.7294">
        <ele>350.1</ele>
        <time>2025-03-30T12:31:16Z</time>
      </trkpt>
      <trkpt lat="44.63719" lon="1.72944">
        <ele>350.2</ele>
        <time>2025-03-30T12:31:20Z</time>
      </trkpt>
      <trkpt lat="44.63715" lon="1.72947">
        <ele>350.2</ele>
        <time>2025-03-30T12:31:24Z</time>
      </trkpt>
      <trkpt lat="44.63711" lon="1.72951">
        <ele>350.4</ele>
        <time>2025-03-30T12:31:28Z</time>
      </trkpt>
      <trkpt lat="44.63707" lon="1.72955">
        <ele>349.8</ele>
        <time>2025-03-30T12:31:32Z</time>
      </trkpt>
      <trkpt lat="44.63703" lon="1.72959">
        <ele>349.5</ele>
        <time>2025-03-30T12:31:36Z</time>
      </trkpt>
      <trkpt lat="44.63698" lon="1.72962">
        <ele>349.2</ele>
        <time>2025-03-30T12:31:40Z</time>
      </trkpt>
      <trkpt lat="44.63694" lon="1.72965">
        <ele>349.2</ele>
        <time>2025-03-30T12:31:44Z</time>
      </trkpt>
      <trkpt lat="44.63689" lon="1.72969">
        <ele>349.6</ele>
        <time>2025-03-30T12:31:48Z</time>
      </trkpt>
      <trkpt lat="44.63685" lon="1.72972">
        <ele>349.8</ele>
        <time>2025-03-30T12:31:52Z</time>
      </trkpt>
      <trkpt lat="44.63681" lon="1.72977">
        <ele>348.8</ele>
        <time>2025-03-30T12:31:56Z</time>
      </trkpt>
      <trkpt lat="44.63676" lon="1.7298">
        <ele>349.1</ele>
        <time>2025-03-30T12:32:00Z</time>
      </trkpt>
      <trkpt lat="44.63672" lon="1.72983">
        <ele>349.1</ele>
        <time>2025-03-30T12:32:04Z</time>
      </trkpt>
      <trkpt lat="44.63668" lon="1.72987">
        <ele>348.3</ele>
        <time>2025-03-30T12:32:08Z</time>
      </trkpt>
      <trkpt lat="44.63663" lon="1.72989">
        <ele>348.2</ele>
        <time>2025-03-30T12:32:12Z</time>
      </trkpt>
      <trkpt lat="44.63659" lon="1.72992">
        <ele>348.6</ele>
        <time>2025-03-30T12:32:16Z</time>
      </trkpt>
      <trkpt lat="44.63654" lon="1.72994">
        <ele>348.4</ele>
        <time>2025-03-30T12:32:20Z</time>
      </trkpt>
      <trkpt lat="44.63649" lon="1.72997">
        <ele>348.3</ele>
        <time>2025-03-30T12:32:24Z</time>
      </trkpt>
      <trkpt lat="44.63645" lon="1.73">
        <ele>348</ele>
        <time>2025-03-30T12:32:28Z</time>
      </trkpt>
      <trkpt lat="44.63641" lon="1.73002">
        <ele>348.6</ele>
        <time>2025-03-30T12:32:32Z</time>
      </trkpt>
      <trkpt lat="44.63636" lon="1.73006">
        <ele>348.7</ele>
        <time>2025-03-30T12:32:36Z</time>
      </trkpt>
      <trkpt lat="44.63632" lon="1.73009">
        <ele>348.4</ele>
        <time>2025-03-30T12:32:40Z</time>
      </trkpt>
      <trkpt lat="44.63627" lon="1.73011">
        <ele>348.3</ele>
        <time>2025-03-30T12:32:44Z</time>
      </trkpt>
      <trkpt lat="44.63622" lon="1.73014">
        <ele>348.8</ele>
        <time>2025-03-30T12:32:49Z</time>
      </trkpt>
      <trkpt lat="44.63617" lon="1.73019">
        <ele>347.4</ele>
        <time>2025-03-30T12:32:53Z</time>
      </trkpt>
      <trkpt lat="44.63612" lon="1.73021">
        <ele>347.5</ele>
        <time>2025-03-30T12:32:57Z</time>
      </trkpt>
      <trkpt lat="44.63608" lon="1.73023">
        <ele>347.4</ele>
        <time>2025-03-30T12:33:01Z</time>
      </trkpt>
      <trkpt lat="44.63603" lon="1.73024">
        <ele>347.8</ele>
        <time>2025-03-30T12:33:05Z</time>
      </trkpt>
      <trkpt lat="44.63599" lon="1.73026">
        <ele>347.5</ele>
        <time>2025-03-30T12:33:09Z</time>
      </trkpt>
      <trkpt lat="44.63594" lon="1.73029">
        <ele>346.8</ele>
        <time>2025-03-30T12:33:13Z</time>
      </trkpt>
      <trkpt lat="44.63588" lon="1.7303">
        <ele>346</ele>
        <time>2025-03-30T12:33:18Z</time>
      </trkpt>
      <trkpt lat="44.63584" lon="1.73031">
        <ele>346.5</ele>
        <time>2025-03-30T12:33:22Z</time>
      </trkpt>
      <trkpt lat="44.63579" lon="1.73033">
        <ele>346.9</ele>
        <time>2025-03-30T12:33:26Z</time>
      </trkpt>
      <trkpt lat="44.63574" lon="1.73035">
        <ele>347.8</ele>
        <time>2025-03-30T12:33:31Z</time>
      </trkpt>
      <trkpt lat="44.63569" lon="1.73037">
        <ele>347.8</ele>
        <time>2025-03-30T12:33:35Z</time>
      </trkpt>
      <trkpt lat="44.63564" lon="1.73038">
        <ele>347.8</ele>
        <time>2025-03-30T12:33:39Z</time>
      </trkpt>
      <trkpt lat="44.63559" lon="1.73039">
        <ele>347.9</ele>
        <time>2025-03-30T12:33:43Z</time>
      </trkpt>
      <trkpt lat="44.63555" lon="1.73042">
        <ele>347.7</ele>
        <time>2025-03-30T12:33:47Z</time>
      </trkpt>
      <trkpt lat="44.6355" lon="1.73044">
        <ele>347.8</ele>
        <time>2025-03-30T12:33:51Z</time>
      </trkpt>
      <trkpt lat="44.63545" lon="1.73046">
        <ele>348.2</ele>
        <time>2025-03-30T12:33:55Z</time>
      </trkpt>
      <trkpt lat="44.63541" lon="1.73049">
        <ele>348.4</ele>
        <time>2025-03-30T12:33:59Z</time>
      </trkpt>
      <trkpt lat="44.63536" lon="1.73051">
        <ele>347.5</ele>
        <time>2025-03-30T12:34:03Z</time>
      </trkpt>
      <trkpt lat="44.63531" lon="1.73052">
        <ele>346.9</ele>
        <time>2025-03-30T12:34:07Z</time>
      </trkpt>
      <trkpt lat="44.63527" lon="1.73054">
        <ele>346</ele>
        <time>2025-03-30T12:34:11Z</time>
      </trkpt>
      <trkpt lat="44.63522" lon="1.73055">
        <ele>346.7</ele>
        <time>2025-03-30T12:34:15Z</time>
      </trkpt>
      <trkpt lat="44.63517" lon="1.73056">
        <ele>346.9</ele>
        <time>2025-03-30T12:34:19Z</time>
      </trkpt>
      <trkpt lat="44.63512" lon="1.73057">
        <ele>347.6</ele>
        <time>2025-03-30T12:34:23Z</time>
      </trkpt>
      <trkpt lat="44.63507" lon="1.73058">
        <ele>348.3</ele>
        <time>2025-03-30T12:34:27Z</time>
      </trkpt>
      <trkpt lat="44.63502" lon="1.73059">
        <ele>348.7</ele>
        <time>2025-03-30T12:34:31Z</time>
      </trkpt>
      <trkpt lat="44.63497" lon="1.7306">
        <ele>348.8</ele>
        <time>2025-03-30T12:34:35Z</time>
      </trkpt>
      <trkpt lat="44.63492" lon="1.73062">
        <ele>349</ele>
        <time>2025-03-30T12:34:39Z</time>
      </trkpt>
      <trkpt lat="44.63487" lon="1.73063">
        <ele>349.1</ele>
        <time>2025-03-30T12:34:43Z</time>
      </trkpt>
      <trkpt lat="44.63482" lon="1.73064">
        <ele>349.2</ele>
        <time>2025-03-30T12:34:47Z</time>
      </trkpt>
      <trkpt lat="44.63477" lon="1.73065">
        <ele>348.7</ele>
        <time>2025-03-30T12:34:51Z</time>
      </trkpt>
      <trkpt lat="44.63473" lon="1.73067">
        <ele>348.6</ele>
        <time>2025-03-30T12:34:55Z</time>
      </trkpt>
      <trkpt lat="44.63468" lon="1.73068">
        <ele>348.4</ele>
        <time>2025-03-30T12:34:59Z</time>
      </trkpt>
      <trkpt lat="44.63463" lon="1.73071">
        <ele>348.4</ele>
        <time>2025-03-30T12:35:03Z</time>
      </trkpt>
      <trkpt lat="44.63458" lon="1.73073">
        <ele>348.1</ele>
        <time>2025-03-30T12:35:07Z</time>
      </trkpt>
      <trkpt lat="44.63453" lon="1.73076">
        <ele>347.7</ele>
        <time>2025-03-30T12:35:11Z</time>
      </trkpt>
      <trkpt lat="44.63448" lon="1.73078">
        <ele>347.6</ele>
        <time>2025-03-30T12:35:15Z</time>
      </trkpt>
      <trkpt lat="44.63443" lon="1.7308">
        <ele>347.7</ele>
        <time>2025-03-30T12:35:19Z</time>
      </trkpt>
      <trkpt lat="44.63439" lon="1.73082">
        <ele>347.8</ele>
        <time>2025-03-30T12:35:23Z</time>
      </trkpt>
      <trkpt lat="44.63434" lon="1.73085">
        <ele>347.7</ele>
        <time>2025-03-30T12:35:27Z</time>
      </trkpt>
      <trkpt lat="44.63429" lon="1.73087">
        <ele>347.4</ele>
        <time>2025-03-30T12:35:31Z</time>
      </trkpt>
      <trkpt lat="44.63425" lon="1.7309">
        <ele>346.5</ele>
        <time>2025-03-30T12:35:35Z</time>
      </trkpt>
      <trkpt lat="44.6342" lon="1.73093">
        <ele>345.7</ele>
        <time>2025-03-30T12:35:39Z</time>
      </trkpt>
      <trkpt lat="44.63415" lon="1.73095">
        <ele>345.1</ele>
        <time>2025-03-30T12:35:43Z</time>
      </trkpt>
      <trkpt lat="44.6341" lon="1.73093">
        <ele>345.8</ele>
        <time>2025-03-30T12:35:48Z</time>
      </trkpt>
      <trkpt lat="44.63405" lon="1.7309">
        <ele>346.3</ele>
        <time>2025-03-30T12:35:52Z</time>
      </trkpt>
      <trkpt lat="44.63402" lon="1.73085">
        <ele>347.2</ele>
        <time>2025-03-30T12:35:56Z</time>
      </trkpt>
      <trkpt lat="44.63399" lon="1.73079">
        <ele>345.3</ele>
        <time>2025-03-30T12:36:01Z</time>
      </trkpt>
      <trkpt lat="44.63397" lon="1.73071">
        <ele>345.1</ele>
        <time>2025-03-30T12:36:07Z</time>
      </trkpt>
      <trkpt lat="44.63397" lon="1.73064">
        <ele>345.9</ele>
        <time>2025-03-30T12:36:10Z</time>
      </trkpt>
      <trkpt lat="44.63397" lon="1.73057">
        <ele>346.3</ele>
        <time>2025-03-30T12:36:14Z</time>
      </trkpt>
      <trkpt lat="44.63396" lon="1.7305">
        <ele>346.6</ele>
        <time>2025-03-30T12:36:18Z</time>
      </trkpt>
      <trkpt lat="44.63396" lon="1.73042">
        <ele>346.1</ele>
        <time>2025-03-30T12:36:23Z</time>
      </trkpt>
      <trkpt lat="44.63393" lon="1.73037">
        <ele>345.5</ele>
        <time>2025-03-30T12:36:27Z</time>
      </trkpt>
      <trkpt lat="44.63389" lon="1.73032">
        <ele>346.5</ele>
        <time>2025-03-30T12:36:31Z</time>
      </trkpt>
      <trkpt lat="44.63384" lon="1.73031">
        <ele>346.7</ele>
        <time>2025-03-30T12:36:35Z</time>
      </trkpt>
      <trkpt lat="44.63378" lon="1.7303">
        <ele>346.3</ele>
        <time>2025-03-30T12:36:39Z</time>
      </trkpt>
      <trkpt lat="44.63373" lon="1.73029">
        <ele>346.8</ele>
        <time>2025-03-30T12:36:43Z</time>
      </trkpt>
      <trkpt lat="44.63368" lon="1.7303">
        <ele>346.5</ele>
        <time>2025-03-30T12:36:47Z</time>
      </trkpt>
      <trkpt lat="44.63363" lon="1.73029">
        <ele>345.3</ele>
        <time>2025-03-30T12:36:51Z</time>
      </trkpt>
      <trkpt lat="44.63359" lon="1.73028">
        <ele>343.8</ele>
        <time>2025-03-30T12:36:55Z</time>
      </trkpt>
      <trkpt lat="44.63354" lon="1.73027">
        <ele>343</ele>
        <time>2025-03-30T12:36:59Z</time>
      </trkpt>
      <trkpt lat="44.63349" lon="1.73027">
        <ele>342.9</ele>
        <time>2025-03-30T12:37:03Z</time>
      </trkpt>
      <trkpt lat="44.63344" lon="1.73025">
        <ele>344.2</ele>
        <time>2025-03-30T12:37:07Z</time>
      </trkpt>
      <trkpt lat="44.63339" lon="1.73024">
        <ele>343.5</ele>
        <time>2025-03-30T12:37:11Z</time>
      </trkpt>
      <trkpt lat="44.63334" lon="1.73023">
        <ele>344.4</ele>
        <time>2025-03-30T12:37:15Z</time>
      </trkpt>
      <trkpt lat="44.6333" lon="1.73021">
        <ele>344.9</ele>
        <time>2025-03-30T12:37:19Z</time>
      </trkpt>
      <trkpt lat="44.63325" lon="1.73021">
        <ele>345.7</ele>
        <time>2025-03-30T12:37:23Z</time>
      </trkpt>
      <trkpt lat="44.6332" lon="1.73019">
        <ele>344.7</ele>
        <time>2025-03-30T12:37:27Z</time>
      </trkpt>
      <trkpt lat="44.63315" lon="1.73019">
        <ele>343.4</ele>
        <time>2025-03-30T12:37:31Z</time>
      </trkpt>
      <trkpt lat="44.6331" lon="1.73018">
        <ele>342.9</ele>
        <time>2025-03-30T12:37:35Z</time>
      </trkpt>
      <trkpt lat="44.63305" lon="1.73018">
        <ele>343.2</ele>
        <time>2025-03-30T12:37:39Z</time>
      </trkpt>
      <trkpt lat="44.633" lon="1.73018">
        <ele>343.7</ele>
        <time>2025-03-30T12:37:43Z</time>
      </trkpt>
      <trkpt lat="44.63295" lon="1.73017">
        <ele>343.5</ele>
        <time>2025-03-30T12:37:47Z</time>
      </trkpt>
      <trkpt lat="44.6329" lon="1.73018">
        <ele>344</ele>
        <time>2025-03-30T12:37:51Z</time>
      </trkpt>
      <trkpt lat="44.63286" lon="1.73019">
        <ele>343.7</ele>
        <time>2025-03-30T12:37:55Z</time>
      </trkpt>
      <trkpt lat="44.63281" lon="1.73019">
        <ele>344.4</ele>
        <time>2025-03-30T12:37:59Z</time>
      </trkpt>
      <trkpt lat="44.63276" lon="1.73019">
        <ele>344.4</ele>
        <time>2025-03-30T12:38:03Z</time>
      </trkpt>
      <trkpt lat="44.63271" lon="1.73019">
        <ele>344.7</ele>
        <time>2025-03-30T12:38:07Z</time>
      </trkpt>
      <trkpt lat="44.63266" lon="1.7302">
        <ele>345.2</ele>
        <time>2025-03-30T12:38:11Z</time>
      </trkpt>
      <trkpt lat="44.63261" lon="1.73021">
        <ele>346.2</ele>
        <time>2025-03-30T12:38:15Z</time>
      </trkpt>
      <trkpt lat="44.63256" lon="1.73021">
        <ele>346.4</ele>
        <time>2025-03-30T12:38:19Z</time>
      </trkpt>
      <trkpt lat="44.63251" lon="1.73022">
        <ele>348.1</ele>
        <time>2025-03-30T12:38:23Z</time>
      </trkpt>
      <trkpt lat="44.63247" lon="1.73022">
        <ele>348.7</ele>
        <time>2025-03-30T12:38:27Z</time>
      </trkpt>
      <trkpt lat="44.63241" lon="1.73023">
        <ele>348.5</ele>
        <time>2025-03-30T12:38:31Z</time>
      </trkpt>
      <trkpt lat="44.63236" lon="1.73024">
        <ele>348.8</ele>
        <time>2025-03-30T12:38:35Z</time>
      </trkpt>
      <trkpt lat="44.63231" lon="1.73026">
        <ele>348.9</ele>
        <time>2025-03-30T12:38:39Z</time>
      </trkpt>
      <trkpt lat="44.63227" lon="1.73025">
        <ele>348.8</ele>
        <time>2025-03-30T12:38:43Z</time>
      </trkpt>
      <trkpt lat="44.63222" lon="1.73026">
        <ele>348.5</ele>
        <time>2025-03-30T12:38:47Z</time>
      </trkpt>
      <trkpt lat="44.63216" lon="1.73027">
        <ele>348.4</ele>
        <time>2025-03-30T12:38:52Z</time>
      </trkpt>
      <trkpt lat="44.63211" lon="1.73028">
        <ele>347.4</ele>
        <time>2025-03-30T12:38:56Z</time>
      </trkpt>
      <trkpt lat="44.63207" lon="1.73027">
        <ele>348.1</ele>
        <time>2025-03-30T12:39:00Z</time>
      </trkpt>
      <trkpt lat="44.63202" lon="1.73027">
        <ele>349.3</ele>
        <time>2025-03-30T12:39:04Z</time>
      </trkpt>
      <trkpt lat="44.63197" lon="1.73026">
        <ele>349.4</ele>
        <time>2025-03-30T12:39:08Z</time>
      </trkpt>
      <trkpt lat="44.63192" lon="1.73026">
        <ele>350.2</ele>
        <time>2025-03-30T12:39:12Z</time>
      </trkpt>
      <trkpt lat="44.63188" lon="1.73026">
        <ele>350.3</ele>
        <time>2025-03-30T12:39:16Z</time>
      </trkpt>
      <trkpt lat="44.63183" lon="1.73027">
        <ele>349.2</ele>
        <time>2025-03-30T12:39:20Z</time>
      </trkpt>
      <trkpt lat="44.63177" lon="1.73028">
        <ele>348.9</ele>
        <time>2025-03-30T12:39:24Z</time>
      </trkpt>
      <trkpt lat="44.63173" lon="1.73029">
        <ele>348.6</ele>
        <time>2025-03-30T12:39:28Z</time>
      </trkpt>
      <trkpt lat="44.63168" lon="1.73029">
        <ele>348.9</ele>
        <time>2025-03-30T12:39:32Z</time>
      </trkpt>
      <trkpt lat="44.63163" lon="1.7303">
        <ele>349.3</ele>
        <time>2025-03-30T12:39:36Z</time>
      </trkpt>
      <trkpt lat="44.63158" lon="1.73031">
        <ele>349.7</ele>
        <time>2025-03-30T12:39:40Z</time>
      </trkpt>
      <trkpt lat="44.63154" lon="1.73032">
        <ele>349.5</ele>
        <time>2025-03-30T12:39:44Z</time>
      </trkpt>
      <trkpt lat="44.63149" lon="1.73033">
        <ele>349.6</ele>
        <time>2025-03-30T12:39:48Z</time>
      </trkpt>
      <trkpt lat="44.63144" lon="1.73035">
        <ele>349.1</ele>
        <time>2025-03-30T12:39:52Z</time>
      </trkpt>
      <trkpt lat="44.63139" lon="1.73036">
        <ele>348.9</ele>
        <time>2025-03-30T12:39:56Z</time>
      </trkpt>
      <trkpt lat="44.63134" lon="1.73037">
        <ele>348.9</ele>
        <time>2025-03-30T12:40:00Z</time>
      </trkpt>
      <trkpt lat="44.6313" lon="1.73037">
        <ele>349.4</ele>
        <time>2025-03-30T12:40:04Z</time>
      </trkpt>
      <trkpt lat="44.63125" lon="1.73037">
        <ele>350.5</ele>
        <time>2025-03-30T12:40:08Z</time>
      </trkpt>
      <trkpt lat="44.63119" lon="1.73038">
        <ele>349.8</ele>
        <time>2025-03-30T12:40:12Z</time>
      </trkpt>
      <trkpt lat="44.63114" lon="1.73039">
        <ele>349.3</ele>
        <time>2025-03-30T12:40:16Z</time>
      </trkpt>
      <trkpt lat="44.6311" lon="1.7304">
        <ele>349</ele>
        <time>2025-03-30T12:40:20Z</time>
      </trkpt>
      <trkpt lat="44.63105" lon="1.7304">
        <ele>349</ele>
        <time>2025-03-30T12:40:24Z</time>
      </trkpt>
      <trkpt lat="44.631" lon="1.73041">
        <ele>347.8</ele>
        <time>2025-03-30T12:40:28Z</time>
      </trkpt>
      <trkpt lat="44.63095" lon="1.73042">
        <ele>347.5</ele>
        <time>2025-03-30T12:40:32Z</time>
      </trkpt>
      <trkpt lat="44.6309" lon="1.73043">
        <ele>348.9</ele>
        <time>2025-03-30T12:40:36Z</time>
      </trkpt>
      <trkpt lat="44.63085" lon="1.73044">
        <ele>350.1</ele>
        <time>2025-03-30T12:40:40Z</time>
      </trkpt>
      <trkpt lat="44.6308" lon="1.73045">
        <ele>349</ele>
        <time>2025-03-30T12:40:44Z</time>
      </trkpt>
      <trkpt lat="44.63074" lon="1.73046">
        <ele>349</ele>
        <time>2025-03-30T12:40:49Z</time>
      </trkpt>
      <trkpt lat="44.6307" lon="1.73046">
        <ele>349.4</ele>
        <time>2025-03-30T12:40:54Z</time>
      </trkpt>
      <trkpt lat="44.63064" lon="1.73046">
        <ele>349.4</ele>
        <time>2025-03-30T12:40:58Z</time>
      </trkpt>
      <trkpt lat="44.63059" lon="1.73047">
        <ele>349.4</ele>
        <time>2025-03-30T12:41:03Z</time>
      </trkpt>
      <trkpt lat="44.63054" lon="1.73047">
        <ele>349.6</ele>
        <time>2025-03-30T12:42:03Z</time>
      </trkpt>
      <trkpt lat="44.63049" lon="1.73047">
        <ele>351.8</ele>
        <time>2025-03-30T12:42:08Z</time>
      </trkpt>
      <trkpt lat="44.63044" lon="1.73047">
        <ele>351.8</ele>
        <time>2025-03-30T12:42:13Z</time>
      </trkpt>
      <trkpt lat="44.63038" lon="1.73047">
        <ele>352.1</ele>
        <time>2025-03-30T12:42:18Z</time>
      </trkpt>
      <trkpt lat="44.63033" lon="1.73048">
        <ele>352.4</ele>
        <time>2025-03-30T12:42:23Z</time>
      </trkpt>
      <trkpt lat="44.63028" lon="1.73049">
        <ele>352</ele>
        <time>2025-03-30T12:42:27Z</time>
      </trkpt>
      <trkpt lat="44.63023" lon="1.73049">
        <ele>352.1</ele>
        <time>2025-03-30T12:42:31Z</time>
      </trkpt>
      <trkpt lat="44.63018" lon="1.73049">
        <ele>351.5</ele>
        <time>2025-03-30T12:42:35Z</time>
      </trkpt>
      <trkpt lat="44.63013" lon="1.7305">
        <ele>351.1</ele>
        <time>2025-03-30T12:42:39Z</time>
      </trkpt>
      <trkpt lat="44.63008" lon="1.7305">
        <ele>350.8</ele>
        <time>2025-03-30T12:42:43Z</time>
      </trkpt>
      <trkpt lat="44.63002" lon="1.7305">
        <ele>352.5</ele>
        <time>2025-03-30T12:42:48Z</time>
      </trkpt>
      <trkpt lat="44.62998" lon="1.7305">
        <ele>353.4</ele>
        <time>2025-03-30T12:42:52Z</time>
      </trkpt>
      <trkpt lat="44.62993" lon="1.73051">
        <ele>354.2</ele>
        <time>2025-03-30T12:42:57Z</time>
      </trkpt>
      <trkpt lat="44.62989" lon="1.73052">
        <ele>354.9</ele>
        <time>2025-03-30T12:43:01Z</time>
      </trkpt>
      <trkpt lat="44.62984" lon="1.73053">
        <ele>355</ele>
        <time>2025-03-30T12:43:05Z</time>
      </trkpt>
      <trkpt lat="44.62979" lon="1.73054">
        <ele>355.3</ele>
        <time>2025-03-30T12:43:09Z</time>
      </trkpt>
      <trkpt lat="44.62974" lon="1.73055">
        <ele>355.2</ele>
        <time>2025-03-30T12:43:13Z</time>
      </trkpt>
      <trkpt lat="44.6297" lon="1.73057">
        <ele>355.4</ele>
        <time>2025-03-30T12:43:17Z</time>
      </trkpt>
      <trkpt lat="44.62965" lon="1.73058">
        <ele>355.5</ele>
        <time>2025-03-30T12:43:21Z</time>
      </trkpt>
      <trkpt lat="44.6296" lon="1.7306">
        <ele>355.7</ele>
        <time>2025-03-30T12:43:25Z</time>
      </trkpt>
      <trkpt lat="44.62956" lon="1.73061">
        <ele>355.3</ele>
        <time>2025-03-30T12:43:29Z</time>
      </trkpt>
      <trkpt lat="44.62951" lon="1.73061">
        <ele>355.5</ele>
        <time>2025-03-30T12:43:33Z</time>
      </trkpt>
      <trkpt lat="44.62946" lon="1.73062">
        <ele>356.2</ele>
        <time>2025-03-30T12:43:37Z</time>
      </trkpt>
      <trkpt lat="44.62942" lon="1.73063">
        <ele>356.4</ele>
        <time>2025-03-30T12:43:41Z</time>
      </trkpt>
      <trkpt lat="44.62936" lon="1.73064">
        <ele>357.4</ele>
        <time>2025-03-30T12:43:46Z</time>
      </trkpt>
      <trkpt lat="44.62931" lon="1.73066">
        <ele>358.8</ele>
        <time>2025-03-30T12:43:51Z</time>
      </trkpt>
      <trkpt lat="44.62925" lon="1.73067">
        <ele>359.6</ele>
        <time>2025-03-30T12:43:56Z</time>
      </trkpt>
      <trkpt lat="44.6292" lon="1.73069">
        <ele>360.5</ele>
        <time>2025-03-30T12:44:01Z</time>
      </trkpt>
      <trkpt lat="44.62914" lon="1.7307">
        <ele>360.5</ele>
        <time>2025-03-30T12:44:06Z</time>
      </trkpt>
      <trkpt lat="44.62909" lon="1.7307">
        <ele>360.8</ele>
        <time>2025-03-30T12:44:11Z</time>
      </trkpt>
      <trkpt lat="44.62903" lon="1.73069">
        <ele>361.3</ele>
        <time>2025-03-30T12:44:16Z</time>
      </trkpt>
      <trkpt lat="44.62898" lon="1.73069">
        <ele>361.5</ele>
        <time>2025-03-30T12:44:21Z</time>
      </trkpt>
      <trkpt lat="44.62892" lon="1.73069">
        <ele>361.5</ele>
        <time>2025-03-30T12:44:26Z</time>
      </trkpt>
      <trkpt lat="44.62887" lon="1.73069">
        <ele>362.3</ele>
        <time>2025-03-30T12:44:31Z</time>
      </trkpt>
      <trkpt lat="44.62882" lon="1.7307">
        <ele>362.3</ele>
        <time>2025-03-30T12:44:36Z</time>
      </trkpt>
      <trkpt lat="44.62877" lon="1.7307">
        <ele>363.8</ele>
        <time>2025-03-30T12:44:42Z</time>
      </trkpt>
      <trkpt lat="44.62871" lon="1.73072">
        <ele>364.1</ele>
        <time>2025-03-30T12:44:48Z</time>
      </trkpt>
      <trkpt lat="44.62866" lon="1.73073">
        <ele>363.1</ele>
        <time>2025-03-30T12:44:54Z</time>
      </trkpt>
      <trkpt lat="44.62861" lon="1.73075">
        <ele>363.4</ele>
        <time>2025-03-30T12:45:00Z</time>
      </trkpt>
      <trkpt lat="44.62856" lon="1.73074">
        <ele>364</ele>
        <time>2025-03-30T12:45:06Z</time>
      </trkpt>
      <trkpt lat="44.62851" lon="1.73074">
        <ele>365</ele>
        <time>2025-03-30T12:45:11Z</time>
      </trkpt>
      <trkpt lat="44.62846" lon="1.73075">
        <ele>365.6</ele>
        <time>2025-03-30T12:45:16Z</time>
      </trkpt>
      <trkpt lat="44.62842" lon="1.73079">
        <ele>365.9</ele>
        <time>2025-03-30T12:45:21Z</time>
      </trkpt>
      <trkpt lat="44.62837" lon="1.73081">
        <ele>366</ele>
        <time>2025-03-30T12:45:26Z</time>
      </trkpt>
      <trkpt lat="44.62832" lon="1.73082">
        <ele>366.6</ele>
        <time>2025-03-30T12:45:31Z</time>
      </trkpt>
      <trkpt lat="44.62827" lon="1.73083">
        <ele>368.1</ele>
        <time>2025-03-30T12:45:38Z</time>
      </trkpt>
      <trkpt lat="44.62822" lon="1.73084">
        <ele>368.8</ele>
        <time>2025-03-30T12:45:44Z</time>
      </trkpt>
      <trkpt lat="44.62817" lon="1.73086">
        <ele>368.9</ele>
        <time>2025-03-30T12:45:49Z</time>
      </trkpt>
      <trkpt lat="44.62812" lon="1.73088">
        <ele>368.8</ele>
        <time>2025-03-30T12:45:54Z</time>
      </trkpt>
      <trkpt lat="44.62807" lon="1.73088">
        <ele>370.6</ele>
        <time>2025-03-30T12:46:01Z</time>
      </trkpt>
      <trkpt lat="44.62802" lon="1.73089">
        <ele>372.4</ele>
        <time>2025-03-30T12:46:07Z</time>
      </trkpt>
      <trkpt lat="44.62797" lon="1.7309">
        <ele>372.7</ele>
        <time>2025-03-30T12:46:12Z</time>
      </trkpt>
      <trkpt lat="44.62793" lon="1.7309">
        <ele>373.6</ele>
        <time>2025-03-30T12:46:17Z</time>
      </trkpt>
      <trkpt lat="44.62788" lon="1.73091">
        <ele>374.3</ele>
        <time>2025-03-30T12:46:22Z</time>
      </trkpt>
      <trkpt lat="44.62784" lon="1.73093">
        <ele>373.9</ele>
        <time>2025-03-30T12:46:28Z</time>
      </trkpt>
      <trkpt lat="44.62779" lon="1.73094">
        <ele>374.1</ele>
        <time>2025-03-30T12:46:33Z</time>
      </trkpt>
      <trkpt lat="44.62775" lon="1.73095">
        <ele>374.8</ele>
        <time>2025-03-30T12:46:38Z</time>
      </trkpt>
      <trkpt lat="44.6277" lon="1.73097">
        <ele>374.5</ele>
        <time>2025-03-30T12:46:43Z</time>
      </trkpt>
      <trkpt lat="44.62765" lon="1.73098">
        <ele>375.3</ele>
        <time>2025-03-30T12:46:48Z</time>
      </trkpt>
      <trkpt lat="44.6276" lon="1.73098">
        <ele>375.9</ele>
        <time>2025-03-30T12:46:53Z</time>
      </trkpt>
      <trkpt lat="44.62756" lon="1.73099">
        <ele>375.9</ele>
        <time>2025-03-30T12:46:58Z</time>
      </trkpt>
      <trkpt lat="44.62751" lon="1.731">
        <ele>376.6</ele>
        <time>2025-03-30T12:47:03Z</time>
      </trkpt>
      <trkpt lat="44.62746" lon="1.73102">
        <ele>377.9</ele>
        <time>2025-03-30T12:47:09Z</time>
      </trkpt>
      <trkpt lat="44.62741" lon="1.73104">
        <ele>378.9</ele>
        <time>2025-03-30T12:47:15Z</time>
      </trkpt>
      <trkpt lat="44.62736" lon="1.73105">
        <ele>380.5</ele>
        <time>2025-03-30T12:47:20Z</time>
      </trkpt>
      <trkpt lat="44.62732" lon="1.73106">
        <ele>380.6</ele>
        <time>2025-03-30T12:47:26Z</time>
      </trkpt>
      <trkpt lat="44.62727" lon="1.73106">
        <ele>381.6</ele>
        <time>2025-03-30T12:47:32Z</time>
      </trkpt>
      <trkpt lat="44.62722" lon="1.73106">
        <ele>381.6</ele>
        <time>2025-03-30T12:47:37Z</time>
      </trkpt>
      <trkpt lat="44.62717" lon="1.73106">
        <ele>383.5</ele>
        <time>2025-03-30T12:47:43Z</time>
      </trkpt>
      <trkpt lat="44.62713" lon="1.73107">
        <ele>383.9</ele>
        <time>2025-03-30T12:47:48Z</time>
      </trkpt>
      <trkpt lat="44.62708" lon="1.73107">
        <ele>385.7</ele>
        <time>2025-03-30T12:47:54Z</time>
      </trkpt>
      <trkpt lat="44.62703" lon="1.73108">
        <ele>386.1</ele>
        <time>2025-03-30T12:47:59Z</time>
      </trkpt>
      <trkpt lat="44.62698" lon="1.73108">
        <ele>386.4</ele>
        <time>2025-03-30T12:48:04Z</time>
      </trkpt>
      <trkpt lat="44.62693" lon="1.73109">
        <ele>387.2</ele>
        <time>2025-03-30T12:48:09Z</time>
      </trkpt>
      <trkpt lat="44.62688" lon="1.73111">
        <ele>387.4</ele>
        <time>2025-03-30T12:48:14Z</time>
      </trkpt>
      <trkpt lat="44.62684" lon="1.73112">
        <ele>386.8</ele>
        <time>2025-03-30T12:48:19Z</time>
      </trkpt>
      <trkpt lat="44.62679" lon="1.73112">
        <ele>387.2</ele>
        <time>2025-03-30T12:48:24Z</time>
      </trkpt>
      <trkpt lat="44.62674" lon="1.73114">
        <ele>387.8</ele>
        <time>2025-03-30T12:48:29Z</time>
      </trkpt>
      <trkpt lat="44.62669" lon="1.73114">
        <ele>387.9</ele>
        <time>2025-03-30T12:48:34Z</time>
      </trkpt>
      <trkpt lat="44.62665" lon="1.73114">
        <ele>389.1</ele>
        <time>2025-03-30T12:48:39Z</time>
      </trkpt>
      <trkpt lat="44.6266" lon="1.73116">
        <ele>390.7</ele>
        <time>2025-03-30T12:48:44Z</time>
      </trkpt>
      <trkpt lat="44.62655" lon="1.73116">
        <ele>391.9</ele>
        <time>2025-03-30T12:48:49Z</time>
      </trkpt>
      <trkpt lat="44.6265" lon="1.73117">
        <ele>392.9</ele>
        <time>2025-03-30T12:48:54Z</time>
      </trkpt>
      <trkpt lat="44.62645" lon="1.73117">
        <ele>392.8</ele>
        <time>2025-03-30T12:48:59Z</time>
      </trkpt>
      <trkpt lat="44.62641" lon="1.73119">
        <ele>392</ele>
        <time>2025-03-30T12:49:03Z</time>
      </trkpt>
      <trkpt lat="44.62635" lon="1.73119">
        <ele>392</ele>
        <time>2025-03-30T12:49:08Z</time>
      </trkpt>
      <trkpt lat="44.6263" lon="1.7312">
        <ele>392</ele>
        <time>2025-03-30T12:49:13Z</time>
      </trkpt>
      <trkpt lat="44.62626" lon="1.73121">
        <ele>393</ele>
        <time>2025-03-30T12:49:18Z</time>
      </trkpt>
      <trkpt lat="44.62621" lon="1.73122">
        <ele>393.3</ele>
        <time>2025-03-30T12:49:23Z</time>
      </trkpt>
      <trkpt lat="44.62616" lon="1.73122">
        <ele>394.7</ele>
        <time>2025-03-30T12:49:28Z</time>
      </trkpt>
      <trkpt lat="44.62611" lon="1.73123">
        <ele>395.5</ele>
        <time>2025-03-30T12:49:33Z</time>
      </trkpt>
      <trkpt lat="44.62606" lon="1.73124">
        <ele>395.8</ele>
        <time>2025-03-30T12:49:38Z</time>
      </trkpt>
      <trkpt lat="44.62601" lon="1.73125">
        <ele>396.5</ele>
        <time>2025-03-30T12:49:43Z</time>
      </trkpt>
      <trkpt lat="44.62596" lon="1.73125">
        <ele>396.5</ele>
        <time>2025-03-30T12:49:47Z</time>
      </trkpt>
      <trkpt lat="44.62592" lon="1.73126">
        <ele>396.9</ele>
        <time>2025-03-30T12:49:51Z</time>
      </trkpt>
      <trkpt lat="44.62586" lon="1.73126">
        <ele>397.5</ele>
        <time>2025-03-30T12:49:56Z</time>
      </trkpt>
      <trkpt lat="44.62581" lon="1.73128">
        <ele>397.7</ele>
        <time>2025-03-30T12:50:01Z</time>
      </trkpt>
      <trkpt lat="44.62576" lon="1.73129">
        <ele>397.2</ele>
        <time>2025-03-30T12:50:05Z</time>
      </trkpt>
      <trkpt lat="44.62572" lon="1.7313">
        <ele>398</ele>
        <time>2025-03-30T12:50:10Z</time>
      </trkpt>
      <trkpt lat="44.62566" lon="1.73131">
        <ele>398.3</ele>
        <time>2025-03-30T12:50:15Z</time>
      </trkpt>
      <trkpt lat="44.62562" lon="1.73132">
        <ele>397.9</ele>
        <time>2025-03-30T12:50:19Z</time>
      </trkpt>
      <trkpt lat="44.62557" lon="1.73132">
        <ele>398.1</ele>
        <time>2025-03-30T12:50:24Z</time>
      </trkpt>
      <trkpt lat="44.62551" lon="1.73134">
        <ele>397.8</ele>
        <time>2025-03-30T12:50:29Z</time>
      </trkpt>
      <trkpt lat="44.62546" lon="1.73134">
        <ele>397.2</ele>
        <time>2025-03-30T12:50:34Z</time>
      </trkpt>
      <trkpt lat="44.6254" lon="1.73134">
        <ele>396.7</ele>
        <time>2025-03-30T12:50:39Z</time>
      </trkpt>
      <trkpt lat="44.62536" lon="1.73133">
        <ele>396.2</ele>
        <time>2025-03-30T12:50:45Z</time>
      </trkpt>
      <trkpt lat="44.62533" lon="1.73128">
        <ele>397.4</ele>
        <time>2025-03-30T12:50:50Z</time>
      </trkpt>
      <trkpt lat="44.62531" lon="1.73122">
        <ele>398.5</ele>
        <time>2025-03-30T12:50:56Z</time>
      </trkpt>
      <trkpt lat="44.62531" lon="1.73115">
        <ele>397.7</ele>
        <time>2025-03-30T12:51:01Z</time>
      </trkpt>
      <trkpt lat="44.62531" lon="1.73107">
        <ele>396.4</ele>
        <time>2025-03-30T12:51:07Z</time>
      </trkpt>
      <trkpt lat="44.62531" lon="1.731">
        <ele>396.4</ele>
        <time>2025-03-30T12:51:12Z</time>
      </trkpt>
      <trkpt lat="44.6253" lon="1.73092">
        <ele>395.7</ele>
        <time>2025-03-30T12:51:17Z</time>
      </trkpt>
      <trkpt lat="44.62529" lon="1.73085">
        <ele>395.1</ele>
        <time>2025-03-30T12:51:22Z</time>
      </trkpt>
      <trkpt lat="44.62528" lon="1.73078">
        <ele>394.3</ele>
        <time>2025-03-30T12:51:26Z</time>
      </trkpt>
      <trkpt lat="44.62525" lon="1.73073">
        <ele>395.5</ele>
        <time>2025-03-30T12:51:30Z</time>
      </trkpt>
      <trkpt lat="44.62521" lon="1.73068">
        <ele>396.2</ele>
        <time>2025-03-30T12:51:35Z</time>
      </trkpt>
      <trkpt lat="44.62516" lon="1.73064">
        <ele>398.4</ele>
        <time>2025-03-30T12:51:40Z</time>
      </trkpt>
      <trkpt lat="44.62512" lon="1.73061">
        <ele>399.1</ele>
        <time>2025-03-30T12:51:45Z</time>
      </trkpt>
      <trkpt lat="44.62507" lon="1.73058">
        <ele>397.8</ele>
        <time>2025-03-30T12:51:50Z</time>
      </trkpt>
      <trkpt lat="44.62503" lon="1.73054">
        <ele>398.3</ele>
        <time>2025-03-30T12:51:54Z</time>
      </trkpt>
      <trkpt lat="44.62499" lon="1.73051">
        <ele>396.8</ele>
        <time>2025-03-30T12:51:58Z</time>
      </trkpt>
      <trkpt lat="44.62494" lon="1.73048">
        <ele>396.6</ele>
        <time>2025-03-30T12:52:03Z</time>
      </trkpt>
      <trkpt lat="44.6249" lon="1.73045">
        <ele>396.5</ele>
        <time>2025-03-30T12:52:07Z</time>
      </trkpt>
      <trkpt lat="44.62485" lon="1.73043">
        <ele>395.6</ele>
        <time>2025-03-30T12:52:12Z</time>
      </trkpt>
      <trkpt lat="44.62481" lon="1.7304">
        <ele>397.9</ele>
        <time>2025-03-30T12:52:17Z</time>
      </trkpt>
      <trkpt lat="44.62476" lon="1.73039">
        <ele>396</ele>
        <time>2025-03-30T12:52:21Z</time>
      </trkpt>
      <trkpt lat="44.62471" lon="1.73036">
        <ele>395.9</ele>
        <time>2025-03-30T12:52:26Z</time>
      </trkpt>
      <trkpt lat="44.62467" lon="1.73034">
        <ele>393.8</ele>
        <time>2025-03-30T12:52:30Z</time>
      </trkpt>
      <trkpt lat="44.62462" lon="1.73033">
        <ele>393.2</ele>
        <time>2025-03-30T12:52:34Z</time>
      </trkpt>
      <trkpt lat="44.62458" lon="1.73031">
        <ele>390.7</ele>
        <time>2025-03-30T12:52:38Z</time>
      </trkpt>
      <trkpt lat="44.62453" lon="1.7303">
        <ele>391.1</ele>
        <time>2025-03-30T12:52:42Z</time>
      </trkpt>
      <trkpt lat="44.62448" lon="1.73028">
        <ele>391.2</ele>
        <time>2025-03-30T12:52:47Z</time>
      </trkpt>
      <trkpt lat="44.62444" lon="1.73028">
        <ele>390.8</ele>
        <time>2025-03-30T12:52:51Z</time>
      </trkpt>
      <trkpt lat="44.62439" lon="1.73026">
        <ele>391</ele>
        <time>2025-03-30T12:52:55Z</time>
      </trkpt>
      <trkpt lat="44.62434" lon="1.73025">
        <ele>390.2</ele>
        <time>2025-03-30T12:53:00Z</time>
      </trkpt>
      <trkpt lat="44.6243" lon="1.73024">
        <ele>389.5</ele>
        <time>2025-03-30T12:53:04Z</time>
      </trkpt>
      <trkpt lat="44.62424" lon="1.73022">
        <ele>389.9</ele>
        <time>2025-03-30T12:53:09Z</time>
      </trkpt>
      <trkpt lat="44.62419" lon="1.73021">
        <ele>392.7</ele>
        <time>2025-03-30T12:53:13Z</time>
      </trkpt>
      <trkpt lat="44.62415" lon="1.73018">
        <ele>391.6</ele>
        <time>2025-03-30T12:53:17Z</time>
      </trkpt>
      <trkpt lat="44.6241" lon="1.73017">
        <ele>389.2</ele>
        <time>2025-03-30T12:53:21Z</time>
      </trkpt>
      <trkpt lat="44.62405" lon="1.73018">
        <ele>385.8</ele>
        <time>2025-03-30T12:53:25Z</time>
      </trkpt>
      <trkpt lat="44.624" lon="1.73017">
        <ele>387.2</ele>
        <time>2025-03-30T12:54:32Z</time>
      </trkpt>
      <trkpt lat="44.62395" lon="1.73014">
        <ele>385.8</ele>
        <time>2025-03-30T12:54:37Z</time>
      </trkpt>
      <trkpt lat="44.6239" lon="1.73012">
        <ele>385.1</ele>
        <time>2025-03-30T12:54:42Z</time>
      </trkpt>
      <trkpt lat="44.62385" lon="1.73012">
        <ele>385</ele>
        <time>2025-03-30T12:54:47Z</time>
      </trkpt>
      <trkpt lat="44.62379" lon="1.73012">
        <ele>384.5</ele>
        <time>2025-03-30T12:54:52Z</time>
      </trkpt>
      <trkpt lat="44.62374" lon="1.73012">
        <ele>383.6</ele>
        <time>2025-03-30T12:54:57Z</time>
      </trkpt>
      <trkpt lat="44.62369" lon="1.73012">
        <ele>383.2</ele>
        <time>2025-03-30T12:55:01Z</time>
      </trkpt>
      <trkpt lat="44.62364" lon="1.73013">
        <ele>382.6</ele>
        <time>2025-03-30T12:55:06Z</time>
      </trkpt>
      <trkpt lat="44.62359" lon="1.73013">
        <ele>379.9</ele>
        <time>2025-03-30T12:55:10Z</time>
      </trkpt>
      <trkpt lat="44.62355" lon="1.73012">
        <ele>381.1</ele>
        <time>2025-03-30T12:55:14Z</time>
      </trkpt>
      <trkpt lat="44.6235" lon="1.7301">
        <ele>380.8</ele>
        <time>2025-03-30T12:55:18Z</time>
      </trkpt>
      <trkpt lat="44.62345" lon="1.7301">
        <ele>380.4</ele>
        <time>2025-03-30T12:55:23Z</time>
      </trkpt>
      <trkpt lat="44.62341" lon="1.73008">
        <ele>381.6</ele>
        <time>2025-03-30T12:55:27Z</time>
      </trkpt>
      <trkpt lat="44.62336" lon="1.73005">
        <ele>382.4</ele>
        <time>2025-03-30T12:55:31Z</time>
      </trkpt>
      <trkpt lat="44.62332" lon="1.73002">
        <ele>382.9</ele>
        <time>2025-03-30T12:55:35Z</time>
      </trkpt>
      <trkpt lat="44.62327" lon="1.72999">
        <ele>382.4</ele>
        <time>2025-03-30T12:55:40Z</time>
      </trkpt>
      <trkpt lat="44.62322" lon="1.72997">
        <ele>381.5</ele>
        <time>2025-03-30T12:55:44Z</time>
      </trkpt>
      <trkpt lat="44.62318" lon="1.72995">
        <ele>381.5</ele>
        <time>2025-03-30T12:55:48Z</time>
      </trkpt>
      <trkpt lat="44.62313" lon="1.72994">
        <ele>380.9</ele>
        <time>2025-03-30T12:55:52Z</time>
      </trkpt>
      <trkpt lat="44.62308" lon="1.72994">
        <ele>381.3</ele>
        <time>2025-03-30T12:55:56Z</time>
      </trkpt>
      <trkpt lat="44.62303" lon="1.72992">
        <ele>379.3</ele>
        <time>2025-03-30T12:56:00Z</time>
      </trkpt>
      <trkpt lat="44.62298" lon="1.72992">
        <ele>380.4</ele>
        <time>2025-03-30T12:56:04Z</time>
      </trkpt>
      <trkpt lat="44.62293" lon="1.72993">
        <ele>379.1</ele>
        <time>2025-03-30T12:56:08Z</time>
      </trkpt>
      <trkpt lat="44.62288" lon="1.72992">
        <ele>380.4</ele>
        <time>2025-03-30T12:56:12Z</time>
      </trkpt>
      <trkpt lat="44.62283" lon="1.7299">
        <ele>380.6</ele>
        <time>2025-03-30T12:56:17Z</time>
      </trkpt>
      <trkpt lat="44.62277" lon="1.72989">
        <ele>381.5</ele>
        <time>2025-03-30T12:56:22Z</time>
      </trkpt>
      <trkpt lat="44.62273" lon="1.7299">
        <ele>379.5</ele>
        <time>2025-03-30T12:56:26Z</time>
      </trkpt>
      <trkpt lat="44.62267" lon="1.72991">
        <ele>378.4</ele>
        <time>2025-03-30T12:56:31Z</time>
      </trkpt>
      <trkpt lat="44.62263" lon="1.72991">
        <ele>376.8</ele>
        <time>2025-03-30T12:56:35Z</time>
      </trkpt>
      <trkpt lat="44.62257" lon="1.72991">
        <ele>376.1</ele>
        <time>2025-03-30T12:56:40Z</time>
      </trkpt>
      <trkpt lat="44.62252" lon="1.7299">
        <ele>376.3</ele>
        <time>2025-03-30T12:56:44Z</time>
      </trkpt>
      <trkpt lat="44.62248" lon="1.7299">
        <ele>376.4</ele>
        <time>2025-03-30T12:56:48Z</time>
      </trkpt>
      <trkpt lat="44.62243" lon="1.72989">
        <ele>376.2</ele>
        <time>2025-03-30T12:56:52Z</time>
      </trkpt>
      <trkpt lat="44.62239" lon="1.7299">
        <ele>376.1</ele>
        <time>2025-03-30T12:56:56Z</time>
      </trkpt>
      <trkpt lat="44.62234" lon="1.72991">
        <ele>375.4</ele>
        <time>2025-03-30T12:57:00Z</time>
      </trkpt>
      <trkpt lat="44.62229" lon="1.72991">
        <ele>375</ele>
        <time>2025-03-30T12:57:05Z</time>
      </trkpt>
      <trkpt lat="44.62223" lon="1.72992">
        <ele>374.7</ele>
        <time>2025-03-30T12:57:10Z</time>
      </trkpt>
      <trkpt lat="44.62218" lon="1.72992">
        <ele>374.2</ele>
        <time>2025-03-30T12:57:15Z</time>
      </trkpt>
      <trkpt lat="44.62213" lon="1.72992">
        <ele>375</ele>
        <time>2025-03-30T12:57:19Z</time>
      </trkpt>
      <trkpt lat="44.62209" lon="1.72993">
        <ele>374</ele>
        <time>2025-03-30T12:57:23Z</time>
      </trkpt>
      <trkpt lat="44.62203" lon="1.72993">
        <ele>375.2</ele>
        <time>2025-03-30T12:57:28Z</time>
      </trkpt>
      <trkpt lat="44.62198" lon="1.72992">
        <ele>375.5</ele>
        <time>2025-03-30T12:57:32Z</time>
      </trkpt>
      <trkpt lat="44.62193" lon="1.72992">
        <ele>374.8</ele>
        <time>2025-03-30T12:57:36Z</time>
      </trkpt>
      <trkpt lat="44.62188" lon="1.72993">
        <ele>374</ele>
        <time>2025-03-30T12:57:40Z</time>
      </trkpt>
      <trkpt lat="44.62183" lon="1.72993">
        <ele>372.7</ele>
        <time>2025-03-30T12:57:45Z</time>
      </trkpt>
      <trkpt lat="44.62179" lon="1.72994">
        <ele>373.4</ele>
        <time>2025-03-30T12:57:49Z</time>
      </trkpt>
      <trkpt lat="44.62174" lon="1.72994">
        <ele>372</ele>
        <time>2025-03-30T12:57:53Z</time>
      </trkpt>
      <trkpt lat="44.62169" lon="1.72993">
        <ele>373.7</ele>
        <time>2025-03-30T12:57:58Z</time>
      </trkpt>
      <trkpt lat="44.62164" lon="1.72993">
        <ele>374.6</ele>
        <time>2025-03-30T12:58:02Z</time>
      </trkpt>
      <trkpt lat="44.62159" lon="1.72994">
        <ele>372</ele>
        <time>2025-03-30T12:58:06Z</time>
      </trkpt>
      <trkpt lat="44.62155" lon="1.72995">
        <ele>370.8</ele>
        <time>2025-03-30T12:58:10Z</time>
      </trkpt>
      <trkpt lat="44.6215" lon="1.72993">
        <ele>371</ele>
        <time>2025-03-30T12:58:21Z</time>
      </trkpt>
      <trkpt lat="44.62148" lon="1.72987">
        <ele>372</ele>
        <time>2025-03-30T12:58:25Z</time>
      </trkpt>
      <trkpt lat="44.62147" lon="1.72979">
        <ele>372.2</ele>
        <time>2025-03-30T12:58:29Z</time>
      </trkpt>
      <trkpt lat="44.62145" lon="1.72972">
        <ele>370.6</ele>
        <time>2025-03-30T12:58:34Z</time>
      </trkpt>
      <trkpt lat="44.62144" lon="1.72965">
        <ele>370.3</ele>
        <time>2025-03-30T12:58:38Z</time>
      </trkpt>
      <trkpt lat="44.62144" lon="1.72958">
        <ele>368.1</ele>
        <time>2025-03-30T12:58:43Z</time>
      </trkpt>
      <trkpt lat="44.62142" lon="1.72951">
        <ele>367.4</ele>
        <time>2025-03-30T12:58:48Z</time>
      </trkpt>
      <trkpt lat="44.62142" lon="1.72944">
        <ele>365.8</ele>
        <time>2025-03-30T12:58:53Z</time>
      </trkpt>
      <trkpt lat="44.62141" lon="1.72936">
        <ele>366</ele>
        <time>2025-03-30T12:58:58Z</time>
      </trkpt>
      <trkpt lat="44.6214" lon="1.72929">
        <ele>365.9</ele>
        <time>2025-03-30T12:59:02Z</time>
      </trkpt>
      <trkpt lat="44.62138" lon="1.72922">
        <ele>364.5</ele>
        <time>2025-03-30T12:59:06Z</time>
      </trkpt>
      <trkpt lat="44.62141" lon="1.72916">
        <ele>364.8</ele>
        <time>2025-03-30T12:59:14Z</time>
      </trkpt>
      <trkpt lat="44.62139" lon="1.7291">
        <ele>365.3</ele>
        <time>2025-03-30T12:59:19Z</time>
      </trkpt>
      <trkpt lat="44.62137" lon="1.72904">
        <ele>364.6</ele>
        <time>2025-03-30T12:59:42Z</time>
      </trkpt>
      <trkpt lat="44.62133" lon="1.72899">
        <ele>362.4</ele>
        <time>2025-03-30T12:59:49Z</time>
      </trkpt>
      <trkpt lat="44.62129" lon="1.72895">
        <ele>362.1</ele>
        <time>2025-03-30T13:00:25Z</time>
      </trkpt>
      <trkpt lat="44.62126" lon="1.72889">
        <ele>363.2</ele>
        <time>2025-03-30T13:00:46Z</time>
      </trkpt>
      <trkpt lat="44.62123" lon="1.72884">
        <ele>362.3</ele>
        <time>2025-03-30T13:00:51Z</time>
      </trkpt>
      <trkpt lat="44.6212" lon="1.72877">
        <ele>363.3</ele>
        <time>2025-03-30T13:01:37Z</time>
      </trkpt>
      <trkpt lat="44.62116" lon="1.72874">
        <ele>362</ele>
        <time>2025-03-30T13:02:34Z</time>
      </trkpt>
      <trkpt lat="44.62112" lon="1.72869">
        <ele>362.2</ele>
        <time>2025-03-30T13:02:39Z</time>
      </trkpt>
      <trkpt lat="44.6211" lon="1.72863">
        <ele>360</ele>
        <time>2025-03-30T13:02:44Z</time>
      </trkpt>
      <trkpt lat="44.62106" lon="1.72857">
        <ele>359.3</ele>
        <time>2025-03-30T13:02:48Z</time>
      </trkpt>
      <trkpt lat="44.62104" lon="1.72852">
        <ele>359.3</ele>
        <time>2025-03-30T13:02:52Z</time>
      </trkpt>
      <trkpt lat="44.621" lon="1.72845">
        <ele>360.9</ele>
        <time>2025-03-30T13:02:56Z</time>
      </trkpt>
      <trkpt lat="44.62099" lon="1.72839">
        <ele>361.9</ele>
        <time>2025-03-30T13:03:00Z</time>
      </trkpt>
      <trkpt lat="44.62097" lon="1.72832">
        <ele>359.8</ele>
        <time>2025-03-30T13:03:04Z</time>
      </trkpt>
      <trkpt lat="44.62095" lon="1.72826">
        <ele>358.5</ele>
        <time>2025-03-30T13:03:08Z</time>
      </trkpt>
      <trkpt lat="44.62097" lon="1.72819">
        <ele>357.7</ele>
        <time>2025-03-30T13:03:12Z</time>
      </trkpt>
      <trkpt lat="44.62099" lon="1.72812">
        <ele>357.9</ele>
        <time>2025-03-30T13:03:17Z</time>
      </trkpt>
      <trkpt lat="44.62103" lon="1.72809">
        <ele>355.2</ele>
        <time>2025-03-30T13:03:32Z</time>
      </trkpt>
      <trkpt lat="44.62106" lon="1.72804">
        <ele>355.1</ele>
        <time>2025-03-30T13:03:37Z</time>
      </trkpt>
      <trkpt lat="44.6211" lon="1.72799">
        <ele>355.3</ele>
        <time>2025-03-30T13:03:43Z</time>
      </trkpt>
      <trkpt lat="44.62114" lon="1.72794">
        <ele>356</ele>
        <time>2025-03-30T13:03:48Z</time>
      </trkpt>
      <trkpt lat="44.62118" lon="1.7279">
        <ele>356.3</ele>
        <time>2025-03-30T13:03:52Z</time>
      </trkpt>
      <trkpt lat="44.62121" lon="1.72785">
        <ele>356.1</ele>
        <time>2025-03-30T13:03:56Z</time>
      </trkpt>
      <trkpt lat="44.62125" lon="1.7278">
        <ele>356.5</ele>
        <time>2025-03-30T13:04:00Z</time>
      </trkpt>
      <trkpt lat="44.62129" lon="1.72775">
        <ele>356.8</ele>
        <time>2025-03-30T13:04:04Z</time>
      </trkpt>
      <trkpt lat="44.62132" lon="1.72771">
        <ele>356.7</ele>
        <time>2025-03-30T13:04:08Z</time>
      </trkpt>
      <trkpt lat="44.62135" lon="1.72765">
        <ele>357</ele>
        <time>2025-03-30T13:04:12Z</time>
      </trkpt>
      <trkpt lat="44.62138" lon="1.7276">
        <ele>357.3</ele>
        <time>2025-03-30T13:04:16Z</time>
      </trkpt>
      <trkpt lat="44.62141" lon="1.72755">
        <ele>357</ele>
        <time>2025-03-30T13:04:20Z</time>
      </trkpt>
      <trkpt lat="44.62144" lon="1.7275">
        <ele>357.3</ele>
        <time>2025-03-30T13:04:24Z</time>
      </trkpt>
      <trkpt lat="44.62146" lon="1.72744">
        <ele>357.4</ele>
        <time>2025-03-30T13:04:28Z</time>
      </trkpt>
      <trkpt lat="44.62149" lon="1.72737">
        <ele>357.3</ele>
        <time>2025-03-30T13:04:41Z</time>
      </trkpt>
      <trkpt lat="44.62151" lon="1.72731">
        <ele>357.7</ele>
        <time>2025-03-30T13:04:45Z</time>
      </trkpt>
      <trkpt lat="44.62152" lon="1.72724">
        <ele>358</ele>
        <time>2025-03-30T13:04:49Z</time>
      </trkpt>
      <trkpt lat="44.62154" lon="1.72718">
        <ele>358.7</ele>
        <time>2025-03-30T13:04:53Z</time>
      </trkpt>
      <trkpt lat="44.62156" lon="1.72712">
        <ele>358.6</ele>
        <time>2025-03-30T13:04:57Z</time>
      </trkpt>
      <trkpt lat="44.62158" lon="1.72706">
        <ele>359.1</ele>
        <time>2025-03-30T13:05:01Z</time>
      </trkpt>
      <trkpt lat="44.6216" lon="1.727">
        <ele>359.2</ele>
        <time>2025-03-30T13:05:05Z</time>
      </trkpt>
      <trkpt lat="44.62162" lon="1.72693">
        <ele>358.8</ele>
        <time>2025-03-30T13:05:09Z</time>
      </trkpt>
      <trkpt lat="44.62163" lon="1.72687">
        <ele>357.9</ele>
        <time>2025-03-30T13:05:13Z</time>
      </trkpt>
      <trkpt lat="44.62163" lon="1.7268">
        <ele>358.4</ele>
        <time>2025-03-30T13:05:17Z</time>
      </trkpt>
      <trkpt lat="44.62164" lon="1.72674">
        <ele>359.2</ele>
        <time>2025-03-30T13:05:21Z</time>
      </trkpt>
      <trkpt lat="44.62164" lon="1.72666">
        <ele>358.8</ele>
        <time>2025-03-30T13:05:25Z</time>
      </trkpt>
      <trkpt lat="44.62165" lon="1.72659">
        <ele>359.6</ele>
        <time>2025-03-30T13:05:29Z</time>
      </trkpt>
      <trkpt lat="44.62165" lon="1.72652">
        <ele>359.3</ele>
        <time>2025-03-30T13:05:33Z</time>
      </trkpt>
      <trkpt lat="44.62165" lon="1.72645">
        <ele>359</ele>
        <time>2025-03-30T13:05:37Z</time>
      </trkpt>
      <trkpt lat="44.62165" lon="1.72638">
        <ele>359.2</ele>
        <time>2025-03-30T13:05:41Z</time>
      </trkpt>
      <trkpt lat="44.62164" lon="1.72631">
        <ele>359.3</ele>
        <time>2025-03-30T13:05:45Z</time>
      </trkpt>
      <trkpt lat="44.62165" lon="1.72624">
        <ele>358.9</ele>
        <time>2025-03-30T13:05:49Z</time>
      </trkpt>
      <trkpt lat="44.62166" lon="1.72618">
        <ele>359</ele>
        <time>2025-03-30T13:05:53Z</time>
      </trkpt>
      <trkpt lat="44.62167" lon="1.72611">
        <ele>358.6</ele>
        <time>2025-03-30T13:05:57Z</time>
      </trkpt>
      <trkpt lat="44.62167" lon="1.72604">
        <ele>359</ele>
        <time>2025-03-30T13:06:01Z</time>
      </trkpt>
      <trkpt lat="44.62167" lon="1.72596">
        <ele>358.4</ele>
        <time>2025-03-30T13:06:06Z</time>
      </trkpt>
      <trkpt lat="44.62167" lon="1.72589">
        <ele>358.6</ele>
        <time>2025-03-30T13:06:11Z</time>
      </trkpt>
      <trkpt lat="44.62166" lon="1.72582">
        <ele>357.8</ele>
        <time>2025-03-30T13:06:15Z</time>
      </trkpt>
      <trkpt lat="44.62165" lon="1.72576">
        <ele>357.7</ele>
        <time>2025-03-30T13:06:19Z</time>
      </trkpt>
      <trkpt lat="44.62162" lon="1.7257">
        <ele>356.2</ele>
        <time>2025-03-30T13:06:24Z</time>
      </trkpt>
      <trkpt lat="44.62158" lon="1.72565">
        <ele>356.1</ele>
        <time>2025-03-30T13:06:29Z</time>
      </trkpt>
      <trkpt lat="44.62154" lon="1.72561">
        <ele>355.5</ele>
        <time>2025-03-30T13:06:34Z</time>
      </trkpt>
      <trkpt lat="44.62149" lon="1.72558">
        <ele>354.1</ele>
        <time>2025-03-30T13:06:39Z</time>
      </trkpt>
      <trkpt lat="44.62145" lon="1.72555">
        <ele>354.1</ele>
        <time>2025-03-30T13:06:43Z</time>
      </trkpt>
      <trkpt lat="44.62141" lon="1.72551">
        <ele>353.7</ele>
        <time>2025-03-30T13:06:47Z</time>
      </trkpt>
      <trkpt lat="44.62138" lon="1.72547">
        <ele>353.8</ele>
        <time>2025-03-30T13:06:51Z</time>
      </trkpt>
      <trkpt lat="44.62133" lon="1.72544">
        <ele>354</ele>
        <time>2025-03-30T13:06:55Z</time>
      </trkpt>
      <trkpt lat="44.62129" lon="1.72541">
        <ele>354.6</ele>
        <time>2025-03-30T13:06:59Z</time>
      </trkpt>
      <trkpt lat="44.62125" lon="1.72538">
        <ele>354.1</ele>
        <time>2025-03-30T13:07:03Z</time>
      </trkpt>
      <trkpt lat="44.6212" lon="1.72536">
        <ele>354.2</ele>
        <time>2025-03-30T13:07:07Z</time>
      </trkpt>
      <trkpt lat="44.62116" lon="1.72533">
        <ele>355.1</ele>
        <time>2025-03-30T13:07:11Z</time>
      </trkpt>
      <trkpt lat="44.62111" lon="1.7253">
        <ele>355.1</ele>
        <time>2025-03-30T13:07:15Z</time>
      </trkpt>
      <trkpt lat="44.62107" lon="1.72525">
        <ele>354.2</ele>
        <time>2025-03-30T13:07:20Z</time>
      </trkpt>
      <trkpt lat="44.62104" lon="1.7252">
        <ele>353.8</ele>
        <time>2025-03-30T13:07:25Z</time>
      </trkpt>
      <trkpt lat="44.62104" lon="1.72512">
        <ele>353.6</ele>
        <time>2025-03-30T13:07:30Z</time>
      </trkpt>
      <trkpt lat="44.62104" lon="1.72505">
        <ele>352.8</ele>
        <time>2025-03-30T13:07:34Z</time>
      </trkpt>
      <trkpt lat="44.62102" lon="1.72498">
        <ele>352.6</ele>
        <time>2025-03-30T13:07:38Z</time>
      </trkpt>
      <trkpt lat="44.62099" lon="1.72492">
        <ele>352.1</ele>
        <time>2025-03-30T13:07:42Z</time>
      </trkpt>
      <trkpt lat="44.62095" lon="1.72486">
        <ele>352.2</ele>
        <time>2025-03-30T13:07:51Z</time>
      </trkpt>
      <trkpt lat="44.62093" lon="1.72479">
        <ele>351.6</ele>
        <time>2025-03-30T13:07:55Z</time>
      </trkpt>
      <trkpt lat="44.6209" lon="1.72473">
        <ele>350.8</ele>
        <time>2025-03-30T13:07:59Z</time>
      </trkpt>
      <trkpt lat="44.6209" lon="1.72466">
        <ele>350.2</ele>
        <time>2025-03-30T13:08:03Z</time>
      </trkpt>
      <trkpt lat="44.6209" lon="1.7246">
        <ele>349.9</ele>
        <time>2025-03-30T13:08:07Z</time>
      </trkpt>
      <trkpt lat="44.62091" lon="1.72453">
        <ele>349.1</ele>
        <time>2025-03-30T13:08:11Z</time>
      </trkpt>
      <trkpt lat="44.62093" lon="1.72448">
        <ele>349.5</ele>
        <time>2025-03-30T13:08:15Z</time>
      </trkpt>
      <trkpt lat="44.62098" lon="1.72447">
        <ele>349.1</ele>
        <time>2025-03-30T13:08:19Z</time>
      </trkpt>
      <trkpt lat="44.62104" lon="1.72447">
        <ele>348.6</ele>
        <time>2025-03-30T13:08:23Z</time>
      </trkpt>
      <trkpt lat="44.62108" lon="1.72446">
        <ele>348.5</ele>
        <time>2025-03-30T13:08:27Z</time>
      </trkpt>
      <trkpt lat="44.62113" lon="1.72445">
        <ele>348.2</ele>
        <time>2025-03-30T13:08:31Z</time>
      </trkpt>
      <trkpt lat="44.62118" lon="1.72444">
        <ele>348.6</ele>
        <time>2025-03-30T13:08:35Z</time>
      </trkpt>
      <trkpt lat="44.62123" lon="1.72442">
        <ele>348.7</ele>
        <time>2025-03-30T13:08:39Z</time>
      </trkpt>
      <trkpt lat="44.62127" lon="1.72439">
        <ele>348.9</ele>
        <time>2025-03-30T13:08:43Z</time>
      </trkpt>
      <trkpt lat="44.62131" lon="1.72435">
        <ele>348.9</ele>
        <time>2025-03-30T13:08:47Z</time>
      </trkpt>
      <trkpt lat="44.62135" lon="1.72433">
        <ele>349</ele>
        <time>2025-03-30T13:08:51Z</time>
      </trkpt>
      <trkpt lat="44.6214" lon="1.72427">
        <ele>349.7</ele>
        <time>2025-03-30T13:08:56Z</time>
      </trkpt>
      <trkpt lat="44.62143" lon="1.72421">
        <ele>350</ele>
        <time>2025-03-30T13:09:00Z</time>
      </trkpt>
      <trkpt lat="44.62145" lon="1.72415">
        <ele>350.2</ele>
        <time>2025-03-30T13:09:04Z</time>
      </trkpt>
      <trkpt lat="44.62146" lon="1.72408">
        <ele>349.6</ele>
        <time>2025-03-30T13:09:08Z</time>
      </trkpt>
      <trkpt lat="44.62147" lon="1.72402">
        <ele>349.6</ele>
        <time>2025-03-30T13:09:12Z</time>
      </trkpt>
      <trkpt lat="44.62148" lon="1.72395">
        <ele>349.4</ele>
        <time>2025-03-30T13:09:16Z</time>
      </trkpt>
      <trkpt lat="44.6215" lon="1.72388">
        <ele>349.5</ele>
        <time>2025-03-30T13:09:20Z</time>
      </trkpt>
      <trkpt lat="44.62151" lon="1.72381">
        <ele>349.3</ele>
        <time>2025-03-30T13:09:24Z</time>
      </trkpt>
      <trkpt lat="44.62152" lon="1.72374">
        <ele>349.7</ele>
        <time>2025-03-30T13:09:28Z</time>
      </trkpt>
      <trkpt lat="44.62154" lon="1.72367">
        <ele>350</ele>
        <time>2025-03-30T13:09:32Z</time>
      </trkpt>
      <trkpt lat="44.62155" lon="1.7236">
        <ele>350.5</ele>
        <time>2025-03-30T13:09:36Z</time>
      </trkpt>
      <trkpt lat="44.62156" lon="1.72352">
        <ele>351.1</ele>
        <time>2025-03-30T13:09:40Z</time>
      </trkpt>
      <trkpt lat="44.62157" lon="1.72345">
        <ele>351.7</ele>
        <time>2025-03-30T13:09:44Z</time>
      </trkpt>
      <trkpt lat="44.62159" lon="1.72338">
        <ele>351.9</ele>
        <time>2025-03-30T13:09:48Z</time>
      </trkpt>
      <trkpt lat="44.62161" lon="1.72332">
        <ele>351.5</ele>
        <time>2025-03-30T13:09:52Z</time>
      </trkpt>
      <trkpt lat="44.62164" lon="1.72327">
        <ele>350.9</ele>
        <time>2025-03-30T13:09:56Z</time>
      </trkpt>
      <trkpt lat="44.62166" lon="1.72322">
        <ele>350.6</ele>
        <time>2025-03-30T13:10:00Z</time>
      </trkpt>
      <trkpt lat="44.62169" lon="1.72315">
        <ele>350.7</ele>
        <time>2025-03-30T13:10:04Z</time>
      </trkpt>
      <trkpt lat="44.62171" lon="1.72309">
        <ele>350.6</ele>
        <time>2025-03-30T13:10:08Z</time>
      </trkpt>
      <trkpt lat="44.62173" lon="1.72303">
        <ele>350.7</ele>
        <time>2025-03-30T13:10:12Z</time>
      </trkpt>
      <trkpt lat="44.62175" lon="1.72296">
        <ele>350.7</ele>
        <time>2025-03-30T13:10:16Z</time>
      </trkpt>
      <trkpt lat="44.62177" lon="1.7229">
        <ele>350.6</ele>
        <time>2025-03-30T13:10:20Z</time>
      </trkpt>
      <trkpt lat="44.62179" lon="1.72283">
        <ele>350.2</ele>
        <time>2025-03-30T13:10:24Z</time>
      </trkpt>
      <trkpt lat="44.6218" lon="1.72277">
        <ele>349.8</ele>
        <time>2025-03-30T13:10:28Z</time>
      </trkpt>
      <trkpt lat="44.62181" lon="1.7227">
        <ele>349</ele>
        <time>2025-03-30T13:10:32Z</time>
      </trkpt>
      <trkpt lat="44.62182" lon="1.72263">
        <ele>348.8</ele>
        <time>2025-03-30T13:10:36Z</time>
      </trkpt>
      <trkpt lat="44.62184" lon="1.72257">
        <ele>349.5</ele>
        <time>2025-03-30T13:10:40Z</time>
      </trkpt>
      <trkpt lat="44.62187" lon="1.72252">
        <ele>350</ele>
        <time>2025-03-30T13:10:44Z</time>
      </trkpt>
      <trkpt lat="44.62188" lon="1.72246">
        <ele>350.3</ele>
        <time>2025-03-30T13:10:48Z</time>
      </trkpt>
      <trkpt lat="44.6219" lon="1.72239">
        <ele>350</ele>
        <time>2025-03-30T13:10:52Z</time>
      </trkpt>
      <trkpt lat="44.62191" lon="1.72232">
        <ele>350.3</ele>
        <time>2025-03-30T13:10:56Z</time>
      </trkpt>
      <trkpt lat="44.62193" lon="1.72226">
        <ele>349.5</ele>
        <time>2025-03-30T13:11:00Z</time>
      </trkpt>
      <trkpt lat="44.62194" lon="1.72219">
        <ele>349.7</ele>
        <time>2025-03-30T13:11:04Z</time>
      </trkpt>
      <trkpt lat="44.62195" lon="1.72213">
        <ele>349.4</ele>
        <time>2025-03-30T13:11:08Z</time>
      </trkpt>
      <trkpt lat="44.62196" lon="1.72206">
        <ele>349.4</ele>
        <time>2025-03-30T13:11:12Z</time>
      </trkpt>
      <trkpt lat="44.62196" lon="1.72199">
        <ele>349.8</ele>
        <time>2025-03-30T13:11:16Z</time>
      </trkpt>
      <trkpt lat="44.62196" lon="1.72192">
        <ele>349.8</ele>
        <time>2025-03-30T13:11:20Z</time>
      </trkpt>
      <trkpt lat="44.62196" lon="1.72185">
        <ele>350.2</ele>
        <time>2025-03-30T13:11:24Z</time>
      </trkpt>
      <trkpt lat="44.62196" lon="1.72177">
        <ele>350.5</ele>
        <time>2025-03-30T13:11:28Z</time>
      </trkpt>
      <trkpt lat="44.62196" lon="1.7217">
        <ele>350</ele>
        <time>2025-03-30T13:11:32Z</time>
      </trkpt>
      <trkpt lat="44.62196" lon="1.72163">
        <ele>349.8</ele>
        <time>2025-03-30T13:11:36Z</time>
      </trkpt>
      <trkpt lat="44.62196" lon="1.72156">
        <ele>349.6</ele>
        <time>2025-03-30T13:11:40Z</time>
      </trkpt>
      <trkpt lat="44.62195" lon="1.72149">
        <ele>347.9</ele>
        <time>2025-03-30T13:12:02Z</time>
      </trkpt>
      <trkpt lat="44.62196" lon="1.72143">
        <ele>348</ele>
        <time>2025-03-30T13:12:07Z</time>
      </trkpt>
      <trkpt lat="44.62196" lon="1.72135">
        <ele>348.1</ele>
        <time>2025-03-30T13:12:12Z</time>
      </trkpt>
      <trkpt lat="44.62197" lon="1.72127">
        <ele>348.7</ele>
        <time>2025-03-30T13:12:17Z</time>
      </trkpt>
      <trkpt lat="44.62197" lon="1.72121">
        <ele>348.2</ele>
        <time>2025-03-30T13:12:21Z</time>
      </trkpt>
      <trkpt lat="44.62196" lon="1.72114">
        <ele>348.5</ele>
        <time>2025-03-30T13:12:25Z</time>
      </trkpt>
      <trkpt lat="44.62197" lon="1.72107">
        <ele>350.2</ele>
        <time>2025-03-30T13:12:29Z</time>
      </trkpt>
      <trkpt lat="44.62197" lon="1.72101">
        <ele>350.8</ele>
        <time>2025-03-30T13:12:33Z</time>
      </trkpt>
      <trkpt lat="44.62197" lon="1.72094">
        <ele>351.2</ele>
        <time>2025-03-30T13:12:37Z</time>
      </trkpt>
      <trkpt lat="44.62197" lon="1.72087">
        <ele>349.7</ele>
        <time>2025-03-30T13:12:41Z</time>
      </trkpt>
      <trkpt lat="44.62196" lon="1.7208">
        <ele>349.1</ele>
        <time>2025-03-30T13:12:45Z</time>
      </trkpt>
      <trkpt lat="44.62195" lon="1.72073">
        <ele>347.9</ele>
        <time>2025-03-30T13:12:49Z</time>
      </trkpt>
      <trkpt lat="44.62194" lon="1.72066">
        <ele>345.1</ele>
        <time>2025-03-30T13:12:53Z</time>
      </trkpt>
      <trkpt lat="44.62194" lon="1.72059">
        <ele>345.4</ele>
        <time>2025-03-30T13:12:57Z</time>
      </trkpt>
      <trkpt lat="44.62194" lon="1.72051">
        <ele>347.5</ele>
        <time>2025-03-30T13:13:01Z</time>
      </trkpt>
      <trkpt lat="44.62194" lon="1.72044">
        <ele>347.8</ele>
        <time>2025-03-30T13:13:05Z</time>
      </trkpt>
      <trkpt lat="44.62193" lon="1.72037">
        <ele>347.7</ele>
        <time>2025-03-30T13:13:09Z</time>
      </trkpt>
      <trkpt lat="44.62193" lon="1.7203">
        <ele>349</ele>
        <time>2025-03-30T13:13:13Z</time>
      </trkpt>
      <trkpt lat="44.62192" lon="1.72023">
        <ele>349.3</ele>
        <time>2025-03-30T13:13:17Z</time>
      </trkpt>
      <trkpt lat="44.62192" lon="1.72017">
        <ele>347.1</ele>
        <time>2025-03-30T13:13:21Z</time>
      </trkpt>
      <trkpt lat="44.62192" lon="1.7201">
        <ele>346.9</ele>
        <time>2025-03-30T13:13:25Z</time>
      </trkpt>
      <trkpt lat="44.62193" lon="1.72002">
        <ele>346.1</ele>
        <time>2025-03-30T13:13:29Z</time>
      </trkpt>
      <trkpt lat="44.62192" lon="1.71995">
        <ele>346.2</ele>
        <time>2025-03-30T13:13:33Z</time>
      </trkpt>
      <trkpt lat="44.62192" lon="1.71987">
        <ele>346.7</ele>
        <time>2025-03-30T13:13:37Z</time>
      </trkpt>
      <trkpt lat="44.62191" lon="1.7198">
        <ele>347.6</ele>
        <time>2025-03-30T13:13:41Z</time>
      </trkpt>
      <trkpt lat="44.62192" lon="1.71973">
        <ele>348.1</ele>
        <time>2025-03-30T13:13:45Z</time>
      </trkpt>
      <trkpt lat="44.62192" lon="1.71966">
        <ele>347.9</ele>
        <time>2025-03-30T13:13:49Z</time>
      </trkpt>
      <trkpt lat="44.62193" lon="1.71959">
        <ele>347.3</ele>
        <time>2025-03-30T13:13:53Z</time>
      </trkpt>
      <trkpt lat="44.62193" lon="1.71952">
        <ele>346.3</ele>
        <time>2025-03-30T13:13:57Z</time>
      </trkpt>
      <trkpt lat="44.62195" lon="1.71945">
        <ele>346.6</ele>
        <time>2025-03-30T13:14:01Z</time>
      </trkpt>
      <trkpt lat="44.62195" lon="1.71938">
        <ele>346.2</ele>
        <time>2025-03-30T13:14:05Z</time>
      </trkpt>
      <trkpt lat="44.62195" lon="1.71931">
        <ele>345</ele>
        <time>2025-03-30T13:14:09Z</time>
      </trkpt>
      <trkpt lat="44.62195" lon="1.71924">
        <ele>344.8</ele>
        <time>2025-03-30T13:14:13Z</time>
      </trkpt>
      <trkpt lat="44.62195" lon="1.71918">
        <ele>344.8</ele>
        <time>2025-03-30T13:14:17Z</time>
      </trkpt>
      <trkpt lat="44.62197" lon="1.71911">
        <ele>345.4</ele>
        <time>2025-03-30T13:14:21Z</time>
      </trkpt>
      <trkpt lat="44.62199" lon="1.71904">
        <ele>346</ele>
        <time>2025-03-30T13:14:25Z</time>
      </trkpt>
      <trkpt lat="44.622" lon="1.71898">
        <ele>345.4</ele>
        <time>2025-03-30T13:14:29Z</time>
      </trkpt>
      <trkpt lat="44.62201" lon="1.71892">
        <ele>345.1</ele>
        <time>2025-03-30T13:14:33Z</time>
      </trkpt>
      <trkpt lat="44.62203" lon="1.71885">
        <ele>345.7</ele>
        <time>2025-03-30T13:14:37Z</time>
      </trkpt>
      <trkpt lat="44.62204" lon="1.71878">
        <ele>345.2</ele>
        <time>2025-03-30T13:14:41Z</time>
      </trkpt>
      <trkpt lat="44.62205" lon="1.71872">
        <ele>344.9</ele>
        <time>2025-03-30T13:14:45Z</time>
      </trkpt>
      <trkpt lat="44.62206" lon="1.71865">
        <ele>343.8</ele>
        <time>2025-03-30T13:14:49Z</time>
      </trkpt>
      <trkpt lat="44.62209" lon="1.71859">
        <ele>343.7</ele>
        <time>2025-03-30T13:14:53Z</time>
      </trkpt>
      <trkpt lat="44.6221" lon="1.71853">
        <ele>343.3</ele>
        <time>2025-03-30T13:14:58Z</time>
      </trkpt>
      <trkpt lat="44.6221" lon="1.71846">
        <ele>343.6</ele>
        <time>2025-03-30T13:15:02Z</time>
      </trkpt>
      <trkpt lat="44.62212" lon="1.71839">
        <ele>344.6</ele>
        <time>2025-03-30T13:15:06Z</time>
      </trkpt>
      <trkpt lat="44.62212" lon="1.71832">
        <ele>344.6</ele>
        <time>2025-03-30T13:15:11Z</time>
      </trkpt>
      <trkpt lat="44.62212" lon="1.71824">
        <ele>344.3</ele>
        <time>2025-03-30T13:15:15Z</time>
      </trkpt>
      <trkpt lat="44.62214" lon="1.71817">
        <ele>343.1</ele>
        <time>2025-03-30T13:15:19Z</time>
      </trkpt>
      <trkpt lat="44.62215" lon="1.71811">
        <ele>343.6</ele>
        <time>2025-03-30T13:15:23Z</time>
      </trkpt>
      <trkpt lat="44.62216" lon="1.71804">
        <ele>343.6</ele>
        <time>2025-03-30T13:15:27Z</time>
      </trkpt>
      <trkpt lat="44.62217" lon="1.71797">
        <ele>342.6</ele>
        <time>2025-03-30T13:15:31Z</time>
      </trkpt>
      <trkpt lat="44.62218" lon="1.71791">
        <ele>342</ele>
        <time>2025-03-30T13:15:36Z</time>
      </trkpt>
      <trkpt lat="44.62218" lon="1.71784">
        <ele>343</ele>
        <time>2025-03-30T13:15:39Z</time>
      </trkpt>
      <trkpt lat="44.62219" lon="1.71778">
        <ele>342.1</ele>
        <time>2025-03-30T13:15:43Z</time>
      </trkpt>
      <trkpt lat="44.6222" lon="1.71771">
        <ele>341.6</ele>
        <time>2025-03-30T13:15:47Z</time>
      </trkpt>
      <trkpt lat="44.62221" lon="1.71765">
        <ele>341.9</ele>
        <time>2025-03-30T13:15:51Z</time>
      </trkpt>
      <trkpt lat="44.62223" lon="1.71757">
        <ele>343.3</ele>
        <time>2025-03-30T13:15:56Z</time>
      </trkpt>
      <trkpt lat="44.62223" lon="1.7175">
        <ele>343.5</ele>
        <time>2025-03-30T13:16:00Z</time>
      </trkpt>
      <trkpt lat="44.62224" lon="1.71743">
        <ele>342.4</ele>
        <time>2025-03-30T13:16:04Z</time>
      </trkpt>
      <trkpt lat="44.62225" lon="1.71737">
        <ele>342.1</ele>
        <time>2025-03-30T13:16:08Z</time>
      </trkpt>
      <trkpt lat="44.62226" lon="1.71731">
        <ele>342.3</ele>
        <time>2025-03-30T13:16:12Z</time>
      </trkpt>
      <trkpt lat="44.62227" lon="1.71724">
        <ele>342.6</ele>
        <time>2025-03-30T13:16:16Z</time>
      </trkpt>
      <trkpt lat="44.62228" lon="1.71717">
        <ele>342.2</ele>
        <time>2025-03-30T13:16:20Z</time>
      </trkpt>
      <trkpt lat="44.6223" lon="1.71711">
        <ele>343.5</ele>
        <time>2025-03-30T13:16:24Z</time>
      </trkpt>
      <trkpt lat="44.62232" lon="1.71704">
        <ele>343.5</ele>
        <time>2025-03-30T13:16:28Z</time>
      </trkpt>
      <trkpt lat="44.62233" lon="1.71698">
        <ele>344.1</ele>
        <time>2025-03-30T13:16:32Z</time>
      </trkpt>
      <trkpt lat="44.62235" lon="1.71692">
        <ele>342.7</ele>
        <time>2025-03-30T13:16:36Z</time>
      </trkpt>
      <trkpt lat="44.62237" lon="1.71686">
        <ele>340.8</ele>
        <time>2025-03-30T13:16:40Z</time>
      </trkpt>
      <trkpt lat="44.62238" lon="1.7168">
        <ele>342</ele>
        <time>2025-03-30T13:16:44Z</time>
      </trkpt>
      <trkpt lat="44.6224" lon="1.71673">
        <ele>342.3</ele>
        <time>2025-03-30T13:16:48Z</time>
      </trkpt>
      <trkpt lat="44.6224" lon="1.71667">
        <ele>339.4</ele>
        <time>2025-03-30T13:16:52Z</time>
      </trkpt>
      <trkpt lat="44.62241" lon="1.7166">
        <ele>339.1</ele>
        <time>2025-03-30T13:16:56Z</time>
      </trkpt>
      <trkpt lat="44.62241" lon="1.71653">
        <ele>339.8</ele>
        <time>2025-03-30T13:17:00Z</time>
      </trkpt>
      <trkpt lat="44.62241" lon="1.71646">
        <ele>339.6</ele>
        <time>2025-03-30T13:17:04Z</time>
      </trkpt>
      <trkpt lat="44.62242" lon="1.7164">
        <ele>340.7</ele>
        <time>2025-03-30T13:17:08Z</time>
      </trkpt>
      <trkpt lat="44.62243" lon="1.71633">
        <ele>339.2</ele>
        <time>2025-03-30T13:17:12Z</time>
      </trkpt>
      <trkpt lat="44.62243" lon="1.71626">
        <ele>340.3</ele>
        <time>2025-03-30T13:17:16Z</time>
      </trkpt>
      <trkpt lat="44.62243" lon="1.7162">
        <ele>341.2</ele>
        <time>2025-03-30T13:17:20Z</time>
      </trkpt>
      <trkpt lat="44.62243" lon="1.71613">
        <ele>342.7</ele>
        <time>2025-03-30T13:17:24Z</time>
      </trkpt>
      <trkpt lat="44.62244" lon="1.71607">
        <ele>341.6</ele>
        <time>2025-03-30T13:17:28Z</time>
      </trkpt>
      <trkpt lat="44.62245" lon="1.716">
        <ele>340</ele>
        <time>2025-03-30T13:17:32Z</time>
      </trkpt>
      <trkpt lat="44.62245" lon="1.71593">
        <ele>338.9</ele>
        <time>2025-03-30T13:17:36Z</time>
      </trkpt>
      <trkpt lat="44.62247" lon="1.71587">
        <ele>339</ele>
        <time>2025-03-30T13:17:40Z</time>
      </trkpt>
      <trkpt lat="44.62248" lon="1.7158">
        <ele>338.7</ele>
        <time>2025-03-30T13:17:44Z</time>
      </trkpt>
      <trkpt lat="44.62248" lon="1.71574">
        <ele>339</ele>
        <time>2025-03-30T13:17:48Z</time>
      </trkpt>
      <trkpt lat="44.62247" lon="1.71566">
        <ele>339.3</ele>
        <time>2025-03-30T13:17:52Z</time>
      </trkpt>
      <trkpt lat="44.62248" lon="1.71559">
        <ele>339.5</ele>
        <time>2025-03-30T13:17:56Z</time>
      </trkpt>
      <trkpt lat="44.62249" lon="1.71553">
        <ele>340.9</ele>
        <time>2025-03-30T13:18:00Z</time>
      </trkpt>
      <trkpt lat="44.62249" lon="1.71546">
        <ele>339.7</ele>
        <time>2025-03-30T13:18:04Z</time>
      </trkpt>
      <trkpt lat="44.6225" lon="1.71539">
        <ele>340</ele>
        <time>2025-03-30T13:18:08Z</time>
      </trkpt>
      <trkpt lat="44.6225" lon="1.71533">
        <ele>339.5</ele>
        <time>2025-03-30T13:18:12Z</time>
      </trkpt>
      <trkpt lat="44.62249" lon="1.71527">
        <ele>339.5</ele>
        <time>2025-03-30T13:18:16Z</time>
      </trkpt>
      <trkpt lat="44.62248" lon="1.7152">
        <ele>338.8</ele>
        <time>2025-03-30T13:18:20Z</time>
      </trkpt>
      <trkpt lat="44.62248" lon="1.71513">
        <ele>338.9</ele>
        <time>2025-03-30T13:18:24Z</time>
      </trkpt>
      <trkpt lat="44.62248" lon="1.71506">
        <ele>338</ele>
        <time>2025-03-30T13:18:28Z</time>
      </trkpt>
      <trkpt lat="44.62249" lon="1.71499">
        <ele>338.3</ele>
        <time>2025-03-30T13:18:32Z</time>
      </trkpt>
      <trkpt lat="44.62249" lon="1.71492">
        <ele>337.3</ele>
        <time>2025-03-30T13:18:37Z</time>
      </trkpt>
      <trkpt lat="44.62249" lon="1.71485">
        <ele>337.5</ele>
        <time>2025-03-30T13:18:41Z</time>
      </trkpt>
      <trkpt lat="44.62249" lon="1.71478">
        <ele>336.6</ele>
        <time>2025-03-30T13:18:45Z</time>
      </trkpt>
      <trkpt lat="44.6225" lon="1.71472">
        <ele>336</ele>
        <time>2025-03-30T13:18:49Z</time>
      </trkpt>
      <trkpt lat="44.6225" lon="1.71465">
        <ele>335.1</ele>
        <time>2025-03-30T13:18:53Z</time>
      </trkpt>
      <trkpt lat="44.62251" lon="1.71459">
        <ele>336</ele>
        <time>2025-03-30T13:18:57Z</time>
      </trkpt>
      <trkpt lat="44.6225" lon="1.71452">
        <ele>336.2</ele>
        <time>2025-03-30T13:19:01Z</time>
      </trkpt>
      <trkpt lat="44.6225" lon="1.71444">
        <ele>337.2</ele>
        <time>2025-03-30T13:19:06Z</time>
      </trkpt>
      <trkpt lat="44.6225" lon="1.71438">
        <ele>336.6</ele>
        <time>2025-03-30T13:19:10Z</time>
      </trkpt>
      <trkpt lat="44.6225" lon="1.7143">
        <ele>335.5</ele>
        <time>2025-03-30T13:19:15Z</time>
      </trkpt>
      <trkpt lat="44.6225" lon="1.71423">
        <ele>333</ele>
        <time>2025-03-30T13:19:19Z</time>
      </trkpt>
      <trkpt lat="44.62249" lon="1.71416">
        <ele>333.1</ele>
        <time>2025-03-30T13:19:23Z</time>
      </trkpt>
      <trkpt lat="44.62248" lon="1.7141">
        <ele>334</ele>
        <time>2025-03-30T13:19:27Z</time>
      </trkpt>
      <trkpt lat="44.62247" lon="1.71403">
        <ele>334.2</ele>
        <time>2025-03-30T13:19:31Z</time>
      </trkpt>
      <trkpt lat="44.62247" lon="1.71395">
        <ele>335</ele>
        <time>2025-03-30T13:19:36Z</time>
      </trkpt>
      <trkpt lat="44.62246" lon="1.71389">
        <ele>334.8</ele>
        <time>2025-03-30T13:19:40Z</time>
      </trkpt>
      <trkpt lat="44.62247" lon="1.71382">
        <ele>335.6</ele>
        <time>2025-03-30T13:19:44Z</time>
      </trkpt>
      <trkpt lat="44.62246" lon="1.71374">
        <ele>335.2</ele>
        <time>2025-03-30T13:19:48Z</time>
      </trkpt>
      <trkpt lat="44.62245" lon="1.71368">
        <ele>334.4</ele>
        <time>2025-03-30T13:19:52Z</time>
      </trkpt>
      <trkpt lat="44.62244" lon="1.71361">
        <ele>333.1</ele>
        <time>2025-03-30T13:19:56Z</time>
      </trkpt>
      <trkpt lat="44.62243" lon="1.71355">
        <ele>332.2</ele>
        <time>2025-03-30T13:20:00Z</time>
      </trkpt>
      <trkpt lat="44.62243" lon="1.71349">
        <ele>332.6</ele>
        <time>2025-03-30T13:20:04Z</time>
      </trkpt>
      <trkpt lat="44.62243" lon="1.71341">
        <ele>332.4</ele>
        <time>2025-03-30T13:20:09Z</time>
      </trkpt>
      <trkpt lat="44.62242" lon="1.71335">
        <ele>331.9</ele>
        <time>2025-03-30T13:20:13Z</time>
      </trkpt>
      <trkpt lat="44.62241" lon="1.71328">
        <ele>329.3</ele>
        <time>2025-03-30T13:20:17Z</time>
      </trkpt>
      <trkpt lat="44.6224" lon="1.71321">
        <ele>332.2</ele>
        <time>2025-03-30T13:20:22Z</time>
      </trkpt>
      <trkpt lat="44.62239" lon="1.71315">
        <ele>332.7</ele>
        <time>2025-03-30T13:20:27Z</time>
      </trkpt>
      <trkpt lat="44.62237" lon="1.71307">
        <ele>332.2</ele>
        <time>2025-03-30T13:20:32Z</time>
      </trkpt>
      <trkpt lat="44.62235" lon="1.71301">
        <ele>332.3</ele>
        <time>2025-03-30T13:20:36Z</time>
      </trkpt>
      <trkpt lat="44.62233" lon="1.71295">
        <ele>332.9</ele>
        <time>2025-03-30T13:20:40Z</time>
      </trkpt>
      <trkpt lat="44.6223" lon="1.71289">
        <ele>334.2</ele>
        <time>2025-03-30T13:20:44Z</time>
      </trkpt>
      <trkpt lat="44.62229" lon="1.71282">
        <ele>334.1</ele>
        <time>2025-03-30T13:20:48Z</time>
      </trkpt>
      <trkpt lat="44.62228" lon="1.71276">
        <ele>334.2</ele>
        <time>2025-03-30T13:20:52Z</time>
      </trkpt>
      <trkpt lat="44.62226" lon="1.7127">
        <ele>334.4</ele>
        <time>2025-03-30T13:20:56Z</time>
      </trkpt>
      <trkpt lat="44.62225" lon="1.71263">
        <ele>334.2</ele>
        <time>2025-03-30T13:21:01Z</time>
      </trkpt>
      <trkpt lat="44.62224" lon="1.71256">
        <ele>334.3</ele>
        <time>2025-03-30T13:21:05Z</time>
      </trkpt>
      <trkpt lat="44.62223" lon="1.7125">
        <ele>335.2</ele>
        <time>2025-03-30T13:21:09Z</time>
      </trkpt>
      <trkpt lat="44.62222" lon="1.71243">
        <ele>334.2</ele>
        <time>2025-03-30T13:21:14Z</time>
      </trkpt>
      <trkpt lat="44.62219" lon="1.71236">
        <ele>333.5</ele>
        <time>2025-03-30T13:21:19Z</time>
      </trkpt>
      <trkpt lat="44.62217" lon="1.71231">
        <ele>334.7</ele>
        <time>2025-03-30T13:21:23Z</time>
      </trkpt>
      <trkpt lat="44.62214" lon="1.71225">
        <ele>334</ele>
        <time>2025-03-30T13:21:28Z</time>
      </trkpt>
      <trkpt lat="44.62211" lon="1.71219">
        <ele>333.5</ele>
        <time>2025-03-30T13:21:32Z</time>
      </trkpt>
      <trkpt lat="44.62209" lon="1.71213">
        <ele>334.1</ele>
        <time>2025-03-30T13:21:36Z</time>
      </trkpt>
      <trkpt lat="44.62207" lon="1.71207">
        <ele>335.4</ele>
        <time>2025-03-30T13:21:40Z</time>
      </trkpt>
      <trkpt lat="44.62204" lon="1.71201">
        <ele>335.1</ele>
        <time>2025-03-30T13:21:45Z</time>
      </trkpt>
      <trkpt lat="44.62202" lon="1.71195">
        <ele>335.5</ele>
        <time>2025-03-30T13:21:49Z</time>
      </trkpt>
      <trkpt lat="44.62199" lon="1.7119">
        <ele>336.4</ele>
        <time>2025-03-30T13:21:53Z</time>
      </trkpt>
      <trkpt lat="44.62196" lon="1.71186">
        <ele>337.4</ele>
        <time>2025-03-30T13:21:57Z</time>
      </trkpt>
      <trkpt lat="44.62193" lon="1.7118">
        <ele>338.1</ele>
        <time>2025-03-30T13:22:01Z</time>
      </trkpt>
      <trkpt lat="44.6219" lon="1.71174">
        <ele>335.9</ele>
        <time>2025-03-30T13:22:06Z</time>
      </trkpt>
      <trkpt lat="44.62187" lon="1.71169">
        <ele>335.7</ele>
        <time>2025-03-30T13:22:10Z</time>
      </trkpt>
      <trkpt lat="44.62184" lon="1.71164">
        <ele>335.1</ele>
        <time>2025-03-30T13:22:14Z</time>
      </trkpt>
      <trkpt lat="44.62181" lon="1.71158">
        <ele>336.5</ele>
        <time>2025-03-30T13:22:19Z</time>
      </trkpt>
      <trkpt lat="44.62178" lon="1.71151">
        <ele>338.1</ele>
        <time>2025-03-30T13:22:24Z</time>
      </trkpt>
      <trkpt lat="44.62175" lon="1.71145">
        <ele>338.1</ele>
        <time>2025-03-30T13:22:29Z</time>
      </trkpt>
      <trkpt lat="44.62172" lon="1.71139">
        <ele>338.5</ele>
        <time>2025-03-30T13:22:34Z</time>
      </trkpt>
      <trkpt lat="44.62169" lon="1.71133">
        <ele>340</ele>
        <time>2025-03-30T13:22:38Z</time>
      </trkpt>
      <trkpt lat="44.62167" lon="1.71127">
        <ele>339.9</ele>
        <time>2025-03-30T13:22:43Z</time>
      </trkpt>
      <trkpt lat="44.62165" lon="1.7112">
        <ele>340.9</ele>
        <time>2025-03-30T13:22:48Z</time>
      </trkpt>
      <trkpt lat="44.62164" lon="1.71113">
        <ele>340.6</ele>
        <time>2025-03-30T13:22:52Z</time>
      </trkpt>
      <trkpt lat="44.62163" lon="1.71106">
        <ele>340.5</ele>
        <time>2025-03-30T13:22:57Z</time>
      </trkpt>
      <trkpt lat="44.62162" lon="1.71098">
        <ele>342.2</ele>
        <time>2025-03-30T13:23:02Z</time>
      </trkpt>
      <trkpt lat="44.62161" lon="1.71092">
        <ele>341.7</ele>
        <time>2025-03-30T13:23:06Z</time>
      </trkpt>
      <trkpt lat="44.6216" lon="1.71085">
        <ele>342.1</ele>
        <time>2025-03-30T13:23:10Z</time>
      </trkpt>
      <trkpt lat="44.62161" lon="1.71079">
        <ele>341.1</ele>
        <time>2025-03-30T13:23:14Z</time>
      </trkpt>
      <trkpt lat="44.6216" lon="1.71072">
        <ele>340.4</ele>
        <time>2025-03-30T13:23:19Z</time>
      </trkpt>
      <trkpt lat="44.62159" lon="1.71064">
        <ele>340.9</ele>
        <time>2025-03-30T13:23:24Z</time>
      </trkpt>
      <trkpt lat="44.62157" lon="1.71057">
        <ele>340.1</ele>
        <time>2025-03-30T13:23:29Z</time>
      </trkpt>
      <trkpt lat="44.62156" lon="1.7105">
        <ele>341</ele>
        <time>2025-03-30T13:23:34Z</time>
      </trkpt>
      <trkpt lat="44.62153" lon="1.71043">
        <ele>342.3</ele>
        <time>2025-03-30T13:23:39Z</time>
      </trkpt>
      <trkpt lat="44.62151" lon="1.71037">
        <ele>340.4</ele>
        <time>2025-03-30T13:23:44Z</time>
      </trkpt>
      <trkpt lat="44.62148" lon="1.7103">
        <ele>339.8</ele>
        <time>2025-03-30T13:23:49Z</time>
      </trkpt>
      <trkpt lat="44.62146" lon="1.71023">
        <ele>340</ele>
        <time>2025-03-30T13:23:53Z</time>
      </trkpt>
      <trkpt lat="44.62143" lon="1.71017">
        <ele>340.1</ele>
        <time>2025-03-30T13:23:57Z</time>
      </trkpt>
      <trkpt lat="44.62141" lon="1.71012">
        <ele>339.5</ele>
        <time>2025-03-30T13:24:01Z</time>
      </trkpt>
      <trkpt lat="44.62139" lon="1.71005">
        <ele>340.3</ele>
        <time>2025-03-30T13:24:05Z</time>
      </trkpt>
      <trkpt lat="44.62138" lon="1.70998">
        <ele>339.9</ele>
        <time>2025-03-30T13:24:09Z</time>
      </trkpt>
      <trkpt lat="44.62136" lon="1.70992">
        <ele>341.7</ele>
        <time>2025-03-30T13:24:13Z</time>
      </trkpt>
      <trkpt lat="44.62135" lon="1.70986">
        <ele>341.3</ele>
        <time>2025-03-30T13:24:17Z</time>
      </trkpt>
      <trkpt lat="44.62133" lon="1.70981">
        <ele>341.5</ele>
        <time>2025-03-30T13:24:21Z</time>
      </trkpt>
      <trkpt lat="44.62132" lon="1.70974">
        <ele>341.6</ele>
        <time>2025-03-30T13:24:25Z</time>
      </trkpt>
      <trkpt lat="44.62131" lon="1.70968">
        <ele>341.5</ele>
        <time>2025-03-30T13:24:29Z</time>
      </trkpt>
      <trkpt lat="44.6213" lon="1.70961">
        <ele>341.7</ele>
        <time>2025-03-30T13:24:33Z</time>
      </trkpt>
      <trkpt lat="44.62129" lon="1.70955">
        <ele>342.4</ele>
        <time>2025-03-30T13:24:37Z</time>
      </trkpt>
      <trkpt lat="44.62127" lon="1.70948">
        <ele>342.6</ele>
        <time>2025-03-30T13:24:41Z</time>
      </trkpt>
      <trkpt lat="44.62125" lon="1.70942">
        <ele>343.2</ele>
        <time>2025-03-30T13:24:45Z</time>
      </trkpt>
      <trkpt lat="44.62124" lon="1.70935">
        <ele>340.9</ele>
        <time>2025-03-30T13:24:49Z</time>
      </trkpt>
      <trkpt lat="44.62123" lon="1.70929">
        <ele>341.8</ele>
        <time>2025-03-30T13:24:53Z</time>
      </trkpt>
      <trkpt lat="44.62121" lon="1.70922">
        <ele>340.6</ele>
        <time>2025-03-30T13:24:58Z</time>
      </trkpt>
      <trkpt lat="44.62119" lon="1.70915">
        <ele>341.6</ele>
        <time>2025-03-30T13:25:03Z</time>
      </trkpt>
      <trkpt lat="44.62118" lon="1.70908">
        <ele>342.4</ele>
        <time>2025-03-30T13:25:07Z</time>
      </trkpt>
      <trkpt lat="44.62116" lon="1.70901">
        <ele>344.5</ele>
        <time>2025-03-30T13:25:12Z</time>
      </trkpt>
      <trkpt lat="44.62115" lon="1.70894">
        <ele>345.8</ele>
        <time>2025-03-30T13:25:16Z</time>
      </trkpt>
      <trkpt lat="44.62115" lon="1.70887">
        <ele>345.9</ele>
        <time>2025-03-30T13:25:21Z</time>
      </trkpt>
      <trkpt lat="44.62114" lon="1.70879">
        <ele>345.9</ele>
        <time>2025-03-30T13:25:26Z</time>
      </trkpt>
      <trkpt lat="44.62112" lon="1.70872">
        <ele>345.4</ele>
        <time>2025-03-30T13:25:31Z</time>
      </trkpt>
      <trkpt lat="44.6211" lon="1.70866">
        <ele>346.5</ele>
        <time>2025-03-30T13:25:35Z</time>
      </trkpt>
      <trkpt lat="44.62107" lon="1.70859">
        <ele>347.3</ele>
        <time>2025-03-30T13:25:40Z</time>
      </trkpt>
      <trkpt lat="44.62105" lon="1.70853">
        <ele>347.8</ele>
        <time>2025-03-30T13:25:44Z</time>
      </trkpt>
      <trkpt lat="44.62105" lon="1.70846">
        <ele>347.5</ele>
        <time>2025-03-30T13:25:49Z</time>
      </trkpt>
      <trkpt lat="44.62103" lon="1.7084">
        <ele>346.5</ele>
        <time>2025-03-30T13:25:53Z</time>
      </trkpt>
      <trkpt lat="44.62101" lon="1.70833">
        <ele>347.6</ele>
        <time>2025-03-30T13:25:58Z</time>
      </trkpt>
      <trkpt lat="44.621" lon="1.70826">
        <ele>347.4</ele>
        <time>2025-03-30T13:26:03Z</time>
      </trkpt>
      <trkpt lat="44.62097" lon="1.70819">
        <ele>347.5</ele>
        <time>2025-03-30T13:26:08Z</time>
      </trkpt>
      <trkpt lat="44.62096" lon="1.70812">
        <ele>347.7</ele>
        <time>2025-03-30T13:26:13Z</time>
      </trkpt>
      <trkpt lat="44.62093" lon="1.70806">
        <ele>347.1</ele>
        <time>2025-03-30T13:26:17Z</time>
      </trkpt>
      <trkpt lat="44.62091" lon="1.70799">
        <ele>347.6</ele>
        <time>2025-03-30T13:26:22Z</time>
      </trkpt>
      <trkpt lat="44.62089" lon="1.70792">
        <ele>348.4</ele>
        <time>2025-03-30T13:26:27Z</time>
      </trkpt>
      <trkpt lat="44.62087" lon="1.70785">
        <ele>349.2</ele>
        <time>2025-03-30T13:26:32Z</time>
      </trkpt>
      <trkpt lat="44.62084" lon="1.70779">
        <ele>349</ele>
        <time>2025-03-30T13:26:36Z</time>
      </trkpt>
      <trkpt lat="44.62082" lon="1.70773">
        <ele>346.9</ele>
        <time>2025-03-30T13:26:40Z</time>
      </trkpt>
      <trkpt lat="44.6208" lon="1.70767">
        <ele>346.4</ele>
        <time>2025-03-30T13:26:44Z</time>
      </trkpt>
      <trkpt lat="44.62078" lon="1.70761">
        <ele>344.7</ele>
        <time>2025-03-30T13:26:48Z</time>
      </trkpt>
      <trkpt lat="44.62076" lon="1.70755">
        <ele>346.7</ele>
        <time>2025-03-30T13:26:52Z</time>
      </trkpt>
      <trkpt lat="44.62075" lon="1.70748">
        <ele>347.8</ele>
        <time>2025-03-30T13:26:56Z</time>
      </trkpt>
      <trkpt lat="44.62073" lon="1.70741">
        <ele>349</ele>
        <time>2025-03-30T13:27:00Z</time>
      </trkpt>
      <trkpt lat="44.62071" lon="1.70733">
        <ele>349.3</ele>
        <time>2025-03-30T13:27:05Z</time>
      </trkpt>
      <trkpt lat="44.6207" lon="1.70727">
        <ele>348.2</ele>
        <time>2025-03-30T13:27:09Z</time>
      </trkpt>
      <trkpt lat="44.6207" lon="1.70719">
        <ele>347.9</ele>
        <time>2025-03-30T13:27:14Z</time>
      </trkpt>
      <trkpt lat="44.62069" lon="1.70712">
        <ele>347.7</ele>
        <time>2025-03-30T13:27:19Z</time>
      </trkpt>
      <trkpt lat="44.62067" lon="1.70705">
        <ele>348.4</ele>
        <time>2025-03-30T13:27:24Z</time>
      </trkpt>
      <trkpt lat="44.62066" lon="1.70698">
        <ele>348.7</ele>
        <time>2025-03-30T13:27:28Z</time>
      </trkpt>
      <trkpt lat="44.62065" lon="1.70691">
        <ele>350.6</ele>
        <time>2025-03-30T13:27:32Z</time>
      </trkpt>
      <trkpt lat="44.62064" lon="1.70684">
        <ele>349.3</ele>
        <time>2025-03-30T13:27:36Z</time>
      </trkpt>
      <trkpt lat="44.62064" lon="1.70677">
        <ele>348.9</ele>
        <time>2025-03-30T13:27:40Z</time>
      </trkpt>
      <trkpt lat="44.62064" lon="1.70671">
        <ele>348.6</ele>
        <time>2025-03-30T13:27:44Z</time>
      </trkpt>
      <trkpt lat="44.62063" lon="1.70664">
        <ele>347.2</ele>
        <time>2025-03-30T13:27:48Z</time>
      </trkpt>
      <trkpt lat="44.62063" lon="1.70657">
        <ele>347.7</ele>
        <time>2025-03-30T13:27:52Z</time>
      </trkpt>
      <trkpt lat="44.62063" lon="1.7065">
        <ele>347.1</ele>
        <time>2025-03-30T13:27:56Z</time>
      </trkpt>
      <trkpt lat="44.62063" lon="1.70643">
        <ele>348.2</ele>
        <time>2025-03-30T13:28:00Z</time>
      </trkpt>
      <trkpt lat="44.62064" lon="1.70636">
        <ele>348.3</ele>
        <time>2025-03-30T13:28:04Z</time>
      </trkpt>
      <trkpt lat="44.62065" lon="1.70629">
        <ele>344.4</ele>
        <time>2025-03-30T13:28:09Z</time>
      </trkpt>
      <trkpt lat="44.62064" lon="1.70622">
        <ele>344</ele>
        <time>2025-03-30T13:28:14Z</time>
      </trkpt>
      <trkpt lat="44.62064" lon="1.70615">
        <ele>344</ele>
        <time>2025-03-30T13:28:18Z</time>
      </trkpt>
      <trkpt lat="44.62063" lon="1.70607">
        <ele>342.6</ele>
        <time>2025-03-30T13:28:23Z</time>
      </trkpt>
      <trkpt lat="44.62062" lon="1.706">
        <ele>341.4</ele>
        <time>2025-03-30T13:28:28Z</time>
      </trkpt>
      <trkpt lat="44.62062" lon="1.70593">
        <ele>340</ele>
        <time>2025-03-30T13:28:33Z</time>
      </trkpt>
      <trkpt lat="44.62061" lon="1.70586">
        <ele>340.6</ele>
        <time>2025-03-30T13:28:37Z</time>
      </trkpt>
      <trkpt lat="44.6206" lon="1.70579">
        <ele>339.8</ele>
        <time>2025-03-30T13:28:41Z</time>
      </trkpt>
      <trkpt lat="44.62058" lon="1.70573">
        <ele>340.2</ele>
        <time>2025-03-30T13:28:45Z</time>
      </trkpt>
      <trkpt lat="44.62057" lon="1.70566">
        <ele>338.9</ele>
        <time>2025-03-30T13:28:49Z</time>
      </trkpt>
      <trkpt lat="44.62055" lon="1.7056">
        <ele>340.7</ele>
        <time>2025-03-30T13:28:53Z</time>
      </trkpt>
      <trkpt lat="44.62053" lon="1.70554">
        <ele>342.6</ele>
        <time>2025-03-30T13:28:57Z</time>
      </trkpt>
      <trkpt lat="44.62051" lon="1.70548">
        <ele>343.2</ele>
        <time>2025-03-30T13:29:01Z</time>
      </trkpt>
      <trkpt lat="44.62049" lon="1.70541">
        <ele>341.3</ele>
        <time>2025-03-30T13:29:06Z</time>
      </trkpt>
      <trkpt lat="44.62047" lon="1.70534">
        <ele>341.6</ele>
        <time>2025-03-30T13:29:11Z</time>
      </trkpt>
      <trkpt lat="44.62045" lon="1.70528">
        <ele>341</ele>
        <time>2025-03-30T13:29:15Z</time>
      </trkpt>
      <trkpt lat="44.62042" lon="1.70522">
        <ele>341.2</ele>
        <time>2025-03-30T13:29:19Z</time>
      </trkpt>
      <trkpt lat="44.6204" lon="1.70515">
        <ele>341.9</ele>
        <time>2025-03-30T13:29:24Z</time>
      </trkpt>
      <trkpt lat="44.6204" lon="1.70508">
        <ele>342.9</ele>
        <time>2025-03-30T13:29:29Z</time>
      </trkpt>
      <trkpt lat="44.62042" lon="1.70502">
        <ele>342.2</ele>
        <time>2025-03-30T13:29:43Z</time>
      </trkpt>
      <trkpt lat="44.62043" lon="1.70495">
        <ele>342.2</ele>
        <time>2025-03-30T13:29:47Z</time>
      </trkpt>
      <trkpt lat="44.62043" lon="1.70489">
        <ele>342.5</ele>
        <time>2025-03-30T13:29:51Z</time>
      </trkpt>
      <trkpt lat="44.62044" lon="1.70482">
        <ele>342.8</ele>
        <time>2025-03-30T13:29:55Z</time>
      </trkpt>
      <trkpt lat="44.62046" lon="1.70475">
        <ele>343.1</ele>
        <time>2025-03-30T13:30:00Z</time>
      </trkpt>
      <trkpt lat="44.62047" lon="1.70468">
        <ele>343.9</ele>
        <time>2025-03-30T13:30:04Z</time>
      </trkpt>
      <trkpt lat="44.62051" lon="1.70462">
        <ele>344</ele>
        <time>2025-03-30T13:30:09Z</time>
      </trkpt>
      <trkpt lat="44.62054" lon="1.70457">
        <ele>344.5</ele>
        <time>2025-03-30T13:30:13Z</time>
      </trkpt>
      <trkpt lat="44.62057" lon="1.70452">
        <ele>344.6</ele>
        <time>2025-03-30T13:30:17Z</time>
      </trkpt>
      <trkpt lat="44.62062" lon="1.70449">
        <ele>344.1</ele>
        <time>2025-03-30T13:30:22Z</time>
      </trkpt>
      <trkpt lat="44.62066" lon="1.70444">
        <ele>344.6</ele>
        <time>2025-03-30T13:30:27Z</time>
      </trkpt>
      <trkpt lat="44.62069" lon="1.70438">
        <ele>343.5</ele>
        <time>2025-03-30T13:30:32Z</time>
      </trkpt>
      <trkpt lat="44.62071" lon="1.70432">
        <ele>343.4</ele>
        <time>2025-03-30T13:30:37Z</time>
      </trkpt>
      <trkpt lat="44.62072" lon="1.70426">
        <ele>344.2</ele>
        <time>2025-03-30T13:30:41Z</time>
      </trkpt>
      <trkpt lat="44.62074" lon="1.7042">
        <ele>344.6</ele>
        <time>2025-03-30T13:30:45Z</time>
      </trkpt>
      <trkpt lat="44.62075" lon="1.70413">
        <ele>345.5</ele>
        <time>2025-03-30T13:30:49Z</time>
      </trkpt>
      <trkpt lat="44.62077" lon="1.70405">
        <ele>346</ele>
        <time>2025-03-30T13:30:54Z</time>
      </trkpt>
      <trkpt lat="44.62078" lon="1.70398">
        <ele>346.5</ele>
        <time>2025-03-30T13:30:59Z</time>
      </trkpt>
      <trkpt lat="44.62081" lon="1.70391">
        <ele>346.6</ele>
        <time>2025-03-30T13:31:04Z</time>
      </trkpt>
      <trkpt lat="44.62082" lon="1.70385">
        <ele>347.2</ele>
        <time>2025-03-30T13:31:09Z</time>
      </trkpt>
      <trkpt lat="44.62084" lon="1.70378">
        <ele>348.4</ele>
        <time>2025-03-30T13:31:14Z</time>
      </trkpt>
      <trkpt lat="44.62084" lon="1.70371">
        <ele>348.5</ele>
        <time>2025-03-30T13:31:18Z</time>
      </trkpt>
      <trkpt lat="44.62085" lon="1.70364">
        <ele>350.8</ele>
        <time>2025-03-30T13:31:23Z</time>
      </trkpt>
      <trkpt lat="44.62086" lon="1.70357">
        <ele>349.3</ele>
        <time>2025-03-30T13:31:28Z</time>
      </trkpt>
      <trkpt lat="44.62089" lon="1.70352">
        <ele>349.4</ele>
        <time>2025-03-30T13:31:32Z</time>
      </trkpt>
      <trkpt lat="44.62088" lon="1.70345">
        <ele>352.3</ele>
        <time>2025-03-30T13:35:43Z</time>
      </trkpt>
      <trkpt lat="44.62089" lon="1.70338">
        <ele>353</ele>
        <time>2025-03-30T13:35:48Z</time>
      </trkpt>
      <trkpt lat="44.62091" lon="1.70331">
        <ele>354.3</ele>
        <time>2025-03-30T13:35:53Z</time>
      </trkpt>
      <trkpt lat="44.62091" lon="1.70324">
        <ele>354.6</ele>
        <time>2025-03-30T13:35:58Z</time>
      </trkpt>
      <trkpt lat="44.62092" lon="1.70316">
        <ele>355.1</ele>
        <time>2025-03-30T13:36:03Z</time>
      </trkpt>
      <trkpt lat="44.62093" lon="1.7031">
        <ele>355.5</ele>
        <time>2025-03-30T13:36:08Z</time>
      </trkpt>
      <trkpt lat="44.62095" lon="1.70302">
        <ele>355.6</ele>
        <time>2025-03-30T13:36:13Z</time>
      </trkpt>
      <trkpt lat="44.62096" lon="1.70295">
        <ele>356.8</ele>
        <time>2025-03-30T13:36:18Z</time>
      </trkpt>
      <trkpt lat="44.62097" lon="1.70288">
        <ele>357.1</ele>
        <time>2025-03-30T13:36:23Z</time>
      </trkpt>
      <trkpt lat="44.62098" lon="1.7028">
        <ele>357.2</ele>
        <time>2025-03-30T13:36:28Z</time>
      </trkpt>
      <trkpt lat="44.62099" lon="1.70274">
        <ele>358</ele>
        <time>2025-03-30T13:36:32Z</time>
      </trkpt>
      <trkpt lat="44.62099" lon="1.70266">
        <ele>358.4</ele>
        <time>2025-03-30T13:36:37Z</time>
      </trkpt>
      <trkpt lat="44.62098" lon="1.7026">
        <ele>359.2</ele>
        <time>2025-03-30T13:36:41Z</time>
      </trkpt>
      <trkpt lat="44.62098" lon="1.70252">
        <ele>359.2</ele>
        <time>2025-03-30T13:36:46Z</time>
      </trkpt>
      <trkpt lat="44.62097" lon="1.70244">
        <ele>358.7</ele>
        <time>2025-03-30T13:36:50Z</time>
      </trkpt>
      <trkpt lat="44.62096" lon="1.70237">
        <ele>359.5</ele>
        <time>2025-03-30T13:36:55Z</time>
      </trkpt>
      <trkpt lat="44.62095" lon="1.7023">
        <ele>359.9</ele>
        <time>2025-03-30T13:36:59Z</time>
      </trkpt>
      <trkpt lat="44.62095" lon="1.70222">
        <ele>360.2</ele>
        <time>2025-03-30T13:37:04Z</time>
      </trkpt>
      <trkpt lat="44.62094" lon="1.70216">
        <ele>358.2</ele>
        <time>2025-03-30T13:37:08Z</time>
      </trkpt>
      <trkpt lat="44.62093" lon="1.70208">
        <ele>359.8</ele>
        <time>2025-03-30T13:37:13Z</time>
      </trkpt>
      <trkpt lat="44.62095" lon="1.702">
        <ele>358.2</ele>
        <time>2025-03-30T13:37:17Z</time>
      </trkpt>
      <trkpt lat="44.62095" lon="1.70194">
        <ele>357.9</ele>
        <time>2025-03-30T13:37:20Z</time>
      </trkpt>
      <trkpt lat="44.62097" lon="1.70187">
        <ele>358.4</ele>
        <time>2025-03-30T13:37:24Z</time>
      </trkpt>
      <trkpt lat="44.62098" lon="1.7018">
        <ele>358.9</ele>
        <time>2025-03-30T13:37:28Z</time>
      </trkpt>
      <trkpt lat="44.62098" lon="1.70173">
        <ele>359.3</ele>
        <time>2025-03-30T13:37:32Z</time>
      </trkpt>
      <trkpt lat="44.62099" lon="1.70167">
        <ele>360.8</ele>
        <time>2025-03-30T13:37:36Z</time>
      </trkpt>
      <trkpt lat="44.62099" lon="1.7016">
        <ele>360.9</ele>
        <time>2025-03-30T13:37:40Z</time>
      </trkpt>
      <trkpt lat="44.62099" lon="1.70152">
        <ele>359.8</ele>
        <time>2025-03-30T13:37:45Z</time>
      </trkpt>
      <trkpt lat="44.62099" lon="1.70145">
        <ele>358.9</ele>
        <time>2025-03-30T13:37:49Z</time>
      </trkpt>
      <trkpt lat="44.62099" lon="1.70138">
        <ele>358.8</ele>
        <time>2025-03-30T13:37:53Z</time>
      </trkpt>
      <trkpt lat="44.621" lon="1.7013">
        <ele>358.8</ele>
        <time>2025-03-30T13:37:58Z</time>
      </trkpt>
      <trkpt lat="44.62101" lon="1.70124">
        <ele>358.2</ele>
        <time>2025-03-30T13:38:02Z</time>
      </trkpt>
      <trkpt lat="44.62102" lon="1.70117">
        <ele>358.8</ele>
        <time>2025-03-30T13:38:06Z</time>
      </trkpt>
      <trkpt lat="44.62103" lon="1.70111">
        <ele>358.3</ele>
        <time>2025-03-30T13:38:10Z</time>
      </trkpt>
      <trkpt lat="44.62105" lon="1.70104">
        <ele>358.6</ele>
        <time>2025-03-30T13:38:14Z</time>
      </trkpt>
      <trkpt lat="44.62108" lon="1.70099">
        <ele>359.1</ele>
        <time>2025-03-30T13:38:19Z</time>
      </trkpt>
      <trkpt lat="44.62113" lon="1.701">
        <ele>359.7</ele>
        <time>2025-03-30T13:38:24Z</time>
      </trkpt>
      <trkpt lat="44.62116" lon="1.70105">
        <ele>360.1</ele>
        <time>2025-03-30T13:38:28Z</time>
      </trkpt>
      <trkpt lat="44.62119" lon="1.70111">
        <ele>359.5</ele>
        <time>2025-03-30T13:38:33Z</time>
      </trkpt>
      <trkpt lat="44.62122" lon="1.70117">
        <ele>359.9</ele>
        <time>2025-03-30T13:38:37Z</time>
      </trkpt>
      <trkpt lat="44.62125" lon="1.70123">
        <ele>360.9</ele>
        <time>2025-03-30T13:38:42Z</time>
      </trkpt>
      <trkpt lat="44.62129" lon="1.70129">
        <ele>361</ele>
        <time>2025-03-30T13:38:47Z</time>
      </trkpt>
      <trkpt lat="44.62132" lon="1.70134">
        <ele>361.7</ele>
        <time>2025-03-30T13:38:52Z</time>
      </trkpt>
      <trkpt lat="44.62136" lon="1.7014">
        <ele>362.6</ele>
        <time>2025-03-30T13:39:08Z</time>
      </trkpt>
      <trkpt lat="44.62139" lon="1.70145">
        <ele>364.1</ele>
        <time>2025-03-30T13:39:36Z</time>
      </trkpt>
      <trkpt lat="44.62143" lon="1.70151">
        <ele>364.9</ele>
        <time>2025-03-30T13:39:42Z</time>
      </trkpt>
      <trkpt lat="44.62146" lon="1.70156">
        <ele>365.7</ele>
        <time>2025-03-30T13:39:46Z</time>
      </trkpt>
      <trkpt lat="44.6215" lon="1.70161">
        <ele>366.4</ele>
        <time>2025-03-30T13:39:51Z</time>
      </trkpt>
      <trkpt lat="44.62153" lon="1.70165">
        <ele>366.8</ele>
        <time>2025-03-30T13:39:55Z</time>
      </trkpt>
      <trkpt lat="44.62157" lon="1.70168">
        <ele>367.1</ele>
        <time>2025-03-30T13:39:59Z</time>
      </trkpt>
      <trkpt lat="44.62162" lon="1.70173">
        <ele>367.2</ele>
        <time>2025-03-30T13:40:04Z</time>
      </trkpt>
      <trkpt lat="44.62165" lon="1.70177">
        <ele>367.5</ele>
        <time>2025-03-30T13:40:08Z</time>
      </trkpt>
      <trkpt lat="44.6217" lon="1.70181">
        <ele>368.1</ele>
        <time>2025-03-30T13:40:13Z</time>
      </trkpt>
      <trkpt lat="44.62174" lon="1.70185">
        <ele>368.5</ele>
        <time>2025-03-30T13:40:17Z</time>
      </trkpt>
      <trkpt lat="44.62178" lon="1.70188">
        <ele>368.6</ele>
        <time>2025-03-30T13:40:21Z</time>
      </trkpt>
      <trkpt lat="44.62183" lon="1.70191">
        <ele>368.9</ele>
        <time>2025-03-30T13:40:25Z</time>
      </trkpt>
      <trkpt lat="44.62187" lon="1.70193">
        <ele>369.2</ele>
        <time>2025-03-30T13:40:29Z</time>
      </trkpt>
      <trkpt lat="44.62191" lon="1.70196">
        <ele>369</ele>
        <time>2025-03-30T13:40:33Z</time>
      </trkpt>
      <trkpt lat="44.62196" lon="1.70199">
        <ele>369.3</ele>
        <time>2025-03-30T13:40:37Z</time>
      </trkpt>
      <trkpt lat="44.622" lon="1.70201">
        <ele>369.9</ele>
        <time>2025-03-30T13:40:41Z</time>
      </trkpt>
      <trkpt lat="44.62204" lon="1.70204">
        <ele>370.3</ele>
        <time>2025-03-30T13:40:46Z</time>
      </trkpt>
      <trkpt lat="44.62209" lon="1.70204">
        <ele>369.9</ele>
        <time>2025-03-30T13:40:56Z</time>
      </trkpt>
      <trkpt lat="44.62213" lon="1.70207">
        <ele>370.5</ele>
        <time>2025-03-30T13:41:00Z</time>
      </trkpt>
      <trkpt lat="44.62218" lon="1.70208">
        <ele>370.8</ele>
        <time>2025-03-30T13:41:04Z</time>
      </trkpt>
      <trkpt lat="44.62223" lon="1.7021">
        <ele>371</ele>
        <time>2025-03-30T13:41:08Z</time>
      </trkpt>
      <trkpt lat="44.62228" lon="1.70211">
        <ele>371.4</ele>
        <time>2025-03-30T13:41:20Z</time>
      </trkpt>
      <trkpt lat="44.62232" lon="1.70214">
        <ele>371.1</ele>
        <time>2025-03-30T13:41:24Z</time>
      </trkpt>
      <trkpt lat="44.62238" lon="1.70215">
        <ele>371.3</ele>
        <time>2025-03-30T13:41:28Z</time>
      </trkpt>
      <trkpt lat="44.62243" lon="1.70217">
        <ele>371.4</ele>
        <time>2025-03-30T13:41:32Z</time>
      </trkpt>
      <trkpt lat="44.62248" lon="1.70217">
        <ele>371.4</ele>
        <time>2025-03-30T13:41:36Z</time>
      </trkpt>
      <trkpt lat="44.62253" lon="1.70217">
        <ele>371.7</ele>
        <time>2025-03-30T13:41:41Z</time>
      </trkpt>
      <trkpt lat="44.62258" lon="1.70217">
        <ele>370.8</ele>
        <time>2025-03-30T13:41:59Z</time>
      </trkpt>
      <trkpt lat="44.62263" lon="1.70218">
        <ele>371.1</ele>
        <time>2025-03-30T13:42:03Z</time>
      </trkpt>
      <trkpt lat="44.62268" lon="1.70218">
        <ele>370.3</ele>
        <time>2025-03-30T13:42:07Z</time>
      </trkpt>
      <trkpt lat="44.62273" lon="1.70218">
        <ele>370</ele>
        <time>2025-03-30T13:42:11Z</time>
      </trkpt>
      <trkpt lat="44.62278" lon="1.70219">
        <ele>369.4</ele>
        <time>2025-03-30T13:42:15Z</time>
      </trkpt>
      <trkpt lat="44.62283" lon="1.7022">
        <ele>369.2</ele>
        <time>2025-03-30T13:42:19Z</time>
      </trkpt>
      <trkpt lat="44.62288" lon="1.7022">
        <ele>369.2</ele>
        <time>2025-03-30T13:42:23Z</time>
      </trkpt>
      <trkpt lat="44.62293" lon="1.7022">
        <ele>369.1</ele>
        <time>2025-03-30T13:42:27Z</time>
      </trkpt>
      <trkpt lat="44.62298" lon="1.70221">
        <ele>368.8</ele>
        <time>2025-03-30T13:42:31Z</time>
      </trkpt>
      <trkpt lat="44.62303" lon="1.70221">
        <ele>368.8</ele>
        <time>2025-03-30T13:42:35Z</time>
      </trkpt>
      <trkpt lat="44.62308" lon="1.70222">
        <ele>368.2</ele>
        <time>2025-03-30T13:42:39Z</time>
      </trkpt>
      <trkpt lat="44.62313" lon="1.70222">
        <ele>367.4</ele>
        <time>2025-03-30T13:42:43Z</time>
      </trkpt>
      <trkpt lat="44.62318" lon="1.70223">
        <ele>366.3</ele>
        <time>2025-03-30T13:42:47Z</time>
      </trkpt>
      <trkpt lat="44.62323" lon="1.70223">
        <ele>365.9</ele>
        <time>2025-03-30T13:42:51Z</time>
      </trkpt>
      <trkpt lat="44.62328" lon="1.70225">
        <ele>365.1</ele>
        <time>2025-03-30T13:42:55Z</time>
      </trkpt>
      <trkpt lat="44.62334" lon="1.70225">
        <ele>364.6</ele>
        <time>2025-03-30T13:42:59Z</time>
      </trkpt>
      <trkpt lat="44.62339" lon="1.70225">
        <ele>364</ele>
        <time>2025-03-30T13:43:03Z</time>
      </trkpt>
      <trkpt lat="44.62344" lon="1.70226">
        <ele>364.1</ele>
        <time>2025-03-30T13:43:07Z</time>
      </trkpt>
      <trkpt lat="44.62349" lon="1.70226">
        <ele>363.8</ele>
        <time>2025-03-30T13:43:11Z</time>
      </trkpt>
      <trkpt lat="44.62354" lon="1.70227">
        <ele>364.3</ele>
        <time>2025-03-30T13:43:15Z</time>
      </trkpt>
      <trkpt lat="44.62359" lon="1.70228">
        <ele>364.4</ele>
        <time>2025-03-30T13:43:19Z</time>
      </trkpt>
      <trkpt lat="44.62363" lon="1.70229">
        <ele>365.3</ele>
        <time>2025-03-30T13:43:25Z</time>
      </trkpt>
      <trkpt lat="44.62369" lon="1.7023">
        <ele>365</ele>
        <time>2025-03-30T13:43:29Z</time>
      </trkpt>
      <trkpt lat="44.62374" lon="1.7023">
        <ele>364.7</ele>
        <time>2025-03-30T13:43:33Z</time>
      </trkpt>
      <trkpt lat="44.62378" lon="1.70231">
        <ele>364.7</ele>
        <time>2025-03-30T13:43:37Z</time>
      </trkpt>
      <trkpt lat="44.62383" lon="1.70232">
        <ele>364.4</ele>
        <time>2025-03-30T13:43:41Z</time>
      </trkpt>
      <trkpt lat="44.62389" lon="1.70231">
        <ele>364.2</ele>
        <time>2025-03-30T13:43:45Z</time>
      </trkpt>
      <trkpt lat="44.62393" lon="1.70232">
        <ele>364.6</ele>
        <time>2025-03-30T13:43:49Z</time>
      </trkpt>
      <trkpt lat="44.62398" lon="1.70233">
        <ele>364.3</ele>
        <time>2025-03-30T13:43:53Z</time>
      </trkpt>
      <trkpt lat="44.62403" lon="1.70234">
        <ele>364.2</ele>
        <time>2025-03-30T13:43:57Z</time>
      </trkpt>
      <trkpt lat="44.62408" lon="1.70235">
        <ele>363.7</ele>
        <time>2025-03-30T13:44:01Z</time>
      </trkpt>
      <trkpt lat="44.62413" lon="1.70236">
        <ele>363.9</ele>
        <time>2025-03-30T13:44:05Z</time>
      </trkpt>
      <trkpt lat="44.62418" lon="1.70236">
        <ele>364</ele>
        <time>2025-03-30T13:44:09Z</time>
      </trkpt>
      <trkpt lat="44.62423" lon="1.70237">
        <ele>363.6</ele>
        <time>2025-03-30T13:44:13Z</time>
      </trkpt>
      <trkpt lat="44.62428" lon="1.70237">
        <ele>363.8</ele>
        <time>2025-03-30T13:44:17Z</time>
      </trkpt>
      <trkpt lat="44.62433" lon="1.70238">
        <ele>362.9</ele>
        <time>2025-03-30T13:44:21Z</time>
      </trkpt>
      <trkpt lat="44.62438" lon="1.70239">
        <ele>363.4</ele>
        <time>2025-03-30T13:44:25Z</time>
      </trkpt>
      <trkpt lat="44.62443" lon="1.7024">
        <ele>363.3</ele>
        <time>2025-03-30T13:44:29Z</time>
      </trkpt>
      <trkpt lat="44.62447" lon="1.7024">
        <ele>364.1</ele>
        <time>2025-03-30T13:44:33Z</time>
      </trkpt>
      <trkpt lat="44.62452" lon="1.7024">
        <ele>364.3</ele>
        <time>2025-03-30T13:44:37Z</time>
      </trkpt>
      <trkpt lat="44.62457" lon="1.70241">
        <ele>365</ele>
        <time>2025-03-30T13:44:41Z</time>
      </trkpt>
      <trkpt lat="44.62462" lon="1.70242">
        <ele>365</ele>
        <time>2025-03-30T13:44:45Z</time>
      </trkpt>
      <trkpt lat="44.62467" lon="1.70243">
        <ele>365.5</ele>
        <time>2025-03-30T13:44:49Z</time>
      </trkpt>
      <trkpt lat="44.62472" lon="1.70243">
        <ele>365.5</ele>
        <time>2025-03-30T13:44:53Z</time>
      </trkpt>
      <trkpt lat="44.62477" lon="1.70243">
        <ele>365.2</ele>
        <time>2025-03-30T13:44:57Z</time>
      </trkpt>
      <trkpt lat="44.62483" lon="1.70244">
        <ele>365.9</ele>
        <time>2025-03-30T13:45:02Z</time>
      </trkpt>
      <trkpt lat="44.62488" lon="1.70245">
        <ele>366.4</ele>
        <time>2025-03-30T13:45:07Z</time>
      </trkpt>
      <trkpt lat="44.62493" lon="1.70245">
        <ele>366.1</ele>
        <time>2025-03-30T13:45:11Z</time>
      </trkpt>
      <trkpt lat="44.62498" lon="1.70247">
        <ele>366.2</ele>
        <time>2025-03-30T13:45:15Z</time>
      </trkpt>
      <trkpt lat="44.62503" lon="1.70247">
        <ele>366.3</ele>
        <time>2025-03-30T13:45:19Z</time>
      </trkpt>
      <trkpt lat="44.62508" lon="1.7025">
        <ele>366.1</ele>
        <time>2025-03-30T13:45:24Z</time>
      </trkpt>
      <trkpt lat="44.62513" lon="1.70251">
        <ele>366.6</ele>
        <time>2025-03-30T13:45:29Z</time>
      </trkpt>
      <trkpt lat="44.62518" lon="1.70252">
        <ele>366.7</ele>
        <time>2025-03-30T13:45:34Z</time>
      </trkpt>
      <trkpt lat="44.62523" lon="1.70251">
        <ele>367</ele>
        <time>2025-03-30T13:45:38Z</time>
      </trkpt>
      <trkpt lat="44.62529" lon="1.7025">
        <ele>366.9</ele>
        <time>2025-03-30T13:45:43Z</time>
      </trkpt>
      <trkpt lat="44.62534" lon="1.70251">
        <ele>366.3</ele>
        <time>2025-03-30T13:45:47Z</time>
      </trkpt>
      <trkpt lat="44.62538" lon="1.70251">
        <ele>366.7</ele>
        <time>2025-03-30T13:45:51Z</time>
      </trkpt>
      <trkpt lat="44.62543" lon="1.70251">
        <ele>367</ele>
        <time>2025-03-30T13:45:55Z</time>
      </trkpt>
      <trkpt lat="44.62548" lon="1.70253">
        <ele>366.8</ele>
        <time>2025-03-30T13:45:59Z</time>
      </trkpt>
      <trkpt lat="44.62553" lon="1.70253">
        <ele>366.4</ele>
        <time>2025-03-30T13:46:04Z</time>
      </trkpt>
      <trkpt lat="44.62558" lon="1.70254">
        <ele>366.3</ele>
        <time>2025-03-30T13:46:08Z</time>
      </trkpt>
      <trkpt lat="44.62563" lon="1.70257">
        <ele>366.6</ele>
        <time>2025-03-30T13:46:13Z</time>
      </trkpt>
      <trkpt lat="44.62568" lon="1.70261">
        <ele>366.7</ele>
        <time>2025-03-30T13:46:18Z</time>
      </trkpt>
      <trkpt lat="44.62572" lon="1.70265">
        <ele>367</ele>
        <time>2025-03-30T13:46:24Z</time>
      </trkpt>
      <trkpt lat="44.62571" lon="1.70272">
        <ele>368</ele>
        <time>2025-03-30T13:46:30Z</time>
      </trkpt>
      <trkpt lat="44.62571" lon="1.70279">
        <ele>369.7</ele>
        <time>2025-03-30T13:46:36Z</time>
      </trkpt>
      <trkpt lat="44.62572" lon="1.70285">
        <ele>369.4</ele>
        <time>2025-03-30T13:46:41Z</time>
      </trkpt>
      <trkpt lat="44.62574" lon="1.70291">
        <ele>367.6</ele>
        <time>2025-03-30T13:46:46Z</time>
      </trkpt>
      <trkpt lat="44.62576" lon="1.70299">
        <ele>366.2</ele>
        <time>2025-03-30T13:46:51Z</time>
      </trkpt>
      <trkpt lat="44.62579" lon="1.70305">
        <ele>366.1</ele>
        <time>2025-03-30T13:46:55Z</time>
      </trkpt>
      <trkpt lat="44.6258" lon="1.70311">
        <ele>365.8</ele>
        <time>2025-03-30T13:46:59Z</time>
      </trkpt>
      <trkpt lat="44.62583" lon="1.70317">
        <ele>365.3</ele>
        <time>2025-03-30T13:47:03Z</time>
      </trkpt>
      <trkpt lat="44.62585" lon="1.70323">
        <ele>363.9</ele>
        <time>2025-03-30T13:47:07Z</time>
      </trkpt>
      <trkpt lat="44.62586" lon="1.70329">
        <ele>363.4</ele>
        <time>2025-03-30T13:47:11Z</time>
      </trkpt>
      <trkpt lat="44.62589" lon="1.70335">
        <ele>362.5</ele>
        <time>2025-03-30T13:47:16Z</time>
      </trkpt>
      <trkpt lat="44.6259" lon="1.70342">
        <ele>362.2</ele>
        <time>2025-03-30T13:47:20Z</time>
      </trkpt>
      <trkpt lat="44.62592" lon="1.70348">
        <ele>361.4</ele>
        <time>2025-03-30T13:47:24Z</time>
      </trkpt>
      <trkpt lat="44.62594" lon="1.70354">
        <ele>361.2</ele>
        <time>2025-03-30T13:47:28Z</time>
      </trkpt>
      <trkpt lat="44.62596" lon="1.70361">
        <ele>361.2</ele>
        <time>2025-03-30T13:47:32Z</time>
      </trkpt>
      <trkpt lat="44.62598" lon="1.70367">
        <ele>363.5</ele>
        <time>2025-03-30T13:47:35Z</time>
      </trkpt>
      <trkpt lat="44.62599" lon="1.70374">
        <ele>362.6</ele>
        <time>2025-03-30T13:48:15Z</time>
      </trkpt>
      <trkpt lat="44.62601" lon="1.7038">
        <ele>360.9</ele>
        <time>2025-03-30T13:48:19Z</time>
      </trkpt>
      <trkpt lat="44.62602" lon="1.70387">
        <ele>360.1</ele>
        <time>2025-03-30T13:48:24Z</time>
      </trkpt>
      <trkpt lat="44.62604" lon="1.70393">
        <ele>359.9</ele>
        <time>2025-03-30T13:48:28Z</time>
      </trkpt>
      <trkpt lat="44.62606" lon="1.704">
        <ele>359.4</ele>
        <time>2025-03-30T13:48:32Z</time>
      </trkpt>
      <trkpt lat="44.62609" lon="1.70406">
        <ele>358.2</ele>
        <time>2025-03-30T13:48:36Z</time>
      </trkpt>
      <trkpt lat="44.62611" lon="1.70412">
        <ele>357.5</ele>
        <time>2025-03-30T13:48:40Z</time>
      </trkpt>
      <trkpt lat="44.62613" lon="1.70417">
        <ele>357.1</ele>
        <time>2025-03-30T13:48:44Z</time>
      </trkpt>
      <trkpt lat="44.62615" lon="1.70423">
        <ele>356.7</ele>
        <time>2025-03-30T13:48:48Z</time>
      </trkpt>
      <trkpt lat="44.62619" lon="1.70429">
        <ele>356.7</ele>
        <time>2025-03-30T13:48:53Z</time>
      </trkpt>
      <trkpt lat="44.62622" lon="1.70435">
        <ele>354.5</ele>
        <time>2025-03-30T13:49:13Z</time>
      </trkpt>
      <trkpt lat="44.62624" lon="1.70441">
        <ele>354.3</ele>
        <time>2025-03-30T13:49:17Z</time>
      </trkpt>
      <trkpt lat="44.62625" lon="1.70447">
        <ele>353.7</ele>
        <time>2025-03-30T13:49:21Z</time>
      </trkpt>
      <trkpt lat="44.62627" lon="1.70453">
        <ele>353.1</ele>
        <time>2025-03-30T13:49:25Z</time>
      </trkpt>
      <trkpt lat="44.62628" lon="1.70459">
        <ele>352.5</ele>
        <time>2025-03-30T13:49:29Z</time>
      </trkpt>
      <trkpt lat="44.6263" lon="1.70465">
        <ele>352.2</ele>
        <time>2025-03-30T13:49:33Z</time>
      </trkpt>
      <trkpt lat="44.62632" lon="1.70471">
        <ele>352.2</ele>
        <time>2025-03-30T13:49:37Z</time>
      </trkpt>
      <trkpt lat="44.62634" lon="1.70478">
        <ele>352.3</ele>
        <time>2025-03-30T13:49:41Z</time>
      </trkpt>
      <trkpt lat="44.62636" lon="1.70485">
        <ele>352.1</ele>
        <time>2025-03-30T13:49:45Z</time>
      </trkpt>
      <trkpt lat="44.62636" lon="1.70492">
        <ele>352.3</ele>
        <time>2025-03-30T13:49:49Z</time>
      </trkpt>
      <trkpt lat="44.62637" lon="1.70499">
        <ele>351.3</ele>
        <time>2025-03-30T13:49:53Z</time>
      </trkpt>
      <trkpt lat="44.62638" lon="1.70506">
        <ele>351.1</ele>
        <time>2025-03-30T13:49:57Z</time>
      </trkpt>
      <trkpt lat="44.62639" lon="1.70512">
        <ele>350.7</ele>
        <time>2025-03-30T13:50:01Z</time>
      </trkpt>
      <trkpt lat="44.6264" lon="1.70518">
        <ele>351.2</ele>
        <time>2025-03-30T13:50:05Z</time>
      </trkpt>
      <trkpt lat="44.62641" lon="1.70524">
        <ele>352.5</ele>
        <time>2025-03-30T13:50:15Z</time>
      </trkpt>
      <trkpt lat="44.62643" lon="1.70531">
        <ele>353.1</ele>
        <time>2025-03-30T13:50:21Z</time>
      </trkpt>
      <trkpt lat="44.62645" lon="1.70537">
        <ele>353.8</ele>
        <time>2025-03-30T13:50:25Z</time>
      </trkpt>
      <trkpt lat="44.62648" lon="1.70544">
        <ele>353.1</ele>
        <time>2025-03-30T13:50:31Z</time>
      </trkpt>
      <trkpt lat="44.62651" lon="1.70549">
        <ele>354.1</ele>
        <time>2025-03-30T13:50:36Z</time>
      </trkpt>
      <trkpt lat="44.62653" lon="1.70555">
        <ele>353.2</ele>
        <time>2025-03-30T13:52:40Z</time>
      </trkpt>
      <trkpt lat="44.62657" lon="1.7056">
        <ele>353</ele>
        <time>2025-03-30T13:52:45Z</time>
      </trkpt>
      <trkpt lat="44.62661" lon="1.70565">
        <ele>352.4</ele>
        <time>2025-03-30T13:52:51Z</time>
      </trkpt>
      <trkpt lat="44.62665" lon="1.70568">
        <ele>352.2</ele>
        <time>2025-03-30T13:52:57Z</time>
      </trkpt>
      <trkpt lat="44.62669" lon="1.70573">
        <ele>352.9</ele>
        <time>2025-03-30T13:53:03Z</time>
      </trkpt>
      <trkpt lat="44.62673" lon="1.70578">
        <ele>352.6</ele>
        <time>2025-03-30T13:53:09Z</time>
      </trkpt>
      <trkpt lat="44.62677" lon="1.70582">
        <ele>352.9</ele>
        <time>2025-03-30T13:53:14Z</time>
      </trkpt>
      <trkpt lat="44.62681" lon="1.70586">
        <ele>352.7</ele>
        <time>2025-03-30T13:53:19Z</time>
      </trkpt>
      <trkpt lat="44.62684" lon="1.7059">
        <ele>352.8</ele>
        <time>2025-03-30T13:53:36Z</time>
      </trkpt>
      <trkpt lat="44.62688" lon="1.70596">
        <ele>352.5</ele>
        <time>2025-03-30T13:53:41Z</time>
      </trkpt>
      <trkpt lat="44.62692" lon="1.70601">
        <ele>352.6</ele>
        <time>2025-03-30T13:53:46Z</time>
      </trkpt>
      <trkpt lat="44.62696" lon="1.70605">
        <ele>351</ele>
        <time>2025-03-30T13:53:50Z</time>
      </trkpt>
      <trkpt lat="44.627" lon="1.7061">
        <ele>351.2</ele>
        <time>2025-03-30T13:53:55Z</time>
      </trkpt>
      <trkpt lat="44.62704" lon="1.70615">
        <ele>351.6</ele>
        <time>2025-03-30T13:54:00Z</time>
      </trkpt>
      <trkpt lat="44.62707" lon="1.7062">
        <ele>350.7</ele>
        <time>2025-03-30T13:54:04Z</time>
      </trkpt>
      <trkpt lat="44.62709" lon="1.70625">
        <ele>350.7</ele>
        <time>2025-03-30T13:54:08Z</time>
      </trkpt>
      <trkpt lat="44.6271" lon="1.70631">
        <ele>350</ele>
        <time>2025-03-30T13:54:12Z</time>
      </trkpt>
      <trkpt lat="44.62712" lon="1.70638">
        <ele>349.3</ele>
        <time>2025-03-30T13:54:16Z</time>
      </trkpt>
      <trkpt lat="44.62713" lon="1.70645">
        <ele>349.7</ele>
        <time>2025-03-30T13:54:21Z</time>
      </trkpt>
      <trkpt lat="44.62713" lon="1.70652">
        <ele>350.4</ele>
        <time>2025-03-30T13:54:25Z</time>
      </trkpt>
      <trkpt lat="44.62714" lon="1.70659">
        <ele>351.9</ele>
        <time>2025-03-30T13:54:30Z</time>
      </trkpt>
      <trkpt lat="44.62716" lon="1.70666">
        <ele>353.2</ele>
        <time>2025-03-30T13:54:35Z</time>
      </trkpt>
      <trkpt lat="44.62718" lon="1.70672">
        <ele>352.4</ele>
        <time>2025-03-30T13:54:40Z</time>
      </trkpt>
      <trkpt lat="44.62722" lon="1.70677">
        <ele>352.4</ele>
        <time>2025-03-30T13:54:44Z</time>
      </trkpt>
      <trkpt lat="44.62725" lon="1.70681">
        <ele>353</ele>
        <time>2025-03-30T13:54:48Z</time>
      </trkpt>
      <trkpt lat="44.62728" lon="1.70685">
        <ele>352.7</ele>
        <time>2025-03-30T13:54:52Z</time>
      </trkpt>
      <trkpt lat="44.62732" lon="1.70689">
        <ele>352.3</ele>
        <time>2025-03-30T13:54:56Z</time>
      </trkpt>
      <trkpt lat="44.62736" lon="1.70692">
        <ele>352.7</ele>
        <time>2025-03-30T13:55:00Z</time>
      </trkpt>
      <trkpt lat="44.6274" lon="1.70695">
        <ele>353.3</ele>
        <time>2025-03-30T13:55:04Z</time>
      </trkpt>
      <trkpt lat="44.62744" lon="1.70699">
        <ele>353.2</ele>
        <time>2025-03-30T13:55:08Z</time>
      </trkpt>
      <trkpt lat="44.62748" lon="1.70703">
        <ele>353.3</ele>
        <time>2025-03-30T13:55:12Z</time>
      </trkpt>
      <trkpt lat="44.62752" lon="1.70707">
        <ele>352.5</ele>
        <time>2025-03-30T13:55:17Z</time>
      </trkpt>
      <trkpt lat="44.62756" lon="1.70713">
        <ele>351.5</ele>
        <time>2025-03-30T13:55:22Z</time>
      </trkpt>
      <trkpt lat="44.6276" lon="1.70719">
        <ele>350.5</ele>
        <time>2025-03-30T13:55:27Z</time>
      </trkpt>
      <trkpt lat="44.62763" lon="1.70724">
        <ele>350.3</ele>
        <time>2025-03-30T13:55:32Z</time>
      </trkpt>
      <trkpt lat="44.62766" lon="1.7073">
        <ele>351.4</ele>
        <time>2025-03-30T13:55:37Z</time>
      </trkpt>
      <trkpt lat="44.62768" lon="1.70737">
        <ele>352</ele>
        <time>2025-03-30T13:55:42Z</time>
      </trkpt>
      <trkpt lat="44.62769" lon="1.70744">
        <ele>351.8</ele>
        <time>2025-03-30T13:55:47Z</time>
      </trkpt>
      <trkpt lat="44.6277" lon="1.70751">
        <ele>352.5</ele>
        <time>2025-03-30T13:56:09Z</time>
      </trkpt>
      <trkpt lat="44.62771" lon="1.70757">
        <ele>352.4</ele>
        <time>2025-03-30T13:56:13Z</time>
      </trkpt>
      <trkpt lat="44.62773" lon="1.70763">
        <ele>351.5</ele>
        <time>2025-03-30T13:56:17Z</time>
      </trkpt>
      <trkpt lat="44.62775" lon="1.7077">
        <ele>350.8</ele>
        <time>2025-03-30T13:56:22Z</time>
      </trkpt>
      <trkpt lat="44.62777" lon="1.70776">
        <ele>350.4</ele>
        <time>2025-03-30T13:56:27Z</time>
      </trkpt>
      <trkpt lat="44.62779" lon="1.70783">
        <ele>350.6</ele>
        <time>2025-03-30T13:56:32Z</time>
      </trkpt>
      <trkpt lat="44.6278" lon="1.7079">
        <ele>350.6</ele>
        <time>2025-03-30T13:56:37Z</time>
      </trkpt>
      <trkpt lat="44.62782" lon="1.70797">
        <ele>351.2</ele>
        <time>2025-03-30T13:56:42Z</time>
      </trkpt>
      <trkpt lat="44.62783" lon="1.70804">
        <ele>350.5</ele>
        <time>2025-03-30T13:56:46Z</time>
      </trkpt>
      <trkpt lat="44.62784" lon="1.70811">
        <ele>351.9</ele>
        <time>2025-03-30T13:56:51Z</time>
      </trkpt>
      <trkpt lat="44.62786" lon="1.70817">
        <ele>350.9</ele>
        <time>2025-03-30T13:56:55Z</time>
      </trkpt>
      <trkpt lat="44.62788" lon="1.70824">
        <ele>350.9</ele>
        <time>2025-03-30T13:57:00Z</time>
      </trkpt>
      <trkpt lat="44.62791" lon="1.70831">
        <ele>349.4</ele>
        <time>2025-03-30T13:57:05Z</time>
      </trkpt>
      <trkpt lat="44.62793" lon="1.70837">
        <ele>348.4</ele>
        <time>2025-03-30T13:57:09Z</time>
      </trkpt>
      <trkpt lat="44.62796" lon="1.70843">
        <ele>347.1</ele>
        <time>2025-03-30T13:57:13Z</time>
      </trkpt>
      <trkpt lat="44.62799" lon="1.70849">
        <ele>346.5</ele>
        <time>2025-03-30T13:57:18Z</time>
      </trkpt>
      <trkpt lat="44.62801" lon="1.70855">
        <ele>347.1</ele>
        <time>2025-03-30T13:57:22Z</time>
      </trkpt>
      <trkpt lat="44.62804" lon="1.7086">
        <ele>346.6</ele>
        <time>2025-03-30T13:57:26Z</time>
      </trkpt>
      <trkpt lat="44.62806" lon="1.70866">
        <ele>346.3</ele>
        <time>2025-03-30T13:57:30Z</time>
      </trkpt>
      <trkpt lat="44.62809" lon="1.70871">
        <ele>346.3</ele>
        <time>2025-03-30T13:57:34Z</time>
      </trkpt>
      <trkpt lat="44.62813" lon="1.70877">
        <ele>346.6</ele>
        <time>2025-03-30T13:57:39Z</time>
      </trkpt>
      <trkpt lat="44.62816" lon="1.70882">
        <ele>346.7</ele>
        <time>2025-03-30T13:57:44Z</time>
      </trkpt>
      <trkpt lat="44.6282" lon="1.70888">
        <ele>348</ele>
        <time>2025-03-30T13:57:49Z</time>
      </trkpt>
      <trkpt lat="44.62824" lon="1.70892">
        <ele>348.1</ele>
        <time>2025-03-30T13:57:54Z</time>
      </trkpt>
      <trkpt lat="44.62827" lon="1.70898">
        <ele>347.6</ele>
        <time>2025-03-30T13:57:58Z</time>
      </trkpt>
      <trkpt lat="44.62831" lon="1.70903">
        <ele>347.9</ele>
        <time>2025-03-30T13:58:03Z</time>
      </trkpt>
      <trkpt lat="44.62835" lon="1.70909">
        <ele>348.7</ele>
        <time>2025-03-30T13:58:08Z</time>
      </trkpt>
      <trkpt lat="44.62838" lon="1.70915">
        <ele>349.2</ele>
        <time>2025-03-30T13:58:13Z</time>
      </trkpt>
      <trkpt lat="44.62841" lon="1.70921">
        <ele>350.5</ele>
        <time>2025-03-30T13:58:18Z</time>
      </trkpt>
      <trkpt lat="44.62845" lon="1.70927">
        <ele>350.4</ele>
        <time>2025-03-30T13:58:23Z</time>
      </trkpt>
      <trkpt lat="44.62848" lon="1.70933">
        <ele>350.2</ele>
        <time>2025-03-30T13:58:28Z</time>
      </trkpt>
      <trkpt lat="44.62852" lon="1.70937">
        <ele>350.9</ele>
        <time>2025-03-30T13:58:33Z</time>
      </trkpt>
      <trkpt lat="44.62856" lon="1.70943">
        <ele>353.5</ele>
        <time>2025-03-30T13:58:38Z</time>
      </trkpt>
      <trkpt lat="44.62861" lon="1.70947">
        <ele>352</ele>
        <time>2025-03-30T13:58:42Z</time>
      </trkpt>
      <trkpt lat="44.62864" lon="1.70951">
        <ele>351.5</ele>
        <time>2025-03-30T13:58:46Z</time>
      </trkpt>
      <trkpt lat="44.62868" lon="1.70955">
        <ele>350.1</ele>
        <time>2025-03-30T13:58:50Z</time>
      </trkpt>
      <trkpt lat="44.62872" lon="1.70961">
        <ele>350.2</ele>
        <time>2025-03-30T13:58:55Z</time>
      </trkpt>
      <trkpt lat="44.62876" lon="1.70965">
        <ele>349.4</ele>
        <time>2025-03-30T13:58:59Z</time>
      </trkpt>
      <trkpt lat="44.6288" lon="1.70969">
        <ele>349.2</ele>
        <time>2025-03-30T13:59:03Z</time>
      </trkpt>
      <trkpt lat="44.62884" lon="1.70972">
        <ele>350.9</ele>
        <time>2025-03-30T13:59:08Z</time>
      </trkpt>
      <trkpt lat="44.62889" lon="1.70974">
        <ele>352.9</ele>
        <time>2025-03-30T13:59:24Z</time>
      </trkpt>
      <trkpt lat="44.62893" lon="1.70975">
        <ele>352.7</ele>
        <time>2025-03-30T13:59:46Z</time>
      </trkpt>
      <trkpt lat="44.62899" lon="1.70973">
        <ele>351.8</ele>
        <time>2025-03-30T14:00:18Z</time>
      </trkpt>
      <trkpt lat="44.62903" lon="1.70972">
        <ele>352.7</ele>
        <time>2025-03-30T14:00:23Z</time>
      </trkpt>
      <trkpt lat="44.62909" lon="1.70971">
        <ele>353.5</ele>
        <time>2025-03-30T14:00:28Z</time>
      </trkpt>
      <trkpt lat="44.62914" lon="1.7097">
        <ele>353.5</ele>
        <time>2025-03-30T14:00:33Z</time>
      </trkpt>
      <trkpt lat="44.62919" lon="1.70967">
        <ele>354.7</ele>
        <time>2025-03-30T14:00:38Z</time>
      </trkpt>
      <trkpt lat="44.62924" lon="1.70967">
        <ele>354.6</ele>
        <time>2025-03-30T14:00:43Z</time>
      </trkpt>
      <trkpt lat="44.62929" lon="1.70967">
        <ele>353.7</ele>
        <time>2025-03-30T14:00:47Z</time>
      </trkpt>
      <trkpt lat="44.62934" lon="1.70968">
        <ele>353.9</ele>
        <time>2025-03-30T14:00:51Z</time>
      </trkpt>
      <trkpt lat="44.62938" lon="1.70972">
        <ele>353</ele>
        <time>2025-03-30T14:00:55Z</time>
      </trkpt>
      <trkpt lat="44.62942" lon="1.70978">
        <ele>352.8</ele>
        <time>2025-03-30T14:00:59Z</time>
      </trkpt>
      <trkpt lat="44.62944" lon="1.70986">
        <ele>353.5</ele>
        <time>2025-03-30T14:01:03Z</time>
      </trkpt>
      <trkpt lat="44.62947" lon="1.70992">
        <ele>353.6</ele>
        <time>2025-03-30T14:01:07Z</time>
      </trkpt>
      <trkpt lat="44.62949" lon="1.70999">
        <ele>354.8</ele>
        <time>2025-03-30T14:01:12Z</time>
      </trkpt>
      <trkpt lat="44.6295" lon="1.71005">
        <ele>355.8</ele>
        <time>2025-03-30T14:01:16Z</time>
      </trkpt>
      <trkpt lat="44.62952" lon="1.71011">
        <ele>355.2</ele>
        <time>2025-03-30T14:01:20Z</time>
      </trkpt>
      <trkpt lat="44.62953" lon="1.71018">
        <ele>355.3</ele>
        <time>2025-03-30T14:01:25Z</time>
      </trkpt>
      <trkpt lat="44.62956" lon="1.71025">
        <ele>356</ele>
        <time>2025-03-30T14:01:30Z</time>
      </trkpt>
      <trkpt lat="44.62959" lon="1.71031">
        <ele>357.4</ele>
        <time>2025-03-30T14:01:35Z</time>
      </trkpt>
      <trkpt lat="44.62961" lon="1.71038">
        <ele>357.5</ele>
        <time>2025-03-30T14:01:40Z</time>
      </trkpt>
      <trkpt lat="44.62964" lon="1.71044">
        <ele>357.1</ele>
        <time>2025-03-30T14:01:45Z</time>
      </trkpt>
      <trkpt lat="44.62966" lon="1.7105">
        <ele>356.7</ele>
        <time>2025-03-30T14:01:50Z</time>
      </trkpt>
      <trkpt lat="44.62968" lon="1.71057">
        <ele>357.3</ele>
        <time>2025-03-30T14:01:55Z</time>
      </trkpt>
      <trkpt lat="44.6297" lon="1.71064">
        <ele>358.8</ele>
        <time>2025-03-30T14:02:00Z</time>
      </trkpt>
      <trkpt lat="44.62972" lon="1.71071">
        <ele>358.6</ele>
        <time>2025-03-30T14:02:05Z</time>
      </trkpt>
      <trkpt lat="44.62974" lon="1.71077">
        <ele>359.7</ele>
        <time>2025-03-30T14:02:10Z</time>
      </trkpt>
      <trkpt lat="44.62975" lon="1.71084">
        <ele>359.6</ele>
        <time>2025-03-30T14:02:15Z</time>
      </trkpt>
      <trkpt lat="44.62978" lon="1.7109">
        <ele>360.5</ele>
        <time>2025-03-30T14:02:20Z</time>
      </trkpt>
      <trkpt lat="44.6298" lon="1.71097">
        <ele>360.6</ele>
        <time>2025-03-30T14:02:24Z</time>
      </trkpt>
      <trkpt lat="44.62981" lon="1.71104">
        <ele>359.4</ele>
        <time>2025-03-30T14:02:29Z</time>
      </trkpt>
      <trkpt lat="44.62983" lon="1.71111">
        <ele>360.4</ele>
        <time>2025-03-30T14:02:34Z</time>
      </trkpt>
      <trkpt lat="44.62985" lon="1.71119">
        <ele>361</ele>
        <time>2025-03-30T14:02:39Z</time>
      </trkpt>
      <trkpt lat="44.62987" lon="1.71125">
        <ele>361.8</ele>
        <time>2025-03-30T14:02:44Z</time>
      </trkpt>
      <trkpt lat="44.62989" lon="1.71131">
        <ele>362.7</ele>
        <time>2025-03-30T14:02:49Z</time>
      </trkpt>
      <trkpt lat="44.6299" lon="1.71137">
        <ele>362.6</ele>
        <time>2025-03-30T14:02:54Z</time>
      </trkpt>
      <trkpt lat="44.62992" lon="1.71145">
        <ele>363.5</ele>
        <time>2025-03-30T14:03:00Z</time>
      </trkpt>
      <trkpt lat="44.62994" lon="1.71151">
        <ele>363.8</ele>
        <time>2025-03-30T14:03:05Z</time>
      </trkpt>
      <trkpt lat="44.62997" lon="1.71156">
        <ele>364.4</ele>
        <time>2025-03-30T14:03:10Z</time>
      </trkpt>
      <trkpt lat="44.62999" lon="1.71162">
        <ele>364.8</ele>
        <time>2025-03-30T14:03:15Z</time>
      </trkpt>
      <trkpt lat="44.63" lon="1.71169">
        <ele>364.7</ele>
        <time>2025-03-30T14:03:20Z</time>
      </trkpt>
      <trkpt lat="44.63004" lon="1.71175">
        <ele>364.4</ele>
        <time>2025-03-30T14:03:25Z</time>
      </trkpt>
      <trkpt lat="44.63007" lon="1.71181">
        <ele>366.1</ele>
        <time>2025-03-30T14:03:30Z</time>
      </trkpt>
      <trkpt lat="44.6301" lon="1.71186">
        <ele>366.2</ele>
        <time>2025-03-30T14:03:35Z</time>
      </trkpt>
      <trkpt lat="44.63014" lon="1.7119">
        <ele>366.4</ele>
        <time>2025-03-30T14:03:40Z</time>
      </trkpt>
      <trkpt lat="44.63018" lon="1.71195">
        <ele>367.3</ele>
        <time>2025-03-30T14:03:45Z</time>
      </trkpt>
      <trkpt lat="44.63021" lon="1.712">
        <ele>367.2</ele>
        <time>2025-03-30T14:03:50Z</time>
      </trkpt>
      <trkpt lat="44.63024" lon="1.71204">
        <ele>368.3</ele>
        <time>2025-03-30T14:03:55Z</time>
      </trkpt>
      <trkpt lat="44.63028" lon="1.71209">
        <ele>368.4</ele>
        <time>2025-03-30T14:04:00Z</time>
      </trkpt>
      <trkpt lat="44.63031" lon="1.71214">
        <ele>369</ele>
        <time>2025-03-30T14:04:05Z</time>
      </trkpt>
      <trkpt lat="44.63035" lon="1.71218">
        <ele>369.7</ele>
        <time>2025-03-30T14:04:10Z</time>
      </trkpt>
      <trkpt lat="44.63038" lon="1.71224">
        <ele>370.3</ele>
        <time>2025-03-30T14:04:15Z</time>
      </trkpt>
      <trkpt lat="44.63042" lon="1.71228">
        <ele>370.9</ele>
        <time>2025-03-30T14:04:20Z</time>
      </trkpt>
      <trkpt lat="44.63046" lon="1.71232">
        <ele>371.3</ele>
        <time>2025-03-30T14:04:25Z</time>
      </trkpt>
      <trkpt lat="44.63051" lon="1.71235">
        <ele>372.2</ele>
        <time>2025-03-30T14:04:30Z</time>
      </trkpt>
      <trkpt lat="44.63056" lon="1.71238">
        <ele>372.5</ele>
        <time>2025-03-30T14:04:35Z</time>
      </trkpt>
      <trkpt lat="44.63061" lon="1.71238">
        <ele>372.5</ele>
        <time>2025-03-30T14:04:40Z</time>
      </trkpt>
      <trkpt lat="44.63066" lon="1.71241">
        <ele>372.7</ele>
        <time>2025-03-30T14:04:45Z</time>
      </trkpt>
      <trkpt lat="44.63071" lon="1.71243">
        <ele>373.8</ele>
        <time>2025-03-30T14:04:51Z</time>
      </trkpt>
      <trkpt lat="44.63075" lon="1.71246">
        <ele>374.2</ele>
        <time>2025-03-30T14:04:57Z</time>
      </trkpt>
      <trkpt lat="44.6308" lon="1.7125">
        <ele>374</ele>
        <time>2025-03-30T14:05:02Z</time>
      </trkpt>
      <trkpt lat="44.63085" lon="1.71254">
        <ele>373.7</ele>
        <time>2025-03-30T14:05:07Z</time>
      </trkpt>
      <trkpt lat="44.63089" lon="1.71258">
        <ele>373.9</ele>
        <time>2025-03-30T14:05:12Z</time>
      </trkpt>
      <trkpt lat="44.63094" lon="1.71262">
        <ele>374.7</ele>
        <time>2025-03-30T14:05:17Z</time>
      </trkpt>
      <trkpt lat="44.63099" lon="1.71263">
        <ele>375.8</ele>
        <time>2025-03-30T14:05:22Z</time>
      </trkpt>
      <trkpt lat="44.63152" lon="1.71357">
        <ele>376.3</ele>
        <time>2025-03-30T14:25:43Z</time>
      </trkpt>
      <trkpt lat="44.63154" lon="1.71364">
        <ele>374.9</ele>
        <time>2025-03-30T14:25:57Z</time>
      </trkpt>
      <trkpt lat="44.63152" lon="1.71371">
        <ele>375.6</ele>
        <time>2025-03-30T14:26:16Z</time>
      </trkpt>
      <trkpt lat="44.63151" lon="1.71378">
        <ele>376.6</ele>
        <time>2025-03-30T14:26:21Z</time>
      </trkpt>
      <trkpt lat="44.63149" lon="1.71383">
        <ele>377.6</ele>
        <time>2025-03-30T14:26:26Z</time>
      </trkpt>
      <trkpt lat="44.63147" lon="1.7139">
        <ele>377.6</ele>
        <time>2025-03-30T14:26:32Z</time>
      </trkpt>
      <trkpt lat="44.63142" lon="1.7139">
        <ele>378.4</ele>
        <time>2025-03-30T14:26:41Z</time>
      </trkpt>
      <trkpt lat="44.63139" lon="1.71386">
        <ele>378.5</ele>
        <time>2025-03-30T14:26:48Z</time>
      </trkpt>
      <trkpt lat="44.63134" lon="1.71388">
        <ele>379.7</ele>
        <time>2025-03-30T14:27:14Z</time>
      </trkpt>
      <trkpt lat="44.63131" lon="1.71395">
        <ele>379.2</ele>
        <time>2025-03-30T14:27:19Z</time>
      </trkpt>
      <trkpt lat="44.63128" lon="1.71399">
        <ele>379</ele>
        <time>2025-03-30T14:27:24Z</time>
      </trkpt>
      <trkpt lat="44.63124" lon="1.71404">
        <ele>378.1</ele>
        <time>2025-03-30T14:27:55Z</time>
      </trkpt>
      <trkpt lat="44.6312" lon="1.71409">
        <ele>379.9</ele>
        <time>2025-03-30T14:28:00Z</time>
      </trkpt>
      <trkpt lat="44.63115" lon="1.7141">
        <ele>379.2</ele>
        <time>2025-03-30T14:28:21Z</time>
      </trkpt>
      <trkpt lat="44.63112" lon="1.71415">
        <ele>380.3</ele>
        <time>2025-03-30T14:28:25Z</time>
      </trkpt>
      <trkpt lat="44.63109" lon="1.71421">
        <ele>381.3</ele>
        <time>2025-03-30T14:28:30Z</time>
      </trkpt>
      <trkpt lat="44.63106" lon="1.71427">
        <ele>382.6</ele>
        <time>2025-03-30T14:28:35Z</time>
      </trkpt>
      <trkpt lat="44.63103" lon="1.71432">
        <ele>383.5</ele>
        <time>2025-03-30T14:28:39Z</time>
      </trkpt>
      <trkpt lat="44.63099" lon="1.71438">
        <ele>383.6</ele>
        <time>2025-03-30T14:28:44Z</time>
      </trkpt>
      <trkpt lat="44.63096" lon="1.71443">
        <ele>384.4</ele>
        <time>2025-03-30T14:28:48Z</time>
      </trkpt>
      <trkpt lat="44.63092" lon="1.71449">
        <ele>384.8</ele>
        <time>2025-03-30T14:28:53Z</time>
      </trkpt>
      <trkpt lat="44.63088" lon="1.71454">
        <ele>385.4</ele>
        <time>2025-03-30T14:28:58Z</time>
      </trkpt>
      <trkpt lat="44.63087" lon="1.7146">
        <ele>385.4</ele>
        <time>2025-03-30T14:29:02Z</time>
      </trkpt>
      <trkpt lat="44.63085" lon="1.71466">
        <ele>385.8</ele>
        <time>2025-03-30T14:29:06Z</time>
      </trkpt>
      <trkpt lat="44.63081" lon="1.71471">
        <ele>385.4</ele>
        <time>2025-03-30T14:29:11Z</time>
      </trkpt>
      <trkpt lat="44.63077" lon="1.71475">
        <ele>385.9</ele>
        <time>2025-03-30T14:29:16Z</time>
      </trkpt>
      <trkpt lat="44.63078" lon="1.71481">
        <ele>386.2</ele>
        <time>2025-03-30T14:29:28Z</time>
      </trkpt>
      <trkpt lat="44.63081" lon="1.71487">
        <ele>385.4</ele>
        <time>2025-03-30T14:29:32Z</time>
      </trkpt>
      <trkpt lat="44.63083" lon="1.71493">
        <ele>384.5</ele>
        <time>2025-03-30T14:29:37Z</time>
      </trkpt>
      <trkpt lat="44.63082" lon="1.71499">
        <ele>384.4</ele>
        <time>2025-03-30T14:29:42Z</time>
      </trkpt>
      <trkpt lat="44.63081" lon="1.71506">
        <ele>383.9</ele>
        <time>2025-03-30T14:29:47Z</time>
      </trkpt>
      <trkpt lat="44.63079" lon="1.71513">
        <ele>383.4</ele>
        <time>2025-03-30T14:29:52Z</time>
      </trkpt>
      <trkpt lat="44.63079" lon="1.71521">
        <ele>382.9</ele>
        <time>2025-03-30T14:29:57Z</time>
      </trkpt>
      <trkpt lat="44.63079" lon="1.71529">
        <ele>382.7</ele>
        <time>2025-03-30T14:30:02Z</time>
      </trkpt>
      <trkpt lat="44.63079" lon="1.71535">
        <ele>381.7</ele>
        <time>2025-03-30T14:30:06Z</time>
      </trkpt>
      <trkpt lat="44.63078" lon="1.71542">
        <ele>381.3</ele>
        <time>2025-03-30T14:30:10Z</time>
      </trkpt>
      <trkpt lat="44.63078" lon="1.71549">
        <ele>381.1</ele>
        <time>2025-03-30T14:30:15Z</time>
      </trkpt>
      <trkpt lat="44.63078" lon="1.71556">
        <ele>380.8</ele>
        <time>2025-03-30T14:30:19Z</time>
      </trkpt>
      <trkpt lat="44.63078" lon="1.71563">
        <ele>380.9</ele>
        <time>2025-03-30T14:30:23Z</time>
      </trkpt>
      <trkpt lat="44.63076" lon="1.71569">
        <ele>380.2</ele>
        <time>2025-03-30T14:30:27Z</time>
      </trkpt>
      <trkpt lat="44.63076" lon="1.71575">
        <ele>379.2</ele>
        <time>2025-03-30T14:30:31Z</time>
      </trkpt>
      <trkpt lat="44.63076" lon="1.71582">
        <ele>378.9</ele>
        <time>2025-03-30T14:30:35Z</time>
      </trkpt>
      <trkpt lat="44.63076" lon="1.71588">
        <ele>378.8</ele>
        <time>2025-03-30T14:30:39Z</time>
      </trkpt>
      <trkpt lat="44.63075" lon="1.71595">
        <ele>378.9</ele>
        <time>2025-03-30T14:30:43Z</time>
      </trkpt>
      <trkpt lat="44.63075" lon="1.71602">
        <ele>379.3</ele>
        <time>2025-03-30T14:30:48Z</time>
      </trkpt>
      <trkpt lat="44.63075" lon="1.71609">
        <ele>380.9</ele>
        <time>2025-03-30T14:30:53Z</time>
      </trkpt>
      <trkpt lat="44.63073" lon="1.71616">
        <ele>380.1</ele>
        <time>2025-03-30T14:30:58Z</time>
      </trkpt>
      <trkpt lat="44.63073" lon="1.71623">
        <ele>378.5</ele>
        <time>2025-03-30T14:31:03Z</time>
      </trkpt>
      <trkpt lat="44.63073" lon="1.71631">
        <ele>376.7</ele>
        <time>2025-03-30T14:31:08Z</time>
      </trkpt>
      <trkpt lat="44.63074" lon="1.71639">
        <ele>375.9</ele>
        <time>2025-03-30T14:31:13Z</time>
      </trkpt>
      <trkpt lat="44.63073" lon="1.71646">
        <ele>375.4</ele>
        <time>2025-03-30T14:31:17Z</time>
      </trkpt>
      <trkpt lat="44.63071" lon="1.71652">
        <ele>375.4</ele>
        <time>2025-03-30T14:31:21Z</time>
      </trkpt>
      <trkpt lat="44.63068" lon="1.71657">
        <ele>375.2</ele>
        <time>2025-03-30T14:31:25Z</time>
      </trkpt>
      <trkpt lat="44.63065" lon="1.71662">
        <ele>375.8</ele>
        <time>2025-03-30T14:31:29Z</time>
      </trkpt>
      <trkpt lat="44.63062" lon="1.71667">
        <ele>376.7</ele>
        <time>2025-03-30T14:31:33Z</time>
      </trkpt>
      <trkpt lat="44.63059" lon="1.71672">
        <ele>378.4</ele>
        <time>2025-03-30T14:31:37Z</time>
      </trkpt>
      <trkpt lat="44.63057" lon="1.71678">
        <ele>378.5</ele>
        <time>2025-03-30T14:31:42Z</time>
      </trkpt>
      <trkpt lat="44.63055" lon="1.71684">
        <ele>379.2</ele>
        <time>2025-03-30T14:31:48Z</time>
      </trkpt>
      <trkpt lat="44.63051" lon="1.71687">
        <ele>379.8</ele>
        <time>2025-03-30T14:32:15Z</time>
      </trkpt>
      <trkpt lat="44.63046" lon="1.71686">
        <ele>381.2</ele>
        <time>2025-03-30T14:32:20Z</time>
      </trkpt>
      <trkpt lat="44.63042" lon="1.7169">
        <ele>381.4</ele>
        <time>2025-03-30T14:32:25Z</time>
      </trkpt>
      <trkpt lat="44.63038" lon="1.71695">
        <ele>381.4</ele>
        <time>2025-03-30T14:32:30Z</time>
      </trkpt>
      <trkpt lat="44.63034" lon="1.71699">
        <ele>383.3</ele>
        <time>2025-03-30T14:32:35Z</time>
      </trkpt>
      <trkpt lat="44.63029" lon="1.71702">
        <ele>384.2</ele>
        <time>2025-03-30T14:32:40Z</time>
      </trkpt>
      <trkpt lat="44.63025" lon="1.71706">
        <ele>384.5</ele>
        <time>2025-03-30T14:32:45Z</time>
      </trkpt>
      <trkpt lat="44.63021" lon="1.7171">
        <ele>384.1</ele>
        <time>2025-03-30T14:32:50Z</time>
      </trkpt>
      <trkpt lat="44.63018" lon="1.71715">
        <ele>385.4</ele>
        <time>2025-03-30T14:32:55Z</time>
      </trkpt>
      <trkpt lat="44.63014" lon="1.71721">
        <ele>384.7</ele>
        <time>2025-03-30T14:33:01Z</time>
      </trkpt>
      <trkpt lat="44.63011" lon="1.71726">
        <ele>385.1</ele>
        <time>2025-03-30T14:33:06Z</time>
      </trkpt>
      <trkpt lat="44.6301" lon="1.71733">
        <ele>385</ele>
        <time>2025-03-30T14:33:11Z</time>
      </trkpt>
      <trkpt lat="44.63009" lon="1.7174">
        <ele>384.6</ele>
        <time>2025-03-30T14:33:16Z</time>
      </trkpt>
      <trkpt lat="44.63006" lon="1.71746">
        <ele>385.4</ele>
        <time>2025-03-30T14:33:21Z</time>
      </trkpt>
      <trkpt lat="44.63003" lon="1.71751">
        <ele>385.9</ele>
        <time>2025-03-30T14:33:25Z</time>
      </trkpt>
      <trkpt lat="44.63" lon="1.71757">
        <ele>387</ele>
        <time>2025-03-30T14:33:30Z</time>
      </trkpt>
      <trkpt lat="44.62995" lon="1.71761">
        <ele>388</ele>
        <time>2025-03-30T14:33:35Z</time>
      </trkpt>
      <trkpt lat="44.62992" lon="1.71766">
        <ele>387.4</ele>
        <time>2025-03-30T14:33:40Z</time>
      </trkpt>
      <trkpt lat="44.62988" lon="1.71771">
        <ele>388</ele>
        <time>2025-03-30T14:33:45Z</time>
      </trkpt>
      <trkpt lat="44.62984" lon="1.71774">
        <ele>388.5</ele>
        <time>2025-03-30T14:33:50Z</time>
      </trkpt>
      <trkpt lat="44.6298" lon="1.71778">
        <ele>388.8</ele>
        <time>2025-03-30T14:33:55Z</time>
      </trkpt>
      <trkpt lat="44.62977" lon="1.71784">
        <ele>388.8</ele>
        <time>2025-03-30T14:34:00Z</time>
      </trkpt>
      <trkpt lat="44.62977" lon="1.71791">
        <ele>389.1</ele>
        <time>2025-03-30T14:34:05Z</time>
      </trkpt>
      <trkpt lat="44.62976" lon="1.71799">
        <ele>389.1</ele>
        <time>2025-03-30T14:34:10Z</time>
      </trkpt>
      <trkpt lat="44.62973" lon="1.71805">
        <ele>389.1</ele>
        <time>2025-03-30T14:34:15Z</time>
      </trkpt>
      <trkpt lat="44.62971" lon="1.71812">
        <ele>388.9</ele>
        <time>2025-03-30T14:34:20Z</time>
      </trkpt>
      <trkpt lat="44.6297" lon="1.71819">
        <ele>388.5</ele>
        <time>2025-03-30T14:34:25Z</time>
      </trkpt>
      <trkpt lat="44.62969" lon="1.71827">
        <ele>388.3</ele>
        <time>2025-03-30T14:34:30Z</time>
      </trkpt>
      <trkpt lat="44.62969" lon="1.71834">
        <ele>387.2</ele>
        <time>2025-03-30T14:34:35Z</time>
      </trkpt>
      <trkpt lat="44.62967" lon="1.71841">
        <ele>387.3</ele>
        <time>2025-03-30T14:34:40Z</time>
      </trkpt>
      <trkpt lat="44.62965" lon="1.71847">
        <ele>386.8</ele>
        <time>2025-03-30T14:34:46Z</time>
      </trkpt>
      <trkpt lat="44.62967" lon="1.71852">
        <ele>387.2</ele>
        <time>2025-03-30T14:34:51Z</time>
      </trkpt>
      <trkpt lat="44.62971" lon="1.71856">
        <ele>386</ele>
        <time>2025-03-30T14:34:56Z</time>
      </trkpt>
      <trkpt lat="44.62974" lon="1.71861">
        <ele>385.6</ele>
        <time>2025-03-30T14:35:00Z</time>
      </trkpt>
      <trkpt lat="44.62977" lon="1.71867">
        <ele>385.1</ele>
        <time>2025-03-30T14:35:05Z</time>
      </trkpt>
      <trkpt lat="44.62981" lon="1.71873">
        <ele>384.8</ele>
        <time>2025-03-30T14:35:10Z</time>
      </trkpt>
      <trkpt lat="44.62984" lon="1.71878">
        <ele>384.5</ele>
        <time>2025-03-30T14:35:14Z</time>
      </trkpt>
      <trkpt lat="44.62987" lon="1.71884">
        <ele>384.9</ele>
        <time>2025-03-30T14:35:19Z</time>
      </trkpt>
      <trkpt lat="44.62991" lon="1.7189">
        <ele>384.3</ele>
        <time>2025-03-30T14:35:24Z</time>
      </trkpt>
      <trkpt lat="44.62994" lon="1.71896">
        <ele>383.6</ele>
        <time>2025-03-30T14:35:29Z</time>
      </trkpt>
      <trkpt lat="44.62997" lon="1.71903">
        <ele>383</ele>
        <time>2025-03-30T14:35:34Z</time>
      </trkpt>
      <trkpt lat="44.62999" lon="1.71908">
        <ele>381.2</ele>
        <time>2025-03-30T14:35:38Z</time>
      </trkpt>
      <trkpt lat="44.63002" lon="1.71914">
        <ele>381.5</ele>
        <time>2025-03-30T14:35:42Z</time>
      </trkpt>
      <trkpt lat="44.63005" lon="1.7192">
        <ele>382</ele>
        <time>2025-03-30T14:35:46Z</time>
      </trkpt>
      <trkpt lat="44.63008" lon="1.71925">
        <ele>382.3</ele>
        <time>2025-03-30T14:35:50Z</time>
      </trkpt>
      <trkpt lat="44.63011" lon="1.71931">
        <ele>382.3</ele>
        <time>2025-03-30T14:35:54Z</time>
      </trkpt>
      <trkpt lat="44.63013" lon="1.71936">
        <ele>382.1</ele>
        <time>2025-03-30T14:35:58Z</time>
      </trkpt>
      <trkpt lat="44.63016" lon="1.71942">
        <ele>382.6</ele>
        <time>2025-03-30T14:36:02Z</time>
      </trkpt>
      <trkpt lat="44.63018" lon="1.71947">
        <ele>382.9</ele>
        <time>2025-03-30T14:36:06Z</time>
      </trkpt>
      <trkpt lat="44.6302" lon="1.71954">
        <ele>384.3</ele>
        <time>2025-03-30T14:37:02Z</time>
      </trkpt>
      <trkpt lat="44.63023" lon="1.7196">
        <ele>384.5</ele>
        <time>2025-03-30T14:37:07Z</time>
      </trkpt>
      <trkpt lat="44.63026" lon="1.71966">
        <ele>384.2</ele>
        <time>2025-03-30T14:37:12Z</time>
      </trkpt>
      <trkpt lat="44.63029" lon="1.71971">
        <ele>383.7</ele>
        <time>2025-03-30T14:37:16Z</time>
      </trkpt>
      <trkpt lat="44.6303" lon="1.71977">
        <ele>384.3</ele>
        <time>2025-03-30T14:37:20Z</time>
      </trkpt>
      <trkpt lat="44.63032" lon="1.71983">
        <ele>383.9</ele>
        <time>2025-03-30T14:37:25Z</time>
      </trkpt>
      <trkpt lat="44.63035" lon="1.7199">
        <ele>382.5</ele>
        <time>2025-03-30T14:37:30Z</time>
      </trkpt>
      <trkpt lat="44.63038" lon="1.71994">
        <ele>381.5</ele>
        <time>2025-03-30T14:37:34Z</time>
      </trkpt>
      <trkpt lat="44.63041" lon="1.72">
        <ele>380.4</ele>
        <time>2025-03-30T14:37:38Z</time>
      </trkpt>
      <trkpt lat="44.63044" lon="1.72005">
        <ele>380.1</ele>
        <time>2025-03-30T14:37:42Z</time>
      </trkpt>
      <trkpt lat="44.63047" lon="1.7201">
        <ele>380.1</ele>
        <time>2025-03-30T14:37:46Z</time>
      </trkpt>
      <trkpt lat="44.6305" lon="1.72017">
        <ele>380.2</ele>
        <time>2025-03-30T14:37:51Z</time>
      </trkpt>
      <trkpt lat="44.63053" lon="1.72023">
        <ele>380.9</ele>
        <time>2025-03-30T14:37:55Z</time>
      </trkpt>
      <trkpt lat="44.63055" lon="1.7203">
        <ele>380.9</ele>
        <time>2025-03-30T14:38:00Z</time>
      </trkpt>
      <trkpt lat="44.63058" lon="1.72036">
        <ele>380.5</ele>
        <time>2025-03-30T14:38:04Z</time>
      </trkpt>
      <trkpt lat="44.63061" lon="1.72042">
        <ele>380.1</ele>
        <time>2025-03-30T14:38:08Z</time>
      </trkpt>
      <trkpt lat="44.63065" lon="1.72048">
        <ele>379.3</ele>
        <time>2025-03-30T14:38:13Z</time>
      </trkpt>
      <trkpt lat="44.63069" lon="1.72053">
        <ele>378.9</ele>
        <time>2025-03-30T14:38:18Z</time>
      </trkpt>
      <trkpt lat="44.63072" lon="1.72058">
        <ele>378.5</ele>
        <time>2025-03-30T14:38:22Z</time>
      </trkpt>
      <trkpt lat="44.63074" lon="1.72063">
        <ele>377.9</ele>
        <time>2025-03-30T14:38:26Z</time>
      </trkpt>
      <trkpt lat="44.63077" lon="1.72068">
        <ele>377.1</ele>
        <time>2025-03-30T14:38:30Z</time>
      </trkpt>
      <trkpt lat="44.63081" lon="1.72072">
        <ele>376.7</ele>
        <time>2025-03-30T14:38:34Z</time>
      </trkpt>
      <trkpt lat="44.63085" lon="1.72076">
        <ele>375.8</ele>
        <time>2025-03-30T14:38:38Z</time>
      </trkpt>
      <trkpt lat="44.63089" lon="1.7208">
        <ele>375.3</ele>
        <time>2025-03-30T14:38:42Z</time>
      </trkpt>
      <trkpt lat="44.63093" lon="1.72083">
        <ele>375</ele>
        <time>2025-03-30T14:38:46Z</time>
      </trkpt>
      <trkpt lat="44.63097" lon="1.72085">
        <ele>374.8</ele>
        <time>2025-03-30T14:38:50Z</time>
      </trkpt>
      <trkpt lat="44.63102" lon="1.72087">
        <ele>374.5</ele>
        <time>2025-03-30T14:38:54Z</time>
      </trkpt>
      <trkpt lat="44.63106" lon="1.72088">
        <ele>373.9</ele>
        <time>2025-03-30T14:38:58Z</time>
      </trkpt>
      <trkpt lat="44.63112" lon="1.72089">
        <ele>373.6</ele>
        <time>2025-03-30T14:39:03Z</time>
      </trkpt>
      <trkpt lat="44.63116" lon="1.72089">
        <ele>373.5</ele>
        <time>2025-03-30T14:39:07Z</time>
      </trkpt>
      <trkpt lat="44.63122" lon="1.7209">
        <ele>372.4</ele>
        <time>2025-03-30T14:39:12Z</time>
      </trkpt>
      <trkpt lat="44.63127" lon="1.72091">
        <ele>371.4</ele>
        <time>2025-03-30T14:39:17Z</time>
      </trkpt>
      <trkpt lat="44.63132" lon="1.72092">
        <ele>371.5</ele>
        <time>2025-03-30T14:39:21Z</time>
      </trkpt>
      <trkpt lat="44.63137" lon="1.72093">
        <ele>370.9</ele>
        <time>2025-03-30T14:39:26Z</time>
      </trkpt>
      <trkpt lat="44.63142" lon="1.72094">
        <ele>370.9</ele>
        <time>2025-03-30T14:39:30Z</time>
      </trkpt>
      <trkpt lat="44.63146" lon="1.72096">
        <ele>370.7</ele>
        <time>2025-03-30T14:39:34Z</time>
      </trkpt>
      <trkpt lat="44.63151" lon="1.72097">
        <ele>370.3</ele>
        <time>2025-03-30T14:39:38Z</time>
      </trkpt>
      <trkpt lat="44.63156" lon="1.72099">
        <ele>369.5</ele>
        <time>2025-03-30T14:39:43Z</time>
      </trkpt>
      <trkpt lat="44.63161" lon="1.72102">
        <ele>368.4</ele>
        <time>2025-03-30T14:39:48Z</time>
      </trkpt>
      <trkpt lat="44.63166" lon="1.72105">
        <ele>367.8</ele>
        <time>2025-03-30T14:39:53Z</time>
      </trkpt>
      <trkpt lat="44.6317" lon="1.7211">
        <ele>367.1</ele>
        <time>2025-03-30T14:39:58Z</time>
      </trkpt>
      <trkpt lat="44.63173" lon="1.72115">
        <ele>365.4</ele>
        <time>2025-03-30T14:40:03Z</time>
      </trkpt>
      <trkpt lat="44.63176" lon="1.7212">
        <ele>365.3</ele>
        <time>2025-03-30T14:40:07Z</time>
      </trkpt>
      <trkpt lat="44.63178" lon="1.72126">
        <ele>364.7</ele>
        <time>2025-03-30T14:40:11Z</time>
      </trkpt>
      <trkpt lat="44.63179" lon="1.72133">
        <ele>363.4</ele>
        <time>2025-03-30T14:40:15Z</time>
      </trkpt>
      <trkpt lat="44.63178" lon="1.72139">
        <ele>362.9</ele>
        <time>2025-03-30T14:40:19Z</time>
      </trkpt>
      <trkpt lat="44.63175" lon="1.72145">
        <ele>361</ele>
        <time>2025-03-30T14:40:23Z</time>
      </trkpt>
      <trkpt lat="44.63173" lon="1.7215">
        <ele>360.3</ele>
        <time>2025-03-30T14:40:27Z</time>
      </trkpt>
      <trkpt lat="44.6317" lon="1.72157">
        <ele>359.2</ele>
        <time>2025-03-30T14:40:32Z</time>
      </trkpt>
      <trkpt lat="44.63167" lon="1.72163">
        <ele>358.1</ele>
        <time>2025-03-30T14:40:37Z</time>
      </trkpt>
      <trkpt lat="44.63167" lon="1.72171">
        <ele>357.4</ele>
        <time>2025-03-30T14:40:42Z</time>
      </trkpt>
      <trkpt lat="44.63167" lon="1.72179">
        <ele>357.3</ele>
        <time>2025-03-30T14:40:47Z</time>
      </trkpt>
      <trkpt lat="44.63167" lon="1.72185">
        <ele>357.1</ele>
        <time>2025-03-30T14:40:51Z</time>
      </trkpt>
      <trkpt lat="44.63166" lon="1.72192">
        <ele>356.7</ele>
        <time>2025-03-30T14:40:56Z</time>
      </trkpt>
      <trkpt lat="44.63165" lon="1.72199">
        <ele>356.5</ele>
        <time>2025-03-30T14:41:01Z</time>
      </trkpt>
      <trkpt lat="44.63167" lon="1.72206">
        <ele>356.5</ele>
        <time>2025-03-30T14:41:06Z</time>
      </trkpt>
      <trkpt lat="44.63172" lon="1.72207">
        <ele>355.5</ele>
        <time>2025-03-30T14:41:11Z</time>
      </trkpt>
      <trkpt lat="44.63177" lon="1.72206">
        <ele>354.9</ele>
        <time>2025-03-30T14:41:16Z</time>
      </trkpt>
      <trkpt lat="44.63182" lon="1.72206">
        <ele>355.7</ele>
        <time>2025-03-30T14:41:20Z</time>
      </trkpt>
      <trkpt lat="44.63186" lon="1.72203">
        <ele>355.7</ele>
        <time>2025-03-30T14:41:25Z</time>
      </trkpt>
      <trkpt lat="44.63191" lon="1.72202">
        <ele>355.4</ele>
        <time>2025-03-30T14:41:30Z</time>
      </trkpt>
      <trkpt lat="44.63197" lon="1.72201">
        <ele>355.2</ele>
        <time>2025-03-30T14:41:35Z</time>
      </trkpt>
      <trkpt lat="44.63202" lon="1.72199">
        <ele>354.3</ele>
        <time>2025-03-30T14:41:40Z</time>
      </trkpt>
      <trkpt lat="44.63207" lon="1.72197">
        <ele>353.6</ele>
        <time>2025-03-30T14:41:45Z</time>
      </trkpt>
      <trkpt lat="44.63212" lon="1.72194">
        <ele>352.9</ele>
        <time>2025-03-30T14:41:50Z</time>
      </trkpt>
      <trkpt lat="44.63217" lon="1.72192">
        <ele>352.4</ele>
        <time>2025-03-30T14:41:55Z</time>
      </trkpt>
      <trkpt lat="44.63222" lon="1.7219">
        <ele>352.4</ele>
        <time>2025-03-30T14:42:00Z</time>
      </trkpt>
      <trkpt lat="44.63228" lon="1.7219">
        <ele>351.7</ele>
        <time>2025-03-30T14:42:05Z</time>
      </trkpt>
      <trkpt lat="44.63233" lon="1.72191">
        <ele>351.1</ele>
        <time>2025-03-30T14:42:10Z</time>
      </trkpt>
      <trkpt lat="44.63239" lon="1.72192">
        <ele>351.4</ele>
        <time>2025-03-30T14:42:15Z</time>
      </trkpt>
      <trkpt lat="44.63243" lon="1.72195">
        <ele>350.9</ele>
        <time>2025-03-30T14:42:19Z</time>
      </trkpt>
      <trkpt lat="44.63247" lon="1.72197">
        <ele>350.6</ele>
        <time>2025-03-30T14:42:23Z</time>
      </trkpt>
      <trkpt lat="44.63253" lon="1.72199">
        <ele>350.4</ele>
        <time>2025-03-30T14:42:28Z</time>
      </trkpt>
      <trkpt lat="44.63258" lon="1.722">
        <ele>349.1</ele>
        <time>2025-03-30T14:42:33Z</time>
      </trkpt>
      <trkpt lat="44.63262" lon="1.72202">
        <ele>349.2</ele>
        <time>2025-03-30T14:42:37Z</time>
      </trkpt>
      <trkpt lat="44.63267" lon="1.72204">
        <ele>349.1</ele>
        <time>2025-03-30T14:42:41Z</time>
      </trkpt>
      <trkpt lat="44.63272" lon="1.72205">
        <ele>349.2</ele>
        <time>2025-03-30T14:42:45Z</time>
      </trkpt>
      <trkpt lat="44.63276" lon="1.72206">
        <ele>349.3</ele>
        <time>2025-03-30T14:42:49Z</time>
      </trkpt>
      <trkpt lat="44.63281" lon="1.72208">
        <ele>349.8</ele>
        <time>2025-03-30T14:42:53Z</time>
      </trkpt>
      <trkpt lat="44.63286" lon="1.72209">
        <ele>350.3</ele>
        <time>2025-03-30T14:42:58Z</time>
      </trkpt>
      <trkpt lat="44.63291" lon="1.72214">
        <ele>350.4</ele>
        <time>2025-03-30T14:43:03Z</time>
      </trkpt>
      <trkpt lat="44.63294" lon="1.72219">
        <ele>350</ele>
        <time>2025-03-30T14:43:08Z</time>
      </trkpt>
      <trkpt lat="44.63298" lon="1.72225">
        <ele>349.9</ele>
        <time>2025-03-30T14:43:13Z</time>
      </trkpt>
      <trkpt lat="44.63303" lon="1.72228">
        <ele>349.9</ele>
        <time>2025-03-30T14:43:18Z</time>
      </trkpt>
      <trkpt lat="44.63308" lon="1.72232">
        <ele>349.8</ele>
        <time>2025-03-30T14:43:23Z</time>
      </trkpt>
      <trkpt lat="44.63312" lon="1.72235">
        <ele>349.9</ele>
        <time>2025-03-30T14:43:28Z</time>
      </trkpt>
      <trkpt lat="44.63317" lon="1.72239">
        <ele>350.3</ele>
        <time>2025-03-30T14:43:33Z</time>
      </trkpt>
      <trkpt lat="44.63321" lon="1.72243">
        <ele>350.2</ele>
        <time>2025-03-30T14:43:38Z</time>
      </trkpt>
      <trkpt lat="44.63324" lon="1.72248">
        <ele>350.1</ele>
        <time>2025-03-30T14:43:42Z</time>
      </trkpt>
      <trkpt lat="44.63327" lon="1.72253">
        <ele>349.8</ele>
        <time>2025-03-30T14:43:46Z</time>
      </trkpt>
      <trkpt lat="44.63331" lon="1.72258">
        <ele>349.6</ele>
        <time>2025-03-30T14:43:50Z</time>
      </trkpt>
      <trkpt lat="44.63335" lon="1.72263">
        <ele>349.5</ele>
        <time>2025-03-30T14:43:55Z</time>
      </trkpt>
      <trkpt lat="44.63337" lon="1.72269">
        <ele>349.1</ele>
        <time>2025-03-30T14:43:59Z</time>
      </trkpt>
      <trkpt lat="44.6334" lon="1.72276">
        <ele>349.3</ele>
        <time>2025-03-30T14:44:04Z</time>
      </trkpt>
      <trkpt lat="44.63345" lon="1.7228">
        <ele>349.3</ele>
        <time>2025-03-30T14:44:09Z</time>
      </trkpt>
      <trkpt lat="44.63349" lon="1.72283">
        <ele>349.6</ele>
        <time>2025-03-30T14:44:14Z</time>
      </trkpt>
      <trkpt lat="44.63353" lon="1.72287">
        <ele>348.6</ele>
        <time>2025-03-30T14:44:18Z</time>
      </trkpt>
      <trkpt lat="44.63356" lon="1.72293">
        <ele>348.7</ele>
        <time>2025-03-30T14:44:23Z</time>
      </trkpt>
      <trkpt lat="44.63358" lon="1.72299">
        <ele>348.5</ele>
        <time>2025-03-30T14:44:27Z</time>
      </trkpt>
      <trkpt lat="44.6336" lon="1.72306">
        <ele>348.1</ele>
        <time>2025-03-30T14:44:32Z</time>
      </trkpt>
      <trkpt lat="44.6336" lon="1.72313">
        <ele>347.5</ele>
        <time>2025-03-30T14:44:36Z</time>
      </trkpt>
      <trkpt lat="44.63358" lon="1.7232">
        <ele>347.3</ele>
        <time>2025-03-30T14:44:40Z</time>
      </trkpt>
      <trkpt lat="44.63355" lon="1.72326">
        <ele>346.9</ele>
        <time>2025-03-30T14:44:45Z</time>
      </trkpt>
      <trkpt lat="44.63352" lon="1.72332">
        <ele>346.1</ele>
        <time>2025-03-30T14:44:49Z</time>
      </trkpt>
      <trkpt lat="44.6335" lon="1.72337">
        <ele>345.8</ele>
        <time>2025-03-30T14:44:53Z</time>
      </trkpt>
      <trkpt lat="44.63348" lon="1.72344">
        <ele>345.3</ele>
        <time>2025-03-30T14:44:58Z</time>
      </trkpt>
      <trkpt lat="44.63346" lon="1.7235">
        <ele>345</ele>
        <time>2025-03-30T14:45:02Z</time>
      </trkpt>
      <trkpt lat="44.63347" lon="1.72357">
        <ele>345</ele>
        <time>2025-03-30T14:45:07Z</time>
      </trkpt>
      <trkpt lat="44.63349" lon="1.72365">
        <ele>345.4</ele>
        <time>2025-03-30T14:45:12Z</time>
      </trkpt>
      <trkpt lat="44.6335" lon="1.72371">
        <ele>345</ele>
        <time>2025-03-30T14:45:16Z</time>
      </trkpt>
      <trkpt lat="44.63353" lon="1.72378">
        <ele>344.6</ele>
        <time>2025-03-30T14:45:21Z</time>
      </trkpt>
      <trkpt lat="44.63357" lon="1.72383">
        <ele>344.6</ele>
        <time>2025-03-30T14:45:26Z</time>
      </trkpt>
      <trkpt lat="44.6336" lon="1.72388">
        <ele>344.1</ele>
        <time>2025-03-30T14:45:31Z</time>
      </trkpt>
      <trkpt lat="44.63363" lon="1.72394">
        <ele>343.7</ele>
        <time>2025-03-30T14:45:36Z</time>
      </trkpt>
      <trkpt lat="44.63366" lon="1.724">
        <ele>343.8</ele>
        <time>2025-03-30T14:45:41Z</time>
      </trkpt>
      <trkpt lat="44.63369" lon="1.72406">
        <ele>343</ele>
        <time>2025-03-30T14:45:49Z</time>
      </trkpt>
      <trkpt lat="44.63369" lon="1.72413">
        <ele>344.7</ele>
        <time>2025-03-30T14:45:54Z</time>
      </trkpt>
      <trkpt lat="44.63369" lon="1.7242">
        <ele>345.9</ele>
        <time>2025-03-30T14:46:00Z</time>
      </trkpt>
      <trkpt lat="44.63369" lon="1.72427">
        <ele>347</ele>
        <time>2025-03-30T14:46:06Z</time>
      </trkpt>
      <trkpt lat="44.6337" lon="1.72434">
        <ele>347.1</ele>
        <time>2025-03-30T14:46:11Z</time>
      </trkpt>
      <trkpt lat="44.63371" lon="1.72441">
        <ele>347.1</ele>
        <time>2025-03-30T14:46:16Z</time>
      </trkpt>
      <trkpt lat="44.63371" lon="1.72448">
        <ele>347</ele>
        <time>2025-03-30T14:46:21Z</time>
      </trkpt>
      <trkpt lat="44.63371" lon="1.72454">
        <ele>346.2</ele>
        <time>2025-03-30T14:46:25Z</time>
      </trkpt>
      <trkpt lat="44.63371" lon="1.72461">
        <ele>347.6</ele>
        <time>2025-03-30T14:46:29Z</time>
      </trkpt>
      <trkpt lat="44.63373" lon="1.72468">
        <ele>348.2</ele>
        <time>2025-03-30T14:46:34Z</time>
      </trkpt>
      <trkpt lat="44.63376" lon="1.72474">
        <ele>348.3</ele>
        <time>2025-03-30T14:46:39Z</time>
      </trkpt>
      <trkpt lat="44.63379" lon="1.72478">
        <ele>348</ele>
        <time>2025-03-30T14:46:44Z</time>
      </trkpt>
      <trkpt lat="44.63383" lon="1.72482">
        <ele>347.7</ele>
        <time>2025-03-30T14:46:49Z</time>
      </trkpt>
      <trkpt lat="44.63387" lon="1.72487">
        <ele>348.7</ele>
        <time>2025-03-30T14:48:03Z</time>
      </trkpt>
      <trkpt lat="44.63391" lon="1.7249">
        <ele>348.5</ele>
        <time>2025-03-30T14:48:08Z</time>
      </trkpt>
      <trkpt lat="44.63395" lon="1.72495">
        <ele>348.1</ele>
        <time>2025-03-30T14:48:13Z</time>
      </trkpt>
      <trkpt lat="44.63399" lon="1.72499">
        <ele>348</ele>
        <time>2025-03-30T14:48:18Z</time>
      </trkpt>
      <trkpt lat="44.63403" lon="1.72504">
        <ele>347.3</ele>
        <time>2025-03-30T14:48:23Z</time>
      </trkpt>
      <trkpt lat="44.63407" lon="1.72508">
        <ele>347.7</ele>
        <time>2025-03-30T14:48:28Z</time>
      </trkpt>
      <trkpt lat="44.63411" lon="1.72512">
        <ele>347.8</ele>
        <time>2025-03-30T14:48:33Z</time>
      </trkpt>
      <trkpt lat="44.63415" lon="1.72517">
        <ele>347.8</ele>
        <time>2025-03-30T14:48:37Z</time>
      </trkpt>
      <trkpt lat="44.63418" lon="1.7252">
        <ele>348.3</ele>
        <time>2025-03-30T14:48:41Z</time>
      </trkpt>
      <trkpt lat="44.63422" lon="1.72524">
        <ele>348.6</ele>
        <time>2025-03-30T14:48:45Z</time>
      </trkpt>
      <trkpt lat="44.63426" lon="1.72528">
        <ele>348.6</ele>
        <time>2025-03-30T14:48:49Z</time>
      </trkpt>
      <trkpt lat="44.6343" lon="1.72532">
        <ele>348.9</ele>
        <time>2025-03-30T14:48:54Z</time>
      </trkpt>
      <trkpt lat="44.63434" lon="1.72536">
        <ele>348.9</ele>
        <time>2025-03-30T14:48:59Z</time>
      </trkpt>
      <trkpt lat="44.63439" lon="1.72541">
        <ele>349.8</ele>
        <time>2025-03-30T14:49:04Z</time>
      </trkpt>
      <trkpt lat="44.63442" lon="1.72545">
        <ele>349.3</ele>
        <time>2025-03-30T14:49:08Z</time>
      </trkpt>
      <trkpt lat="44.63445" lon="1.7255">
        <ele>349.3</ele>
        <time>2025-03-30T14:49:12Z</time>
      </trkpt>
      <trkpt lat="44.6345" lon="1.72553">
        <ele>350.6</ele>
        <time>2025-03-30T14:49:17Z</time>
      </trkpt>
      <trkpt lat="44.63454" lon="1.72558">
        <ele>350</ele>
        <time>2025-03-30T14:49:22Z</time>
      </trkpt>
      <trkpt lat="44.63458" lon="1.72562">
        <ele>350.5</ele>
        <time>2025-03-30T14:49:27Z</time>
      </trkpt>
      <trkpt lat="44.63462" lon="1.72566">
        <ele>350.8</ele>
        <time>2025-03-30T14:49:32Z</time>
      </trkpt>
      <trkpt lat="44.63467" lon="1.72569">
        <ele>351</ele>
        <time>2025-03-30T14:49:37Z</time>
      </trkpt>
      <trkpt lat="44.63471" lon="1.72573">
        <ele>350.2</ele>
        <time>2025-03-30T14:49:41Z</time>
      </trkpt>
      <trkpt lat="44.63475" lon="1.72577">
        <ele>351</ele>
        <time>2025-03-30T14:49:45Z</time>
      </trkpt>
      <trkpt lat="44.63478" lon="1.72583">
        <ele>349.9</ele>
        <time>2025-03-30T14:49:49Z</time>
      </trkpt>
      <trkpt lat="44.63483" lon="1.72587">
        <ele>349.8</ele>
        <time>2025-03-30T14:50:02Z</time>
      </trkpt>
      <trkpt lat="44.63487" lon="1.72591">
        <ele>350.7</ele>
        <time>2025-03-30T14:50:16Z</time>
      </trkpt>
      <trkpt lat="44.63491" lon="1.72595">
        <ele>350.6</ele>
        <time>2025-03-30T14:50:21Z</time>
      </trkpt>
      <trkpt lat="44.63496" lon="1.72597">
        <ele>351.3</ele>
        <time>2025-03-30T14:50:26Z</time>
      </trkpt>
      <trkpt lat="44.63501" lon="1.72597">
        <ele>351.5</ele>
        <time>2025-03-30T14:50:31Z</time>
      </trkpt>
      <trkpt lat="44.63506" lon="1.72598">
        <ele>351.8</ele>
        <time>2025-03-30T14:50:36Z</time>
      </trkpt>
      <trkpt lat="44.63512" lon="1.72599">
        <ele>352</ele>
        <time>2025-03-30T14:50:41Z</time>
      </trkpt>
      <trkpt lat="44.63516" lon="1.72599">
        <ele>352.6</ele>
        <time>2025-03-30T14:50:45Z</time>
      </trkpt>
      <trkpt lat="44.63521" lon="1.726">
        <ele>352.6</ele>
        <time>2025-03-30T14:50:49Z</time>
      </trkpt>
      <trkpt lat="44.63527" lon="1.72601">
        <ele>353</ele>
        <time>2025-03-30T14:50:54Z</time>
      </trkpt>
      <trkpt lat="44.63531" lon="1.72603">
        <ele>353.3</ele>
        <time>2025-03-30T14:50:58Z</time>
      </trkpt>
      <trkpt lat="44.63536" lon="1.72604">
        <ele>353.6</ele>
        <time>2025-03-30T14:51:02Z</time>
      </trkpt>
      <trkpt lat="44.63541" lon="1.72605">
        <ele>353.5</ele>
        <time>2025-03-30T14:51:06Z</time>
      </trkpt>
      <trkpt lat="44.63545" lon="1.72606">
        <ele>353.4</ele>
        <time>2025-03-30T14:51:10Z</time>
      </trkpt>
      <trkpt lat="44.6355" lon="1.72607">
        <ele>353.5</ele>
        <time>2025-03-30T14:51:14Z</time>
      </trkpt>
      <trkpt lat="44.63555" lon="1.72608">
        <ele>354.1</ele>
        <time>2025-03-30T14:51:19Z</time>
      </trkpt>
      <trkpt lat="44.6356" lon="1.72609">
        <ele>354.2</ele>
        <time>2025-03-30T14:51:23Z</time>
      </trkpt>
      <trkpt lat="44.63565" lon="1.7261">
        <ele>354.4</ele>
        <time>2025-03-30T14:51:27Z</time>
      </trkpt>
      <trkpt lat="44.63569" lon="1.72611">
        <ele>354.2</ele>
        <time>2025-03-30T14:51:31Z</time>
      </trkpt>
      <trkpt lat="44.63575" lon="1.72612">
        <ele>354.1</ele>
        <time>2025-03-30T14:51:36Z</time>
      </trkpt>
      <trkpt lat="44.6358" lon="1.72613">
        <ele>354.1</ele>
        <time>2025-03-30T14:51:40Z</time>
      </trkpt>
      <trkpt lat="44.63584" lon="1.72614">
        <ele>354.1</ele>
        <time>2025-03-30T14:51:44Z</time>
      </trkpt>
      <trkpt lat="44.63589" lon="1.72615">
        <ele>354.5</ele>
        <time>2025-03-30T14:51:48Z</time>
      </trkpt>
      <trkpt lat="44.63593" lon="1.72616">
        <ele>354.5</ele>
        <time>2025-03-30T14:51:52Z</time>
      </trkpt>
      <trkpt lat="44.63598" lon="1.72617">
        <ele>354.5</ele>
        <time>2025-03-30T14:51:56Z</time>
      </trkpt>
      <trkpt lat="44.63603" lon="1.72619">
        <ele>354.8</ele>
        <time>2025-03-30T14:52:00Z</time>
      </trkpt>
      <trkpt lat="44.63607" lon="1.7262">
        <ele>354.9</ele>
        <time>2025-03-30T14:52:04Z</time>
      </trkpt>
      <trkpt lat="44.63612" lon="1.72622">
        <ele>354.1</ele>
        <time>2025-03-30T14:52:08Z</time>
      </trkpt>
      <trkpt lat="44.63617" lon="1.72622">
        <ele>354.2</ele>
        <time>2025-03-30T14:52:12Z</time>
      </trkpt>
      <trkpt lat="44.63622" lon="1.72623">
        <ele>354.9</ele>
        <time>2025-03-30T14:52:17Z</time>
      </trkpt>
      <trkpt lat="44.63627" lon="1.72624">
        <ele>355.3</ele>
        <time>2025-03-30T14:52:21Z</time>
      </trkpt>
      <trkpt lat="44.63632" lon="1.72624">
        <ele>354.9</ele>
        <time>2025-03-30T14:52:25Z</time>
      </trkpt>
      <trkpt lat="44.63637" lon="1.72624">
        <ele>355.6</ele>
        <time>2025-03-30T14:52:30Z</time>
      </trkpt>
      <trkpt lat="44.63642" lon="1.72624">
        <ele>355.2</ele>
        <time>2025-03-30T14:52:34Z</time>
      </trkpt>
      <trkpt lat="44.63647" lon="1.72623">
        <ele>354.9</ele>
        <time>2025-03-30T14:52:39Z</time>
      </trkpt>
      <trkpt lat="44.63652" lon="1.72624">
        <ele>355.6</ele>
        <time>2025-03-30T14:52:43Z</time>
      </trkpt>
      <trkpt lat="44.63657" lon="1.72623">
        <ele>355.7</ele>
        <time>2025-03-30T14:52:47Z</time>
      </trkpt>
      <trkpt lat="44.63662" lon="1.72622">
        <ele>356.2</ele>
        <time>2025-03-30T14:52:51Z</time>
      </trkpt>
      <trkpt lat="44.63667" lon="1.72623">
        <ele>355</ele>
        <time>2025-03-30T14:52:55Z</time>
      </trkpt>
      <trkpt lat="44.63672" lon="1.72623">
        <ele>355.8</ele>
        <time>2025-03-30T14:52:59Z</time>
      </trkpt>
      <trkpt lat="44.63677" lon="1.72621">
        <ele>356.3</ele>
        <time>2025-03-30T14:53:03Z</time>
      </trkpt>
      <trkpt lat="44.63681" lon="1.72619">
        <ele>355.8</ele>
        <time>2025-03-30T14:53:07Z</time>
      </trkpt>
      <trkpt lat="44.63686" lon="1.72617">
        <ele>355.7</ele>
        <time>2025-03-30T14:53:15Z</time>
      </trkpt>
      <trkpt lat="44.63691" lon="1.72618">
        <ele>355.6</ele>
        <time>2025-03-30T14:53:19Z</time>
      </trkpt>
      <trkpt lat="44.63695" lon="1.72619">
        <ele>355.8</ele>
        <time>2025-03-30T14:53:23Z</time>
      </trkpt>
      <trkpt lat="44.637" lon="1.7262">
        <ele>356.1</ele>
        <time>2025-03-30T14:53:27Z</time>
      </trkpt>
      <trkpt lat="44.63706" lon="1.72621">
        <ele>356.4</ele>
        <time>2025-03-30T14:53:32Z</time>
      </trkpt>
      <trkpt lat="44.63711" lon="1.72622">
        <ele>356.9</ele>
        <time>2025-03-30T14:53:36Z</time>
      </trkpt>
      <trkpt lat="44.63715" lon="1.72622">
        <ele>357</ele>
        <time>2025-03-30T14:53:40Z</time>
      </trkpt>
      <trkpt lat="44.63721" lon="1.72622">
        <ele>357.2</ele>
        <time>2025-03-30T14:53:45Z</time>
      </trkpt>
      <trkpt lat="44.63725" lon="1.72622">
        <ele>357.1</ele>
        <time>2025-03-30T14:53:49Z</time>
      </trkpt>
      <trkpt lat="44.6373" lon="1.72621">
        <ele>356.4</ele>
        <time>2025-03-30T14:53:53Z</time>
      </trkpt>
      <trkpt lat="44.63736" lon="1.72621">
        <ele>356.9</ele>
        <time>2025-03-30T14:53:58Z</time>
      </trkpt>
      <trkpt lat="44.6374" lon="1.7262">
        <ele>356.1</ele>
        <time>2025-03-30T14:54:02Z</time>
      </trkpt>
      <trkpt lat="44.63745" lon="1.72619">
        <ele>355.9</ele>
        <time>2025-03-30T14:54:06Z</time>
      </trkpt>
      <trkpt lat="44.6375" lon="1.72617">
        <ele>355.6</ele>
        <time>2025-03-30T14:54:11Z</time>
      </trkpt>
      <trkpt lat="44.63755" lon="1.72615">
        <ele>355.8</ele>
        <time>2025-03-30T14:54:15Z</time>
      </trkpt>
      <trkpt lat="44.6376" lon="1.72612">
        <ele>355.9</ele>
        <time>2025-03-30T14:54:19Z</time>
      </trkpt>
      <trkpt lat="44.63765" lon="1.7261">
        <ele>356.1</ele>
        <time>2025-03-30T14:54:23Z</time>
      </trkpt>
      <trkpt lat="44.63769" lon="1.72608">
        <ele>356.2</ele>
        <time>2025-03-30T14:54:27Z</time>
      </trkpt>
      <trkpt lat="44.63774" lon="1.72605">
        <ele>356.6</ele>
        <time>2025-03-30T14:54:31Z</time>
      </trkpt>
      <trkpt lat="44.63778" lon="1.72602">
        <ele>356.7</ele>
        <time>2025-03-30T14:54:35Z</time>
      </trkpt>
      <trkpt lat="44.63782" lon="1.72599">
        <ele>357.1</ele>
        <time>2025-03-30T14:54:39Z</time>
      </trkpt>
      <trkpt lat="44.63786" lon="1.72595">
        <ele>357.2</ele>
        <time>2025-03-30T14:54:43Z</time>
      </trkpt>
      <trkpt lat="44.6379" lon="1.72592">
        <ele>357.7</ele>
        <time>2025-03-30T14:54:47Z</time>
      </trkpt>
      <trkpt lat="44.63794" lon="1.72589">
        <ele>357.9</ele>
        <time>2025-03-30T14:54:51Z</time>
      </trkpt>
      <trkpt lat="44.63799" lon="1.72587">
        <ele>358.1</ele>
        <time>2025-03-30T14:54:55Z</time>
      </trkpt>
      <trkpt lat="44.63803" lon="1.72585">
        <ele>358.3</ele>
        <time>2025-03-30T14:54:59Z</time>
      </trkpt>
      <trkpt lat="44.63808" lon="1.72583">
        <ele>358.3</ele>
        <time>2025-03-30T14:55:03Z</time>
      </trkpt>
      <trkpt lat="44.63813" lon="1.72583">
        <ele>358.2</ele>
        <time>2025-03-30T14:55:07Z</time>
      </trkpt>
      <trkpt lat="44.63818" lon="1.72582">
        <ele>358</ele>
        <time>2025-03-30T14:55:12Z</time>
      </trkpt>
      <trkpt lat="44.63823" lon="1.72582">
        <ele>358.5</ele>
        <time>2025-03-30T14:55:16Z</time>
      </trkpt>
      <trkpt lat="44.63828" lon="1.72582">
        <ele>358.9</ele>
        <time>2025-03-30T14:55:20Z</time>
      </trkpt>
      <trkpt lat="44.63833" lon="1.72582">
        <ele>359.3</ele>
        <time>2025-03-30T14:55:24Z</time>
      </trkpt>
      <trkpt lat="44.63837" lon="1.72583">
        <ele>359.9</ele>
        <time>2025-03-30T14:55:28Z</time>
      </trkpt>
      <trkpt lat="44.63843" lon="1.72584">
        <ele>359.2</ele>
        <time>2025-03-30T14:55:33Z</time>
      </trkpt>
      <trkpt lat="44.63848" lon="1.72585">
        <ele>359.2</ele>
        <time>2025-03-30T14:55:38Z</time>
      </trkpt>
      <trkpt lat="44.63852" lon="1.72587">
        <ele>358.2</ele>
        <time>2025-03-30T14:55:42Z</time>
      </trkpt>
      <trkpt lat="44.63857" lon="1.72588">
        <ele>358.3</ele>
        <time>2025-03-30T14:55:46Z</time>
      </trkpt>
      <trkpt lat="44.63861" lon="1.7259">
        <ele>358.3</ele>
        <time>2025-03-30T14:55:50Z</time>
      </trkpt>
      <trkpt lat="44.63866" lon="1.72591">
        <ele>358</ele>
        <time>2025-03-30T14:55:54Z</time>
      </trkpt>
      <trkpt lat="44.63871" lon="1.72592">
        <ele>357.6</ele>
        <time>2025-03-30T14:55:58Z</time>
      </trkpt>
      <trkpt lat="44.63876" lon="1.72593">
        <ele>357.6</ele>
        <time>2025-03-30T14:56:02Z</time>
      </trkpt>
      <trkpt lat="44.6388" lon="1.72594">
        <ele>357.7</ele>
        <time>2025-03-30T14:56:06Z</time>
      </trkpt>
      <trkpt lat="44.63885" lon="1.72595">
        <ele>357.5</ele>
        <time>2025-03-30T14:56:10Z</time>
      </trkpt>
      <trkpt lat="44.63889" lon="1.72596">
        <ele>356.8</ele>
        <time>2025-03-30T14:56:14Z</time>
      </trkpt>
      <trkpt lat="44.63894" lon="1.72596">
        <ele>356.8</ele>
        <time>2025-03-30T14:56:18Z</time>
      </trkpt>
      <trkpt lat="44.63899" lon="1.72598">
        <ele>356.5</ele>
        <time>2025-03-30T14:56:22Z</time>
      </trkpt>
      <trkpt lat="44.63904" lon="1.72599">
        <ele>356.6</ele>
        <time>2025-03-30T14:56:26Z</time>
      </trkpt>
      <trkpt lat="44.63908" lon="1.726">
        <ele>355.8</ele>
        <time>2025-03-30T14:56:30Z</time>
      </trkpt>
      <trkpt lat="44.63913" lon="1.72601">
        <ele>355.8</ele>
        <time>2025-03-30T14:56:34Z</time>
      </trkpt>
      <trkpt lat="44.63918" lon="1.72602">
        <ele>356.2</ele>
        <time>2025-03-30T14:56:39Z</time>
      </trkpt>
      <trkpt lat="44.63924" lon="1.72603">
        <ele>355.9</ele>
        <time>2025-03-30T14:56:44Z</time>
      </trkpt>
      <trkpt lat="44.63928" lon="1.72604">
        <ele>355.7</ele>
        <time>2025-03-30T14:56:48Z</time>
      </trkpt>
      <trkpt lat="44.63933" lon="1.72607">
        <ele>355.5</ele>
        <time>2025-03-30T14:57:00Z</time>
      </trkpt>
      <trkpt lat="44.63938" lon="1.72607">
        <ele>355.3</ele>
        <time>2025-03-30T14:57:04Z</time>
      </trkpt>
      <trkpt lat="44.63942" lon="1.72608">
        <ele>354.9</ele>
        <time>2025-03-30T14:57:08Z</time>
      </trkpt>
      <trkpt lat="44.63948" lon="1.72609">
        <ele>354.8</ele>
        <time>2025-03-30T14:57:13Z</time>
      </trkpt>
      <trkpt lat="44.63953" lon="1.72609">
        <ele>354.7</ele>
        <time>2025-03-30T14:57:17Z</time>
      </trkpt>
      <trkpt lat="44.63957" lon="1.72609">
        <ele>354.9</ele>
        <time>2025-03-30T14:57:21Z</time>
      </trkpt>
      <trkpt lat="44.63962" lon="1.72608">
        <ele>354.8</ele>
        <time>2025-03-30T14:57:25Z</time>
      </trkpt>
      <trkpt lat="44.63967" lon="1.72607">
        <ele>354.7</ele>
        <time>2025-03-30T14:57:29Z</time>
      </trkpt>
      <trkpt lat="44.63971" lon="1.72606">
        <ele>354.2</ele>
        <time>2025-03-30T14:57:33Z</time>
      </trkpt>
      <trkpt lat="44.63976" lon="1.72605">
        <ele>354.8</ele>
        <time>2025-03-30T14:57:37Z</time>
      </trkpt>
      <trkpt lat="44.63981" lon="1.72603">
        <ele>355.1</ele>
        <time>2025-03-30T14:57:41Z</time>
      </trkpt>
      <trkpt lat="44.63985" lon="1.72601">
        <ele>355.1</ele>
        <time>2025-03-30T14:57:45Z</time>
      </trkpt>
      <trkpt lat="44.6399" lon="1.72599">
        <ele>355.3</ele>
        <time>2025-03-30T14:57:49Z</time>
      </trkpt>
      <trkpt lat="44.63994" lon="1.72597">
        <ele>356.2</ele>
        <time>2025-03-30T14:57:53Z</time>
      </trkpt>
      <trkpt lat="44.63998" lon="1.72595">
        <ele>356.8</ele>
        <time>2025-03-30T14:57:57Z</time>
      </trkpt>
      <trkpt lat="44.64003" lon="1.72592">
        <ele>356.6</ele>
        <time>2025-03-30T14:58:01Z</time>
      </trkpt>
      <trkpt lat="44.64007" lon="1.72589">
        <ele>356.8</ele>
        <time>2025-03-30T14:58:05Z</time>
      </trkpt>
      <trkpt lat="44.64012" lon="1.72587">
        <ele>356.7</ele>
        <time>2025-03-30T14:58:09Z</time>
      </trkpt>
      <trkpt lat="44.64016" lon="1.72585">
        <ele>356.4</ele>
        <time>2025-03-30T14:58:13Z</time>
      </trkpt>
      <trkpt lat="44.6402" lon="1.72583">
        <ele>356.3</ele>
        <time>2025-03-30T14:58:17Z</time>
      </trkpt>
      <trkpt lat="44.64025" lon="1.72583">
        <ele>356.6</ele>
        <time>2025-03-30T14:58:21Z</time>
      </trkpt>
      <trkpt lat="44.6403" lon="1.72582">
        <ele>356.7</ele>
        <time>2025-03-30T14:58:25Z</time>
      </trkpt>
      <trkpt lat="44.64035" lon="1.72582">
        <ele>356.7</ele>
        <time>2025-03-30T14:58:29Z</time>
      </trkpt>
      <trkpt lat="44.64039" lon="1.72581">
        <ele>356.8</ele>
        <time>2025-03-30T14:58:33Z</time>
      </trkpt>
      <trkpt lat="44.64044" lon="1.72581">
        <ele>356.8</ele>
        <time>2025-03-30T14:58:37Z</time>
      </trkpt>
      <trkpt lat="44.64049" lon="1.72582">
        <ele>356.6</ele>
        <time>2025-03-30T14:58:41Z</time>
      </trkpt>
      <trkpt lat="44.64053" lon="1.72583">
        <ele>356.3</ele>
        <time>2025-03-30T14:58:45Z</time>
      </trkpt>
      <trkpt lat="44.64058" lon="1.72585">
        <ele>356.2</ele>
        <time>2025-03-30T14:58:49Z</time>
      </trkpt>
      <trkpt lat="44.64063" lon="1.72581">
        <ele>353.1</ele>
        <time>2025-03-30T15:02:35Z</time>
      </trkpt>
      <trkpt lat="44.64085" lon="1.7256">
        <ele>354.7</ele>
        <time>2025-03-30T15:02:39Z</time>
      </trkpt>
      <trkpt lat="44.64088" lon="1.72574">
        <ele>353.8</ele>
      </trkpt>
      <trkpt lat="44.64091" lon="1.72579">
        <ele>353.5</ele>
        <time>2025-03-30T15:02:44Z</time>
      </trkpt>
      <trkpt lat="44.64094" lon="1.72579">
        <ele>353.6</ele>
        <time>2025-03-30T15:02:49Z</time>
      </trkpt>
      <trkpt lat="44.64097" lon="1.72578">
        <ele>353.8</ele>
      </trkpt>
    </trkseg>
  </trk>
</gpx>